[[{"header":{"parameterUnit":"m.s-1","parameterCategory":1,"la1":30.6,"la2":28.766,"lo1":-90.7593,"lo2":-88.6598,"dy":0.0162,"dx":0.0183,"nx":116,"ny":114,"refTime":"2023-08-21T06:00:00:Z","depth":0,"parameterNumber":2,"parameterNumberName":"U-component_of_WINDS"},"data":[0.0,0.0,0.0,0.0,0.0,0.0,0.0,0.0,0.0,0.0,0.0,0.0,0.0,0.0,0.0,0.0,0.0,0.0,0.0,0.0,0.0,0.0,0.0,0.0,0.0,0.0,0.0,0.0,0.0,0.0,0.0,0.0,0.0,0.0,0.0,0.0,0.0,0.0,0.0,0.0,0.0,0.0,0.0,0.0,0.0,0.0,0.0,0.0,0.0,0.0,0.0,0.0,0.0,0.0,0.0,0.0,0.0,0.0,0.0,0.0,0.0,0.0,0.0,0.0,0.0,0.0,0.0,0.0,0.0,0.0,0.0,0.0,0.0,0.0,0.0,0.0,0.0,0.0,0.0,0.0,0.0,0.0,0.0,0.0,0.0,0.0,0.0,0.0,0.0,0.0,0.0,0.0,0.0,0.0,0.0,0.0,0.0,0.0,0.0,0.0,0.0,0.0,0.0,0.0,0.0,0.0,0.0,0.0,0.0,0.0,0.0,0.0,0.0,0.0,0.0,0.0,0.0,0.0,0.0,0.0,0.0,0.0,0.0,0.0,0.0,0.0,0.0,0.0,0.0,0.0,0.0,0.0,0.0,0.0,0.0,0.0,0.0,0.0,0.0,0.0,0.0,0.0,0.0,0.0,0.0,0.0,0.0,0.0,0.0,0.0,0.0,0.0,0.0,0.0,0.0,0.0,0.0,0.0,0.0,0.0,0.0,0.0,0.0,0.0,0.0,0.0,0.0,0.0,0.0,0.0,0.0,0.0,0.0,0.0,0.0,0.0,0.0,0.0,0.0,0.0,0.0,0.0,0.0,0.0,0.0,0.0,0.0,0.0,0.0,0.0,0.0,0.0,0.0,0.0,0.0,0.0,0.0,0.0,0.0,0.0,0.0,0.0,0.0,0.0,0.0,0.0,0.0,0.0,0.0,0.0,0.0,0.0,0.0,0.0,0.0,0.0,0.0,0.0,0.0,0.0,0.0,0.0,0.0,0.0,0.0,0.0,0.0,0.0,0.0,0.0,0.0,0.0,0.0,0.0,0.0,0.0,0.0,0.0,0.0,0.0,0.0,0.0,0.0,0.0,0.0,0.0,0.0,0.0,0.0,0.0,0.0,0.0,0.0,0.0,0.0,0.0,0.0,0.0,0.0,0.0,0.0,0.0,0.0,0.0,0.0,0.0,0.0,0.0,0.0,0.0,0.0,0.0,0.0,0.0,0.0,0.0,0.0,0.0,0.0,0.0,0.0,0.0,0.0,0.0,0.0,0.0,0.0,0.0,0.0,0.0,0.0,0.0,0.0,0.0,0.0,0.0,0.0,0.0,0.0,0.0,0.0,0.0,0.0,0.0,0.0,0.0,0.0,0.0,0.0,0.0,0.0,0.0,0.0,0.0,0.0,0.0,0.0,0.0,0.0,0.0,0.0,0.0,0.0,0.0,0.0,0.0,0.0,0.0,0.0,0.0,0.0,0.0,0.0,0.0,0.0,0.0,0.0,0.0,0.0,0.0,0.0,0.0,0.0,0.0,0.0,0.0,0.0,0.0,0.0,0.0,0.0,0.0,0.0,0.0,0.0,0.0,0.0,0.0,0.0,0.0,0.0,0.0,0.0,0.0,0.0,0.0,0.0,0.0,0.0,0.0,0.0,0.0,0.0,0.0,0.0,0.0,0.0,0.0,0.0,0.0,0.0,0.0,0.0,0.0,0.0,0.0,0.0,0.0,0.0,0.0,0.0,0.0,0.0,0.0,0.0,0.0,0.0,0.0,0.0,0.0,0.0,0.0,0.0,0.0,0.0,0.0,0.0,0.0,0.0,0.0,0.0,0.0,0.0,0.0,0.0,0.0,0.0,0.0,0.0,0.0,0.0,0.0,0.0,0.0,0.0,0.0,0.0,0.0,0.0,0.0,0.0,0.0,0.0,0.0,0.0,0.0,0.0,0.0,0.0,0.0,0.0,0.0,0.0,0.0,0.0,0.0,0.0,0.0,0.0,0.0,0.0,0.0,0.0,0.0,0.0,0.0,0.0,0.0,0.0,0.0,0.0,0.0,0.0,0.0,0.0,0.0,0.0,0.0,0.0,0.0,0.0,0.0,0.0,0.0,0.0,0.0,0.0,0.0,0.0,0.0,0.0,0.0,0.0,0.0,0.0,0.0,0.0,0.0,0.0,0.0,0.0,0.0,0.0,0.0,0.0,0.0,0.0,0.0,0.0,0.0,0.0,0.0,0.0,0.0,0.0,0.0,0.0,0.0,0.0,0.0,0.0,0.0,0.0,0.0,0.0,0.0,0.0,0.0,0.0,0.0,0.0,0.0,0.0,0.0,0.0,0.0,0.0,0.0,0.0,0.0,0.0,0.0,0.0,0.0,0.0,0.0,0.0,0.0,0.0,0.0,0.0,0.0,0.0,0.0,0.0,0.0,0.0,0.0,0.0,0.0,0.0,0.0,0.0,0.0,0.0,0.0,0.0,0.0,0.0,0.0,0.0,0.0,0.0,0.0,0.0,0.0,0.0,0.0,0.0,0.0,0.0,0.0,0.0,0.0,0.0,0.0,0.0,0.0,0.0,0.0,0.0,0.0,0.0,0.0,0.0,0.0,0.0,0.0,0.0,0.0,0.0,0.0,0.0,0.0,0.0,0.0,0.0,0.0,0.0,0.0,0.0,0.0,0.0,0.0,0.0,0.0,0.0,0.0,0.0,0.0,0.0,0.0,0.0,0.0,0.0,0.0,0.0,0.0,0.0,0.0,0.0,0.0,0.0,0.0,0.0,0.0,0.0,0.0,0.0,0.0,0.0,0.0,0.0,0.0,0.0,0.0,0.0,0.0,0.0,0.0,0.0,0.0,0.0,0.0,0.0,0.0,0.0,0.0,0.0,0.0,0.0,0.0,0.0,0.0,0.0,0.0,0.0,0.0,0.0,0.0,0.0,0.0,0.0,0.0,0.0,0.0,0.0,0.0,0.0,0.0,0.0,0.0,0.0,0.0,0.0,0.0,0.0,0.0,0.0,0.0,0.0,0.0,0.0,0.0,0.0,0.0,0.0,0.0,0.0,0.0,0.0,0.0,0.0,0.0,0.0,0.0,0.0,0.0,0.0,0.0,0.0,0.0,0.0,0.0,0.0,0.0,0.0,0.0,0.0,0.0,0.0,0.0,0.0,0.0,0.0,0.0,0.0,0.0,0.0,0.0,0.0,0.0,0.0,0.0,0.0,0.0,0.0,0.0,0.0,0.0,0.0,0.0,0.0,0.0,0.0,0.0,0.0,0.0,0.0,0.0,0.0,0.0,0.0,0.0,0.0,0.0,0.0,0.0,0.0,0.0,0.0,0.0,0.0,0.0,0.0,0.0,0.0,0.0,0.0,0.0,0.0,0.0,0.0,0.0,0.0,0.0,0.0,0.0,0.0,0.0,0.0,0.0,0.0,0.0,0.0,0.0,0.0,0.0,0.0,0.0,0.0,0.0,0.0,0.0,0.0,0.0,0.0,0.0,0.0,0.0,0.0,0.0,0.0,0.0,0.0,0.0,0.0,0.0,0.0,0.0,0.0,0.0,0.0,0.0,0.0,0.0,0.0,0.0,0.0,0.0,0.0,0.0,0.0,0.0,0.0,0.0,0.0,0.0,0.0,0.0,0.0,0.0,0.0,0.0,0.0,0.0,0.0,0.0,0.0,0.0,0.0,0.0,0.0,0.0,0.0,0.0,0.0,0.0,0.0,0.0,0.0,0.0,0.0,0.0,0.0,0.0,0.0,0.0,0.0,0.0,0.0,0.0,0.0,0.0,0.0,0.0,0.0,0.0,0.0,0.0,0.0,0.0,0.0,0.0,0.0,0.0,0.0,0.0,0.0,0.0,0.0,0.0,0.0,0.0,0.0,0.0,0.0,0.0,0.0,0.0,0.0,0.0,0.0,0.0,0.0,0.0,0.0,0.0,0.0,0.0,0.0,0.0,0.0,0.0,0.0,0.0,0.0,0.0,0.0,0.0,0.0,0.0,0.0,0.0,0.0,0.0,0.0,0.0,0.0,0.0,0.0,0.0,0.0,0.0,0.0,0.0,0.0,0.0,0.0,0.0,0.0,0.0,0.0,0.0,0.0,0.0,0.0,0.0,0.0,0.0,0.0,0.0,0.0,0.0,0.0,0.0,0.0,0.0,0.0,0.0,0.0,0.0,0.0,0.0,0.0,0.0,0.0,0.0,0.0,0.0,0.0,0.0,0.0,0.0,0.0,0.0,0.0,0.0,0.0,0.0,0.0,0.0,0.0,0.0,0.0,0.0,0.0,0.0,0.0,0.0,0.0,0.0,0.0,0.0,0.0,0.0,0.0,0.0,0.0,0.0,0.0,0.0,0.0,0.0,0.0,0.0,0.0,0.0,0.0,0.0,0.0,0.0,0.0,0.0,0.0,0.0,0.0,0.0,0.0,0.0,0.0,0.0,0.0,0.0,0.0,0.0,0.0,0.0,0.0,0.0,0.0,0.0,0.0,0.0,0.0,0.0,0.0,0.0,0.0,0.0,0.0,0.0,0.0,0.0,0.0,0.0,0.0,0.0,0.0,0.0,0.0,0.0,0.0,0.0,0.0,0.0,0.0,0.0,0.0,0.0,0.0,0.0,0.0,0.0,0.0,0.0,0.0,0.0,0.0,0.0,0.0,0.0,0.0,0.0,0.0,0.0,0.0,0.0,0.0,0.0,0.0,0.0,0.0,0.0,0.0,0.0,0.0,0.0,0.0,0.0,0.0,0.0,0.0,0.0,0.0,0.0,0.0,0.0,0.0,0.0,0.0,0.0,0.0,0.0,0.0,0.0,0.0,0.0,0.0,0.0,0.0,0.0,0.0,0.0,0.0,0.0,0.0,0.0,0.0,0.0,0.0,0.0,0.0,0.0,0.0,0.0,0.0,0.0,0.0,0.0,0.0,0.0,0.0,0.0,0.0,0.0,0.0,0.0,0.0,0.0,0.0,0.0,0.0,0.0,0.0,0.0,0.0,0.0,0.0,0.0,0.0,0.0,0.0,0.0,0.0,0.0,0.0,0.0,0.0,0.0,0.0,0.0,0.0,0.0,0.0,0.0,0.0,0.0,0.0,0.0,0.0,0.0,0.0,0.0,0.0,0.0,0.0,0.0,0.0,0.0,0.0,0.0,0.0,0.0,0.0,0.0,0.0,0.0,0.0,0.0,0.0,0.0,0.0,0.0,0.0,0.0,0.0,0.0,0.0,0.0,0.0,0.0,0.0,0.0,0.0,0.0,0.0,0.0,0.0,0.0,0.0,0.0,0.0,0.0,0.0,0.0,0.0,0.0,0.0,0.0,0.0,0.0,0.0,0.0,0.0,0.0,0.0,0.0,0.0,0.0,0.0,0.0,0.0,0.0,0.0,0.0,0.0,0.0,0.0,0.0,0.0,0.0,0.0,0.0,0.0,0.0,0.0,0.0,0.0,0.0,0.0,0.0,0.0,0.0,0.0,0.0,0.0,0.0,0.0,0.0,0.0,0.0,0.0,0.0,0.0,0.0,0.0,0.0,0.0,0.0,0.0,0.0,0.0,0.0,0.0,0.0,0.0,0.0,0.0,0.0,0.0,0.0,0.0,0.0,0.0,0.0,0.0,0.0,0.0,0.0,0.0,0.0,0.0,0.0,0.0,0.0,0.0,0.0,0.0,0.0,0.0,0.0,0.0,0.0,0.0,0.0,0.0,0.0,0.0,0.0,0.0,0.0,0.0,0.0,0.0,0.0,0.0,0.0,0.0,0.0,0.0,0.0,0.0,0.0,0.0,0.0,0.0,0.0,0.0,0.0,0.0,0.0,0.0,0.0,0.0,0.0,0.0,0.0,0.0,0.0,0.0,0.0,0.0,0.0,0.0,0.0,0.0,0.0,0.0,0.0,0.0,0.0,0.0,0.0,0.0,0.0,0.0,0.0,0.0,0.0,0.0,0.0,0.0,0.0,0.0,0.0,0.0,0.0,0.0,0.0,0.0,0.0,0.0,0.0,0.0,0.0,0.0,0.0,0.0,0.0,0.0,0.0,0.0,0.0,0.0,0.0,0.0,0.0,0.0,0.0,0.0,0.0,0.0,0.0,0.0,0.0,0.0,0.0,0.0,0.0,-2.9677,-2.9126,0.0,0.0,0.0,0.0,0.0,0.0,0.0,0.0,0.0,0.0,0.0,0.0,0.0,0.0,0.0,0.0,0.0,0.0,0.0,0.0,0.0,0.0,0.0,0.0,0.0,0.0,0.0,0.0,0.0,0.0,0.0,0.0,0.0,0.0,0.0,0.0,0.0,-3.1445,-3.061,-3.025,-3.0171,-2.8253,-2.583,-2.3066,0.0,0.0,0.0,0.0,0.0,0.0,0.0,0.0,0.0,0.0,0.0,0.0,0.0,0.0,0.0,0.0,0.0,0.0,0.0,0.0,0.0,0.0,0.0,0.0,0.0,0.0,0.0,0.0,0.0,0.0,0.0,0.0,0.0,0.0,0.0,0.0,0.0,0.0,0.0,0.0,0.0,0.0,0.0,0.0,0.0,0.0,0.0,0.0,0.0,0.0,0.0,0.0,0.0,0.0,0.0,0.0,0.0,0.0,0.0,0.0,0.0,0.0,0.0,0.0,0.0,0.0,0.0,0.0,0.0,0.0,-2.9176,-2.8491,0.0,0.0,0.0,0.0,0.0,0.0,0.0,0.0,0.0,0.0,0.0,0.0,0.0,0.0,0.0,0.0,0.0,0.0,0.0,0.0,0.0,0.0,0.0,0.0,-2.1269,-2.1269,-2.1269,0.0,0.0,0.0,0.0,0.0,0.0,0.0,0.0,-2.9062,-3.0082,-3.177,-3.1594,-3.1775,-3.2315,-3.0609,-2.8179,-2.5092,-2.2694,0.0,0.0,0.0,0.0,0.0,0.0,0.0,0.0,0.0,0.0,0.0,0.0,0.0,0.0,0.0,0.0,0.0,0.0,0.0,0.0,0.0,0.0,0.0,0.0,0.0,0.0,0.0,0.0,0.0,0.0,0.0,0.0,0.0,0.0,0.0,0.0,0.0,0.0,0.0,0.0,0.0,0.0,0.0,0.0,0.0,0.0,0.0,0.0,0.0,0.0,0.0,0.0,0.0,0.0,0.0,0.0,0.0,0.0,0.0,0.0,0.0,0.0,0.0,-2.681,-2.6852,-2.6588,-2.7205,-2.8044,-2.9096,-2.8263,-2.7752,-2.7407,-2.7165,0.0,0.0,0.0,0.0,0.0,0.0,0.0,0.0,0.0,0.0,0.0,0.0,0.0,0.0,0.0,0.0,0.0,0.0,0.0,0.0,0.0,-2.1871,-2.1871,-2.1871,-2.1871,-2.2002,0.0,0.0,0.0,0.0,0.0,0.0,-2.7151,-2.9035,-2.9295,-2.768,-2.8392,-3.0137,-3.2838,-3.1081,-3.0703,-3.1456,-2.615,-2.3739,-2.3471,0.0,0.0,0.0,0.0,0.0,0.0,0.0,0.0,0.0,0.0,0.0,0.0,0.0,0.0,0.0,0.0,0.0,0.0,0.0,0.0,0.0,0.0,0.0,0.0,0.0,0.0,0.0,0.0,0.0,0.0,0.0,0.0,0.0,0.0,0.0,0.0,0.0,0.0,0.0,0.0,0.0,-2.8072,-2.6818,0.0,0.0,0.0,0.0,0.0,0.0,0.0,0.0,0.0,0.0,0.0,0.0,0.0,-2.5697,-2.5999,-2.4882,-2.4118,-2.3752,-2.4783,-2.4975,-2.4494,-2.6473,-2.7431,-2.7604,-2.7141,0.0,-2.7233,-2.8154,0.0,0.0,0.0,0.0,0.0,0.0,0.0,0.0,0.0,0.0,0.0,0.0,0.0,0.0,0.0,0.0,0.0,0.0,0.0,0.0,0.0,-2.2378,-2.2065,-2.1034,-2.111,-2.0659,-1.9312,0.0,0.0,0.0,0.0,-2.4007,-2.6056,-2.6922,-2.7671,-2.8341,-2.946,-3.0585,-3.1731,-3.092,-3.0866,-3.1262,-2.9041,-2.6831,-2.48,-2.4,0.0,0.0,0.0,0.0,0.0,0.0,0.0,0.0,0.0,0.0,0.0,0.0,0.0,0.0,0.0,0.0,0.0,0.0,0.0,0.0,0.0,0.0,0.0,0.0,0.0,0.0,0.0,0.0,0.0,0.0,0.0,0.0,0.0,0.0,0.0,0.0,0.0,0.0,0.0,-2.7447,-2.7395,-2.5482,-2.5154,-2.4056,0.0,0.0,0.0,0.0,0.0,0.0,0.0,0.0,0.0,-2.289,-2.275,-2.2898,-2.3376,-2.2989,-2.2616,-2.248,-2.2973,-2.3018,-2.2557,-2.3573,-2.3959,-2.3821,-2.3706,-2.3739,-2.4,-2.6253,-2.6274,-2.4811,0.0,0.0,0.0,0.0,-2.6577,-2.6402,0.0,0.0,0.0,0.0,0.0,0.0,0.0,0.0,0.0,0.0,0.0,0.0,-2.1984,-2.1779,-2.1124,-1.9782,-1.9918,-1.9329,-1.7502,-1.8579,0.0,-1.9715,-2.0928,-2.2633,-2.4907,-2.4989,-2.6433,-2.9401,-2.9934,-3.0434,-3.0811,-3.0906,-3.1113,-3.1306,-3.1482,-2.9822,-2.6838,-2.6298,-2.4694,-2.2448,0.0,0.0,0.0,0.0,0.0,0.0,0.0,0.0,0.0,0.0,0.0,0.0,0.0,0.0,0.0,0.0,0.0,0.0,0.0,0.0,0.0,0.0,0.0,0.0,0.0,0.0,0.0,0.0,0.0,0.0,0.0,0.0,0.0,0.0,0.0,0.0,0.0,-2.6411,-2.5998,-2.4318,-2.3782,-2.2549,0.0,0.0,0.0,0.0,0.0,0.0,-1.8596,-1.9077,-1.9661,-2.0365,-2.0979,-2.15,-2.2017,-2.1631,-2.1344,-2.1191,-2.1191,-2.1063,-2.075,-2.1363,-2.1449,-2.1215,-2.1215,-2.1185,-2.1398,-2.3515,-2.4327,-2.4128,-2.3366,-2.3725,-2.469,-2.4972,-2.4871,-2.473,0.0,0.0,0.0,0.0,0.0,0.0,0.0,0.0,0.0,0.0,0.0,-2.0508,-2.0915,-1.9404,-1.8365,-1.8518,-1.8481,-1.8493,-1.8524,-1.8071,-1.8633,-2.0523,-2.0579,-2.1472,-2.337,-2.4174,-2.6112,-2.9252,-2.7764,-2.8386,-3.1037,-3.1272,-3.2375,-3.4276,-3.3585,-3.2271,-3.0408,-2.7944,-2.6702,-2.6088,-2.347,0.0,0.0,0.0,0.0,0.0,0.0,0.0,0.0,0.0,0.0,0.0,0.0,0.0,0.0,0.0,0.0,0.0,0.0,0.0,0.0,0.0,0.0,0.0,0.0,0.0,0.0,0.0,0.0,0.0,0.0,0.0,0.0,0.0,0.0,0.0,0.0,0.0,0.0,-2.3794,-2.2051,0.0,0.0,0.0,0.0,-1.8898,-1.9477,-2.0009,-2.0443,-2.1151,-2.1781,-2.2192,-2.2522,-2.2755,-2.2879,-2.0634,-1.9403,-1.9395,-1.9395,-1.9201,-1.893,-2.121,-2.1961,-2.1369,-2.1369,-2.1326,-2.1171,-2.0483,-2.0311,-2.0495,-1.9314,-1.9094,-1.9313,-1.9123,-1.9173,-1.9423,0.0,0.0,0.0,0.0,0.0,0.0,0.0,0.0,-1.8439,-1.8524,-1.8717,-1.9,-1.938,-1.9196,-1.8558,-1.7404,-1.7572,-1.7064,-1.5522,-1.6165,-1.6865,-1.7498,-1.8394,-1.9253,-2.0162,-2.1111,-2.2191,-2.3318,-2.4962,-2.6321,-2.7444,-2.9046,-3.0212,-3.1049,-3.2357,-3.2551,-3.1657,-2.9381,-2.7144,-2.4974,-2.3931,-2.3033,0.0,0.0,0.0,0.0,0.0,0.0,0.0,0.0,0.0,0.0,0.0,0.0,0.0,0.0,0.0,0.0,0.0,0.0,0.0,0.0,0.0,0.0,0.0,0.0,0.0,0.0,0.0,0.0,0.0,0.0,0.0,0.0,0.0,0.0,0.0,0.0,0.0,-2.2005,-2.171,0.0,-1.811,-1.8139,-1.7785,-1.6658,-1.6855,-1.7165,-1.7506,-1.7904,-1.8235,-1.8407,-1.8679,-1.8765,-1.8865,-1.7976,-1.7382,-1.7282,-1.7282,-1.7054,-1.6634,-1.7359,-1.7604,-1.7235,-1.7116,-1.7055,-1.6872,-1.6514,-1.8208,-2.0873,-2.0467,-2.0223,-2.0163,-2.0083,-2.0103,-2.0173,0.0,0.0,0.0,0.0,0.0,0.0,0.0,0.0,-1.6793,-1.6934,-1.7095,-1.7412,-1.7976,-1.7756,-1.7135,-1.6011,-1.6137,-1.5541,-1.395,-1.4526,-1.5233,-1.58,-1.7328,-1.8362,-1.8868,-1.9763,-2.0313,-2.0571,-2.2922,-2.4119,-2.4285,-2.5902,-2.6762,-2.6937,-2.8397,-2.9609,-3.0235,-2.8757,-2.7327,-2.6098,-2.5269,-2.4342,-2.3367,0.0,0.0,0.0,0.0,0.0,0.0,0.0,0.0,0.0,0.0,0.0,0.0,0.0,0.0,0.0,0.0,0.0,0.0,0.0,0.0,0.0,0.0,0.0,0.0,0.0,0.0,0.0,0.0,0.0,0.0,0.0,0.0,0.0,0.0,-2.1461,-2.0463,-2.0233,-2.0131,-1.9209,-1.6788,-1.698,-1.6815,-1.5568,-1.5669,-1.5893,-1.6144,-1.63,-1.6408,-1.6456,-1.6551,-1.6571,-1.6524,-1.6524,-1.6422,-1.6232,-1.6185,-1.5974,-1.5628,-1.5479,-1.5276,-1.5038,-1.493,-1.4746,-1.4509,-1.4509,-1.6267,-1.8976,-1.9749,-1.9923,-1.9809,-1.9809,-1.9809,-1.9714,0.0,0.0,0.0,0.0,0.0,0.0,0.0,-1.3501,-1.4993,-1.5353,-1.5347,-1.5729,-1.6707,-1.4956,-1.3954,-1.4489,-1.4258,-1.415,-1.4292,-1.3471,-1.3916,-1.5828,-1.7534,-1.8809,-1.9683,-2.0321,-2.0861,-2.1303,-2.1817,-2.2034,-2.2044,-2.2126,-2.2337,-2.263,-2.2327,-2.3733,-2.6341,-2.6085,-2.7465,-2.9636,-2.7354,-2.5745,-2.469,0.0,0.0,0.0,0.0,0.0,0.0,0.0,0.0,0.0,0.0,0.0,0.0,0.0,0.0,0.0,0.0,0.0,0.0,0.0,0.0,0.0,0.0,0.0,0.0,0.0,0.0,0.0,0.0,0.0,0.0,0.0,0.0,0.0,-2.0636,-1.9613,-1.8566,-1.8513,-1.7238,-1.6049,-1.5309,-1.5635,-1.5954,-1.6096,-1.6374,-1.6598,-1.6748,-1.6897,-1.691,-1.6761,-1.6754,-1.6686,-1.6537,-1.6537,-1.653,-1.6524,-1.6381,-1.6239,-1.6083,-1.5927,-1.5615,-1.5201,-1.5194,-1.4936,-1.4529,-1.4523,-1.4434,-1.4564,-1.6809,-1.7676,-1.7676,-1.7676,-1.7676,-1.7389,0.0,0.0,0.0,0.0,0.0,0.0,0.0,-1.2831,-1.3382,-1.367,-1.2395,-1.2392,-1.4727,-1.3001,-1.2571,-1.4638,-1.4563,-1.4367,-1.4306,-1.3763,-1.3659,-1.407,-1.4773,-1.5355,-1.5988,-1.6385,-1.6804,-1.7261,-1.914,-2.0175,-2.0448,-2.2116,-2.3014,-2.3212,-2.3259,-2.3642,-2.4248,-2.4124,-2.4398,-2.4969,-2.6893,-2.7215,-2.6466,0.0,0.0,0.0,0.0,0.0,0.0,0.0,0.0,0.0,0.0,0.0,0.0,0.0,0.0,0.0,0.0,0.0,0.0,0.0,0.0,0.0,0.0,0.0,0.0,0.0,0.0,0.0,0.0,0.0,0.0,0.0,-1.6975,-1.6725,-1.9108,-1.7994,-1.7056,-1.7199,-1.7099,-1.6829,-1.6517,-1.6693,-1.6802,-1.6741,-1.6809,-1.687,-1.6917,-1.6958,-1.6958,-1.6917,-1.6917,-1.6897,-1.6856,-1.6856,-1.6795,-1.6686,-1.6537,-1.6388,-1.6239,-1.5974,-1.5784,-1.5655,-1.5438,-1.5215,-1.4984,-1.4767,-1.459,-1.4531,-1.5034,-1.5256,-1.5256,-1.5256,-1.5256,-1.5147,0.0,0.0,0.0,0.0,0.0,0.0,0.0,-0.9826,-1.0103,-1.0244,-0.9333,-0.9334,-1.1241,-1.0135,-1.0046,-1.174,-1.1544,-1.1749,-1.2607,-1.2368,-1.1678,-1.0598,-1.0681,-1.15,-1.3114,-1.3445,-1.4335,-1.5825,-1.7403,-1.8251,-1.8436,-1.9817,-2.041,-2.0505,-2.0613,-2.12,-2.2172,-2.2158,-2.2614,-2.3581,-2.5604,-2.5896,-2.5139,-2.5372,-2.505,-2.4655,-2.5175,-2.5211,-2.4745,-2.3192,0.0,0.0,0.0,0.0,0.0,0.0,0.0,0.0,0.0,0.0,0.0,0.0,0.0,0.0,0.0,0.0,0.0,0.0,0.0,0.0,0.0,0.0,0.0,0.0,-1.6553,-1.6335,-1.7923,-1.7227,-1.668,-1.691,-1.7141,-1.7256,-1.7175,-1.7182,-1.7161,-1.7073,-1.7012,-1.6978,-1.6978,-1.6978,-1.6978,-1.6978,-1.6978,-1.6978,-1.6978,-1.6978,-1.6937,-1.6842,-1.6693,-1.6537,-1.6388,-1.6151,-1.5974,-1.5845,-1.5669,-1.5438,-1.5167,-1.493,-1.4706,0.0,0.0,0.0,0.0,0.0,-1.5168,-1.4285,0.0,0.0,0.0,0.0,0.0,0.0,0.0,-0.6227,-0.6356,-0.6489,-0.6405,-0.6563,-0.7329,-0.6984,-0.6993,-0.7575,-0.7327,-0.8017,-0.9956,-0.986,-0.8736,-0.664,-0.6726,-0.7995,-1.0782,-1.1202,-1.2609,-1.5244,-1.5494,-1.5622,-1.5635,-1.5616,-1.5622,-1.5635,-1.5616,-1.7035,-1.9479,-1.9541,-2.1041,-2.3446,-2.3135,-2.2751,-2.2452,-2.3863,-2.4085,-2.3817,-2.5244,-2.5476,-2.4997,-2.4725,0.0,0.0,0.0,0.0,0.0,0.0,0.0,0.0,0.0,0.0,0.0,0.0,0.0,0.0,0.0,0.0,0.0,0.0,0.0,0.0,0.0,0.0,0.0,0.0,-1.7268,-1.6666,-1.7012,-1.706,-1.71,-1.7202,-1.7351,-1.7439,-1.7419,-1.7311,-1.7236,-1.7216,-1.71,-1.7032,-1.7032,-1.7032,0.0,0.0,0.0,-1.6998,-1.6978,-1.6978,-1.6978,-1.6978,-1.6822,-1.668,-1.6544,-1.6402,-1.6178,-1.5906,-1.5886,-1.5635,-1.5221,-1.5059,-1.4801,-1.4675,-1.6616,-1.7413,-1.7413,-1.7413,-1.6122,-1.4299,0.0,0.0,0.0,0.0,0.0,0.0,0.0,-0.6346,-0.6492,-0.6659,-0.5065,-0.4881,-0.7269,-0.5715,-0.5291,-0.7582,-0.747,-0.7387,-0.7573,-0.7452,-0.7177,-0.6838,-0.7112,-0.7575,-0.8243,-0.8782,-0.9224,-0.976,-0.9896,-0.9948,-1.0021,-0.9948,-0.9952,-1.0017,-0.9944,-1.1517,-1.4203,-1.4002,-1.5526,-1.8115,-1.8047,-1.9999,-2.3173,-2.3165,-2.279,-2.2252,-2.2215,-2.2266,-2.2153,-2.0044,-1.9063,-1.8337,-1.6252,0.0,0.0,0.0,0.0,0.0,0.0,0.0,0.0,0.0,0.0,0.0,0.0,0.0,0.0,0.0,0.0,0.0,0.0,0.0,0.0,-1.6503,-1.6659,-1.6897,-1.7446,-1.7521,-1.7487,-1.7385,-1.7514,-1.7555,-1.7433,-1.7507,-1.7507,-1.7385,-1.7351,-1.7338,-1.7338,-1.7338,-1.7277,-1.7154,-1.7154,-1.71,-1.6985,-1.6978,-1.6978,-1.6978,0.0,0.0,-1.67,-1.6551,-1.6388,-1.6218,-1.609,-1.5852,-1.5527,-1.5255,-1.4896,-1.4496,-1.4878,-1.4992,-1.4992,-1.4992,-1.4646,-1.4285,0.0,0.0,0.0,0.0,0.0,0.0,0.0,-0.3231,-0.3303,-0.3316,-0.2377,-0.2184,-0.3621,-0.2625,-0.2454,-0.3779,-0.4774,-0.4813,-0.3515,-0.4439,-0.4533,-0.3469,-0.3638,-0.4306,-0.5811,-0.6125,-0.6912,-0.8267,-0.8409,-0.845,-0.8484,-0.8447,-0.845,-0.8484,-0.8447,-0.9187,-1.0597,-1.0504,-1.1227,-1.2634,-1.2469,-1.3905,-1.6361,-1.9978,-2.1105,-2.0815,-2.1721,-2.2162,-2.1967,-2.0659,-1.9398,-1.8209,-1.6946,-1.5517,-1.4211,0.0,0.0,0.0,0.0,0.0,0.0,0.0,0.0,0.0,0.0,0.0,0.0,0.0,0.0,-1.4991,-1.5445,0.0,-1.6049,-1.6653,-1.7066,-1.7412,-1.7717,-1.7894,-1.7894,-1.767,-1.7704,-1.7717,-1.765,-1.765,-1.7616,-1.7541,-1.7467,-1.7419,-1.7419,-1.7419,-1.7385,-1.7311,-1.7229,-1.7161,-1.7087,-1.7019,-1.6978,-1.6978,-1.6904,-1.6822,-1.6748,-1.6673,-1.6517,-1.6307,-1.6232,-1.6022,-1.5716,-1.5337,-1.4964,-1.4618,-1.455,-1.4428,-1.4299,-1.4299,-1.4299,-1.4292,0.0,0.0,0.0,0.0,0.0,0.0,0.0,0.0,0.0,0.0,0.0,0.0,0.0,0.0,0.0,0.0,-0.1673,-0.1946,-0.0091,-0.1666,-0.1905,-0.01,0.0,-0.1025,-0.3225,-0.3354,-0.452,-0.6719,-0.6769,-0.6899,-0.6899,-0.6899,-0.6899,-0.6899,-0.6899,-0.7111,-0.7641,-0.7641,-0.7958,-0.8487,-0.8487,-0.8487,-0.9202,-1.5437,-1.7966,-1.8428,-2.0251,-2.1114,-2.1352,-2.1398,-2.0019,-1.8335,-1.8367,-1.6852,-1.5052,-1.457,-1.4489,0.0,0.0,0.0,0.0,0.0,0.0,0.0,0.0,-1.4923,-1.5031,-1.5635,-1.5757,-1.5913,-1.6429,-1.6646,-1.687,-1.7256,-1.765,-1.7935,-1.7989,-1.8179,-1.8233,-1.8023,-1.7948,-1.7914,-1.7914,-1.7772,-1.7684,-1.7684,-1.7575,-1.7507,-1.7507,-1.7507,-1.7494,-1.7467,-1.7317,-1.7222,-1.7195,-1.7053,-1.6978,-1.6978,-1.6978,-1.6917,-1.6795,-1.6795,-1.6646,-1.6388,-1.63,-1.611,-1.5825,-1.5432,-1.5092,-1.4828,-1.4828,-1.4624,-1.434,-1.434,-1.4326,-1.4299,0.0,0.0,0.0,0.0,0.0,0.0,0.0,0.0,0.0,0.0,0.0,0.0,0.0,0.0,0.0,0.0,-0.0266,-0.0271,0.0,-0.019,-0.0294,0.0,0.0,-0.0105,-0.0425,-0.0425,-0.0638,-0.0957,-0.0958,-0.0958,-0.0958,-0.0958,-0.0958,-0.0958,-0.0958,-0.2341,-0.4676,-0.4676,-0.616,-0.8487,-0.8487,-0.8487,-0.8583,-0.9423,-1.1249,-1.3298,-1.3261,-1.4813,-1.6835,-1.6978,-1.663,-1.621,-1.6355,-1.6083,-1.5642,-1.5065,-1.4808,-1.4672,-1.4468,-1.4658,-1.5011,-1.5398,-1.5398,-1.5554,0.0,-1.6395,-1.6279,-1.687,-1.6992,-1.7053,-1.7256,-1.7419,-1.7582,-1.7758,-1.7948,-1.8158,-1.8423,-1.8375,-1.8355,-1.8443,-1.8233,-1.8077,-1.8077,-1.7935,-1.7846,-1.7846,-1.7826,-1.7812,-1.7812,-1.7812,-1.7758,-1.7629,-1.7473,-1.7331,-1.7195,-1.7053,-1.6978,-1.6978,-1.6978,-1.6971,-1.6951,-1.6951,-1.6863,-1.668,-1.6279,-1.6008,-1.5839,-1.5662,-1.5411,-1.5133,-1.5133,-1.4869,-1.4489,-1.4489,-1.4407,-1.4299,0.0,0.0,0.0,0.0,0.0,0.0,0.0,0.0,0.0,0.0,0.0,0.0,0.0,0.0,0.0,0.0,0.0,0.0717,0.2324,0.2397,0.2484,0.2488,0.2418,0.1698,0.0,0.0,0.0,0.0,0.0,0.0,0.0,0.0,0.0,0.0,0.0,-0.0633,-0.1783,-0.1783,-0.2411,-0.356,-0.356,-0.356,-0.3559,-0.3546,-0.5269,-0.8069,-1.1037,-1.2795,0.0,0.0,-1.6015,-1.6029,-1.6266,-1.6117,-1.5818,-1.5662,-1.5452,-1.5303,-1.5506,-1.5588,-1.5703,-1.6062,-1.485,-1.3689,-1.4306,-1.277,-1.1482,-1.1994,-1.2192,-1.2797,-1.4764,-1.3709,-1.3128,-1.5123,-1.3994,-1.3603,-1.5502,-1.5872,-1.6549,-1.8316,-1.8355,-1.8199,-1.8091,-1.8111,-1.8091,-1.8002,-1.8077,-1.8124,-1.8124,-1.8036,-1.7968,-1.7914,-1.7684,-1.748,-1.7324,-1.7175,-1.706,-1.6978,-1.6978,-1.6978,-1.6978,-1.6978,-1.6897,-1.6727,-1.6368,-1.613,-1.5974,-1.5825,-1.5635,-1.5438,-1.535,-1.5147,-1.4869,-1.4611,-1.4421,-1.4299,0.0,0.0,0.0,0.0,0.0,0.0,0.0,0.0,0.0,0.0,0.0,0.0,0.0,0.0,0.0247,0.091,0.0933,0.2113,0.4812,0.5074,0.5171,0.5194,0.5378,0.4464,0.2341,0.1597,0.1171,0.1171,0.0426,0.0,0.0,0.0,0.0,0.0,0.0,0.0,0.0,0.0,0.0,0.0,0.0,0.0,0.0,0.0,-0.1216,-0.3683,-0.8268,-1.033,0.0,0.0,-1.3836,-1.3887,-1.4213,-1.4111,-1.3822,-1.3881,-1.3671,-1.3497,-1.3813,-1.383,-1.3935,-1.4123,-1.2634,-1.1201,-1.1393,-0.9655,-0.839,-0.9645,-1.0049,-1.1015,-1.4368,-1.3174,-1.2441,-1.4788,-1.3342,-1.2664,-1.4947,-1.5304,-1.6052,-1.8161,-1.8335,-1.8213,-1.8111,-1.8233,-1.8287,-1.8213,-1.8321,-1.8375,-1.8375,-1.8199,-1.8091,-1.8091,-1.7806,-1.7575,-1.7419,-1.727,-1.7121,-1.6978,-1.6978,-1.6978,-1.6978,-1.6978,-1.6897,-1.6734,-1.6524,-1.632,-1.6137,-1.6029,-1.5866,-1.5683,-1.5533,-1.5357,-1.5133,-1.4726,-1.4482,-1.4353,0.0,0.0,0.0,0.0,0.0,0.0,0.0,0.0,0.0,0.0,0.0,0.0,0.0,0.0,0.0899,0.3134,0.3338,0.4383,0.688,0.7356,0.7648,0.7842,0.816,0.8382,0.8276,0.5523,0.404,0.404,0.1384,0.0,0.0,0.0,0.0,0.0,0.0,0.0,0.0,0.0,0.0,0.0,0.0,0.0,0.0,0.0,-0.0099,-0.0485,-0.3224,0.0,0.0,-0.8454,-0.8391,-0.8288,-0.8657,-0.8737,-0.8682,-0.8314,-0.8192,-0.8017,-0.7709,-0.7938,-0.8207,-0.8213,-0.8373,-0.8521,-0.8777,-0.8688,-0.9635,-1.2906,-1.3734,-1.4861,-1.8046,-1.8751,-1.8885,-1.8889,-1.8751,-1.8751,-1.8868,-1.8606,-1.8376,-1.8335,-1.8199,-1.8091,-1.8091,-1.8233,-1.8375,-1.8511,-1.8511,-1.8531,-1.8531,-1.8247,-1.8091,-1.8091,-1.7806,-1.7575,-1.7419,-1.727,-1.7121,-1.6978,-1.6978,-1.6978,-1.6978,-1.6978,-1.6897,-1.6748,-1.6741,-1.6571,-1.63,-1.63,-1.6117,-1.5832,-1.5689,-1.5445,-1.5147,-1.4841,-1.4638,-1.4482,0.0,0.0,0.0,0.0,0.0,0.0,0.0,0.0,0.0,0.0,0.0,0.0,0.0,0.0,0.0,0.0,0.5366,0.6564,0.9304,0.994,1.0253,1.0387,1.0844,1.0303,0.8409,0.751,0.616,0.4253,0.3298,0.1809,0.0,0.0,0.0,0.0,0.0,0.0,0.0,0.0,0.0,0.0,0.0,0.0,0.0,0.0,0.0,-0.0095,0.0,0.0,-0.5379,-0.7121,-0.7722,-0.777,-0.8051,-0.8054,-0.7899,-0.7736,-0.7794,-0.7803,-0.7921,-0.8055,-0.8304,-0.857,-0.721,-0.5797,-0.6008,-0.6001,-0.6343,-0.7577,-0.9284,-1.1669,-1.4869,-1.3719,-1.2961,-1.5392,-1.3936,-1.3382,-1.5547,-1.5897,-1.6397,-1.8014,-1.8301,-1.8267,-1.7968,-1.8165,-1.8423,-1.8674,-1.8776,-1.883,-1.883,-1.864,-1.8443,-1.8247,-1.8057,-1.7772,-1.7426,-1.7372,-1.7222,-1.6978,-1.6978,-1.6978,-1.6978,-1.6978,-1.6951,-1.6897,-1.6795,-1.6632,-1.6442,-1.6347,-1.6191,-1.5988,-1.5839,-1.5662,-1.5452,-1.5147,-1.4875,-1.4624,0.0,0.0,0.0,0.0,0.0,0.0,0.0,0.0,0.0,0.0,0.0,0.0,0.0,0.0,0.0,0.0,0.0,0.8719,1.1464,1.2122,1.2471,1.2662,1.317,1.2199,0.9605,0.8651,0.6854,0.4214,0.3188,0.1753,0.0,0.0,0.0,0.0,0.0,0.0,0.0,0.0,-0.0503,-0.1212,-0.0394,-0.049,-0.1183,-0.0288,0.0,0.0,0.0,0.0,-0.2562,-0.4177,-0.4841,-0.4956,-0.5057,-0.5002,-0.4839,-0.4923,-0.4974,-0.5055,-0.526,-0.5309,-0.5346,-0.5622,-0.4301,-0.3278,-0.4492,-0.4711,-0.5267,-0.7474,-0.9383,-1.1592,-1.4743,-1.3602,-1.2882,-1.5193,-1.3874,-1.3366,-1.5638,-1.5852,-1.6466,-1.8088,-1.8321,-1.8287,-1.8057,-1.8158,-1.8389,-1.8742,-1.8959,-1.904,-1.8993,-1.885,-1.862,-1.8335,-1.8179,-1.788,-1.7426,-1.7419,-1.727,-1.6978,-1.6978,-1.6978,-1.6978,-1.6978,-1.6978,-1.6978,-1.6876,-1.6714,-1.6517,-1.6422,-1.6266,-1.6069,-1.5913,-1.5764,-1.5601,-1.5296,-1.5031,-1.478,0.0,0.0,0.0,0.0,0.0,0.0,0.0,0.0,0.0,0.0,0.0,0.0,0.0,0.0,0.0,0.0,0.0,0.0,1.289,1.3297,1.366,1.4167,1.4493,1.3691,1.1637,0.8999,0.6479,0.4236,0.1543,0.0097,0.0,0.0,0.0,0.0,0.0,-0.0098,-0.0196,-0.0194,-0.1543,-0.3561,-0.1135,-0.1586,-0.332,-0.0905,0.0,0.0,0.0,0.0,0.0,0.0,0.0,0.0,0.0,0.0,0.0,0.0,0.0,0.0,0.0,0.0,0.0,0.0,0.0,-0.0844,-0.3969,-0.4781,-0.6618,-1.2299,-1.3748,-1.4776,-1.7327,-1.8057,-1.8267,-1.8287,-1.8335,-1.8511,-1.8959,-1.8654,-1.8443,-1.8552,-1.8321,-1.8199,-1.8335,-1.8213,-1.8321,-1.8742,-1.9027,-1.9128,-1.9006,-1.8871,-1.8654,-1.8355,-1.8179,-1.7894,-1.7446,-1.7419,-1.7263,-1.6978,-1.6978,-1.6978,-1.6978,-1.6978,-1.6978,-1.6978,-1.6978,-1.6809,-1.653,-1.653,-1.6361,-1.6076,-1.5934,-1.5784,-1.5615,-1.5316,-1.5113,-1.4936,0.0,0.0,0.0,0.0,0.0,0.0,0.0,0.0,0.0,0.0,0.0,0.0,0.0,0.0,0.0,0.0,0.0,0.0,0.8241,0.8716,0.9066,0.9224,0.9731,0.9794,0.9177,0.8596,0.6972,0.4199,0.3455,0.2059,0.0,0.0,0.0,0.0,0.0,-0.0943,-0.2559,-0.2534,-0.3861,-0.5707,-0.3428,-0.2863,-0.3169,0.0,0.0,0.0,0.0,0.0,0.0,0.0,0.0,0.0,0.0,0.0,0.0,0.0,0.0,0.0,0.0,0.0,0.0,0.0,0.0,-0.0241,-0.1077,-0.4737,-0.8413,-0.9707,-1.344,-1.6576,-1.6902,-1.7277,-1.7589,-1.7935,-1.8443,-1.8972,-1.9434,-1.9488,-1.9359,-1.9061,-1.8972,-1.885,-1.8674,-1.8708,-1.8816,-1.8918,-1.9006,-1.9081,-1.9149,-1.9115,-1.8959,-1.8654,-1.8389,-1.8091,-1.7758,-1.7419,-1.7161,-1.6978,-1.6978,-1.6978,-1.6978,-1.6978,-1.6978,-1.6978,-1.6978,-1.687,-1.6693,-1.6693,-1.6517,-1.6246,-1.6205,-1.6029,-1.5778,-1.5588,-1.5357,-1.5099,0.0,0.0,0.0,0.0,0.0,0.0,0.0,0.0,0.0,0.0,0.0,0.0,0.0,0.0,0.0,0.0,0.0,0.0,0.0,0.6758,0.6916,0.6989,0.7342,0.7057,0.6182,0.6246,0.4976,0.2362,0.2383,0.1509,0.0,0.0,0.0,0.0,0.0,-0.072,-0.1905,-0.1894,-0.3265,0.0,0.0,0.0,0.0,0.0,0.0,0.0,0.0,0.0,0.0,0.0,0.0,0.0,0.0,0.0,0.0,0.0,0.0,0.0,0.0,0.0,0.0,0.0,0.0,-0.0725,-0.3458,-0.6594,-0.9365,-1.0516,-1.3367,-1.5423,-1.4795,-1.5014,-1.5798,-1.7297,-1.8199,-1.8905,-1.9481,-1.9624,-1.9624,-1.9522,-1.9447,-1.9312,-1.9081,-1.9081,-1.9115,-1.9183,-1.9183,-1.9183,-1.9203,-1.9271,-1.9128,-1.8782,-1.8531,-1.8179,-1.767,-1.7351,-1.7121,-1.6978,-1.6978,-1.6978,-1.6978,-1.6978,-1.6978,-1.6978,-1.6978,-1.6897,-1.6748,-1.6748,-1.6578,-1.6307,-1.6307,-1.6123,-1.5839,-1.5689,-1.5486,-1.5255,0.0,0.0,0.0,0.0,0.0,0.0,0.0,0.0,0.0,0.0,0.0,0.0,0.0,0.0,0.0,0.0,0.0,0.0,0.0,0.0,0.4777,0.4882,0.4844,0.4176,0.2609,0.2557,0.1689,0.0,0.0,0.0,0.0,0.0,0.0,0.0,0.0,-0.017,-0.0431,-0.0431,-0.182,-0.3846,-0.1375,0.0,0.0,0.0,0.0,0.0,0.0,0.0,0.0,0.0,0.0,0.0,0.0,0.0,0.0,0.0,0.0,0.0,0.0,0.0,0.0,0.0,-0.0244,-0.1941,-0.7376,-0.8999,-1.0034,-1.2249,-1.291,-1.2765,-1.1718,-1.2292,-1.3813,-1.635,-1.7666,-1.864,-1.9413,-1.9522,-1.9624,-1.9922,-1.982,-1.9678,-1.9556,-1.9413,-1.9359,-1.9481,-1.9481,-1.9434,-1.9271,-1.9379,-1.9217,-1.8742,-1.8586,-1.8158,-1.746,-1.7297,-1.7161,-1.7039,-1.7019,-1.7012,-1.7012,-1.7012,-1.6998,-1.6978,-1.6978,-1.6904,-1.6781,-1.6781,-1.6605,-1.6341,-1.6341,-1.6151,-1.5866,-1.5723,-1.5581,-1.5432,0.0,0.0,0.0,0.0,0.0,0.0,0.0,0.0,0.0,0.0,-0.0587,0.0,0.0,0.0,0.0,0.0,0.0,0.0,0.0,0.0,0.0,-0.3656,-0.3683,-0.3103,-0.1829,-0.1833,-0.1224,0.0,0.0,0.0,0.0,0.0,0.0,0.0,0.0,-0.1048,-0.2791,-0.2791,-0.4067,-0.5999,-0.3709,-0.3049,0.0,0.0,0.0,0.0,0.0,0.0,0.0,0.0,0.0,0.0,0.0,0.0,0.0,0.0,0.0,0.0,0.0,0.0,0.0,0.0,-0.1846,-0.3994,-0.4852,-0.8848,-1.1679,-0.966,-1.104,-1.1744,-0.9086,-1.0843,-1.3127,-1.408,-1.6709,-1.8993,-1.9854,-1.9976,-2.0098,-2.0383,-2.0187,-2.0064,-2.0173,-2.0031,-1.9908,-1.98,-1.98,-1.9732,-1.959,-1.9481,-1.9169,-1.8586,-1.8423,-1.8111,-1.7616,-1.746,-1.7365,-1.7344,-1.7216,-1.7154,-1.7154,-1.7154,-1.7093,-1.6978,-1.6978,0.0,-1.6937,-1.6937,-1.6761,-1.6483,-1.6483,-1.63,-1.6022,-1.5872,-1.5798,-1.575,0.0,0.0,0.0,0.0,0.0,0.0,0.0,0.0,-0.1999,-0.2941,-0.3233,-0.365,-0.4407,0.0,0.0,0.0,0.0,0.0,0.0,0.0,0.0,0.0,-0.5769,-0.5342,-0.4409,-0.4437,-0.3472,-0.1513,0.0,-0.1011,0.0,0.0,0.0,0.0,0.0,-0.0634,-0.1611,-0.162,-0.2213,-0.308,-0.2096,-0.1608,0.0,0.0,0.0,0.0,0.0,0.0,0.0,0.0,0.0,0.0,0.0,0.0,0.0,0.0,0.0,-0.0375,-0.2129,-0.2647,-0.3033,-0.4869,-0.6253,-0.7436,-0.874,-1.0949,-1.2437,-1.0853,-1.0351,-0.9775,-0.8158,-0.814,-0.9539,-1.2798,-1.4901,-1.69,-1.9253,-1.9698,-1.9922,-2.0383,-2.0363,-2.0295,-2.0227,-2.0227,-2.0119,-1.9888,-1.9875,-1.98,-1.9664,-1.9434,-1.9081,-1.8552,-1.8389,-1.8111,-1.765,-1.7575,-1.75,-1.7419,-1.7344,-1.7311,-1.7311,-1.7311,-1.7229,-1.7087,-1.7087,-1.7046,-1.6978,-1.6978,-1.6849,-1.6632,-1.6551,-1.6388,-1.6171,-1.594,-1.5852,-1.5832,0.0,0.0,0.0,0.0,0.0,0.0,0.0,-0.1854,-0.3394,-0.3798,-0.5813,-0.7294,-0.7452,-0.6879,-0.6647,0.0,0.0,0.0,0.0,0.0,0.0,0.0,0.0,0.0,-0.6437,0.0,0.0,-0.3623,-0.3627,0.0,0.0,0.0,0.0,0.0,0.0,-0.0237,-0.0639,-0.0646,-0.098,0.0,0.0,-0.1441,0.0,0.0,0.0,0.0,0.0,0.0,0.0,0.0,0.0,0.0,0.0,-0.0479,-0.0971,-0.0987,-0.1498,-0.2641,-0.5416,-0.6211,-0.6858,-0.9523,-1.0405,-1.1077,-1.3059,-1.3585,-1.3407,-1.2678,-1.0236,-0.7992,-0.7178,-0.5581,-0.592,-1.0492,-1.2566,-1.4703,-1.7848,-1.8973,-1.9657,-2.0261,-2.0451,-2.0451,-2.0227,-2.0309,-2.0261,-1.9997,-1.9908,-1.98,-1.9664,-1.9359,-1.9027,-1.864,-1.8423,-1.8124,-1.7751,-1.7684,-1.7602,-1.7514,-1.7487,-1.7467,-1.7467,-1.7439,-1.7338,-1.7188,-1.7161,-1.708,-1.6978,-1.6978,-1.689,-1.6734,-1.6619,-1.6483,-1.632,-1.6049,-1.5954,-1.5934,0.0,0.0,0.0,0.0,0.0,0.0,0.0,-0.2054,-0.4265,-0.6097,-0.8216,-1.0134,-1.1854,-1.0188,-0.9445,0.0,0.0,0.0,0.0,0.0,0.0,0.0,0.0,0.0,0.0,0.0,0.0,-0.5954,-0.5959,0.0,0.0,0.0,0.0,0.0,0.0,-0.1026,-0.279,-0.2793,0.0,0.0,0.0,0.0,0.0,0.0,0.0,0.0,0.0,0.0,0.0,0.0,0.0,0.0,0.0,-0.1843,-0.4136,-0.4326,-0.6489,-0.8855,-0.9487,-0.9698,-0.9858,-1.0159,-1.196,-1.3709,-1.3613,-1.5191,-1.5863,-1.3064,-1.0084,-0.7242,-0.4825,-0.426,-0.4547,-0.5452,-1.0064,-1.3827,-1.5222,-1.7757,-1.9657,-2.0261,-2.0451,-2.0526,-2.0505,-2.0505,-2.0451,-2.0295,-2.0031,-1.98,-1.9664,-1.9359,-1.9128,-1.8952,-1.8531,-1.8233,-1.8057,-1.7792,-1.7704,-1.7826,-1.7684,-1.7629,-1.7623,-1.7487,-1.7338,-1.7182,-1.706,-1.6992,0.0,-1.6978,-1.689,-1.6748,-1.6734,-1.6632,-1.6483,-1.6327,-1.6266,-1.6246,0.0,0.0,0.0,0.0,0.0,0.0,0.0,-0.3696,-0.6018,-0.813,-1.0398,-1.2058,-1.2788,-1.1914,-1.1454,0.0,0.0,0.0,0.0,0.0,0.0,0.0,0.0,0.0,0.0,0.0,-1.0044,-0.8162,-0.8202,0.0,0.0,0.0,0.0,0.0,0.0,-0.4457,-0.5228,-0.5147,0.0,0.0,0.0,0.0,0.0,0.0,0.0,0.0,0.0,0.0,-0.4054,-0.2649,-0.2142,-0.1902,-0.0409,-0.2114,-0.452,-0.4784,-0.5786,-0.7757,-1.2045,-1.3231,-1.3838,-1.5776,-1.6738,-1.6956,-1.664,-1.6653,-1.6463,-1.5218,-1.1189,-0.7637,-0.6634,-0.3838,-0.2249,-0.419,-0.772,-1.1042,-1.3685,-1.6407,-1.862,-1.9657,-1.9922,-2.0119,-2.0383,-2.0485,-2.0438,-2.0207,-1.9908,-1.9712,-1.9664,-1.9447,-1.9183,-1.8871,-1.8586,-1.8335,-1.8091,-1.788,-1.7812,-1.786,-1.7812,-1.7772,-1.7772,-1.7724,-1.7555,-1.7324,-1.727,-1.7148,0.0,-1.6978,-1.6944,-1.6876,-1.6788,-1.6714,-1.6639,-1.649,-1.6381,-1.63,0.0,0.0,0.0,0.0,0.0,-0.1318,-0.2676,-0.5356,-0.7821,-0.9462,-1.167,-1.3091,-1.3091,-1.2956,-1.2698,-1.2291,0.0,0.0,0.0,0.0,0.0,0.0,0.0,0.0,0.0,0.0,-1.1785,-1.0426,-1.0426,-0.9435,0.0,0.0,-0.7115,-0.6553,0.0,0.0,0.0,0.0,0.0,0.0,0.0,0.0,0.0,0.0,0.0,0.0,0.0,0.0,0.0,0.0,0.0,-0.4479,-0.2816,-0.3683,-0.5521,-0.6057,-0.7021,-0.9157,-1.4934,-1.6647,-1.7396,-1.9766,-1.9678,-1.8918,-1.8654,-1.7629,-1.6707,-1.6551,-1.1928,-0.7971,-0.7971,-0.3641,-0.0918,-0.373,-0.6454,-0.9407,-1.2901,-1.5821,-1.7948,-1.904,-1.9305,-1.959,-2.0085,-2.0349,-2.0363,-2.0119,-1.9875,-1.9712,-1.9664,-1.9556,-1.9305,-1.8905,-1.862,-1.8375,-1.8158,-1.7968,-1.786,-1.786,-1.786,-1.786,-1.786,-1.7826,-1.767,-1.7419,-1.7372,-1.7209,0.0,-1.6978,-1.6978,-1.6971,-1.6863,-1.6815,-1.6802,-1.6646,-1.6497,-1.6368,0.0,0.0,0.0,0.0,0.0,0.0,0.0,-0.6692,-0.9651,-0.9744,-1.1882,-1.3397,-1.3397,-1.3261,-1.3051,-1.2752,0.0,0.0,0.0,0.0,0.0,0.0,0.0,0.0,0.0,0.0,-1.28,-1.2956,-1.2956,-1.1894,-0.9783,-0.9783,-0.8652,-0.6718,0.0,0.0,0.0,0.0,0.0,0.0,0.0,0.0,0.0,0.0,0.0,0.0,0.0,0.0,0.0,0.0,0.0,0.0,0.0,-0.7626,-0.7914,-0.8918,-1.1701,-1.516,-1.8429,-1.9745,-2.0237,-2.0505,-1.9766,-1.8952,-1.8796,-1.7717,-1.6707,-1.6551,-1.1987,-0.8049,-0.8049,-0.3574,-0.0927,-0.3766,-0.6651,-0.9643,-1.2921,-1.5979,-1.8023,-1.8477,-1.8674,-1.9006,-1.961,-2.0064,-2.0261,-2.0119,-1.9963,-1.98,-1.9664,-1.9664,-1.9522,-1.9203,-1.862,-1.8321,-1.8321,-1.8023,-1.786,-1.786,-1.786,-1.786,-1.786,-1.7717,-1.7568,-1.7412,-1.7263,-1.7114,0.0,-1.6978,-1.6978,-1.6978,-1.6978,-1.6978,-1.6958,-1.6802,-1.6653,-1.6497,0.0,0.0,0.0,0.0,0.0,0.0,0.0,-0.8295,-0.9988,-1.174,-1.266,-1.3214,-1.3526,-1.3329,-1.3132,-1.3037,0.0,0.0,0.0,0.0,0.0,0.0,0.0,0.0,0.0,0.0,-1.3057,-1.3105,-1.3105,-1.2774,-1.2112,-1.2112,-1.1788,-1.1132,-1.1224,-1.1729,0.0,0.0,0.0,0.0,0.0,0.0,-1.421,0.0,0.0,0.0,0.0,0.0,0.0,0.0,0.0,0.0,0.0,0.0,0.0,-1.0591,-1.2418,-1.4407,-1.7605,-1.8796,-1.9094,-1.904,-1.8552,-1.8057,-1.8023,-1.727,-1.6578,-1.653,-1.3525,-1.0895,-1.0895,-0.8089,-0.6107,-0.7168,-0.7928,-0.8771,-1.0028,-1.2768,-1.4941,-1.5693,-1.823,-2.0051,-2.0241,-2.0295,-2.0261,-2.0119,-1.9963,-1.98,-1.9664,-1.9468,-1.9305,-1.9203,-1.883,-1.8531,-1.8321,-1.8023,-1.786,-1.786,-1.786,-1.786,-1.786,-1.7812,-1.765,-1.7419,-1.7372,-1.7209,-1.6978,-1.6978,-1.6978,-1.6978,-1.6978,-1.6978,-1.6965,-1.6809,-1.6653,-1.6503,0.0,0.0,0.0,0.0,0.0,0.0,0.0,-0.9849,-1.1075,-1.2815,-1.301,-1.3166,-1.3505,-1.337,-1.3234,-1.318,0.0,0.0,0.0,0.0,0.0,0.0,0.0,0.0,0.0,-1.3214,-1.3288,-1.3342,-1.3397,-1.3424,-1.3424,-1.3485,-1.3478,-1.3431,-1.3526,-1.362,0.0,0.0,0.0,0.0,0.0,0.0,-1.4299,0.0,0.0,0.0,0.0,0.0,0.0,0.0,0.0,0.0,0.0,0.0,0.0,0.0,-1.4088,-1.4981,-1.7338,-1.8179,-1.8464,-1.8477,-1.8111,-1.7717,-1.7663,-1.7066,-1.6524,-1.6524,-1.4284,-1.2293,-1.2339,-1.0206,-0.8417,-0.8569,-0.8462,-0.8753,-1.0171,-1.205,-1.4012,-1.578,-1.8485,-2.0187,-2.0132,-2.0187,-2.0173,-2.0031,-1.9875,-1.9752,-1.9664,-1.9434,-1.9257,-1.9203,-1.8816,-1.8511,-1.8321,-1.8023,-1.786,-1.786,-1.786,-1.786,-1.786,-1.786,-1.7704,-1.7419,-1.7419,-1.7256,0.0,-1.6978,-1.6978,-1.6978,-1.6978,-1.6978,-1.6965,-1.6809,-1.6653,-1.6503,0.0,0.0,0.0,0.0,0.0,0.0,0.0,0.0,0.0,-1.2935,-1.3091,-1.3227,-1.3383,-1.3403,-1.3342,0.0,0.0,0.0,0.0,0.0,0.0,0.0,0.0,0.0,0.0,-1.341,-1.3485,-1.3627,-1.377,-1.3838,-1.3759,-1.4,-1.3987,-1.3844,-1.3779,-1.3871,0.0,0.0,0.0,0.0,-1.4245,-1.4299,0.0,0.0,0.0,0.0,0.0,0.0,0.0,0.0,0.0,0.0,0.0,0.0,0.0,0.0,0.0,0.0,0.0,-1.786,-1.8233,-1.8498,-1.8165,-1.7724,-1.7582,-1.7012,0.0,-1.6517,-1.4452,-1.2631,-1.2745,-1.0708,-0.8947,-0.9097,-0.8782,-0.9592,-1.2616,-1.3222,-1.4786,-1.8194,-1.9257,-1.9644,-1.9481,-1.9854,-2.0031,-1.9888,-1.9752,-1.9664,-1.9644,-1.9501,-1.9345,-1.9183,-1.862,-1.8321,-1.8321,-1.8023,-1.786,-1.786,-1.786,-1.786,-1.786,-1.7846,-1.7684,0.0,-1.7405,-1.7243,-1.6978,-1.6978,-1.6978,-1.6978,-1.6978,-1.6978,-1.6965,-1.6809,-1.6653,-1.6503,0.0,0.0,0.0,0.0,0.0,0.0,0.0,0.0,0.0,0.0,-1.3152,-1.3227,-1.3383,-1.3403,-1.339,0.0,0.0,0.0,0.0,0.0,0.0,0.0,0.0,0.0,0.0,-1.3512,-1.3593,-1.3627,-1.377,-1.3838,-1.3759,-1.4,-1.3987,-1.3851,-1.4089,-1.419,0.0,0.0,0.0,0.0,-1.4285,-1.4299,0.0,0.0,0.0,0.0,-1.4808,-1.5011,0.0,0.0,0.0,0.0,0.0,0.0,0.0,0.0,-1.611,-1.6205,-1.6537,0.0,-1.6768,-1.672,-1.6693,-1.6666,0.0,-1.649,-1.6388,-1.6497,-1.6006,-1.5532,-1.5672,-1.5148,-1.4764,-1.4931,-1.3027,-1.1839,-1.2631,-1.3616,-1.5558,-1.896,-1.9854,-2.0064,-1.98,-1.9976,-2.0031,-1.9888,-1.9841,-1.9732,-1.9501,-1.9345,-1.9183,-1.904,-1.8565,-1.8321,-1.8321,-1.8023,-1.786,-1.786,-1.786,-1.786,-1.786,-1.7758,-1.7595,-1.7412,-1.7297,-1.7148,-1.6978,-1.6978,-1.6978,-1.6978,-1.6978,-1.6978,-1.6965,-1.6809,-1.6653,-1.6503,0.0,0.0,0.0,0.0,0.0,0.0,0.0,0.0,0.0,0.0,0.0,0.0,0.0,0.0,0.0,0.0,0.0,0.0,0.0,0.0,0.0,0.0,0.0,-1.3403,-1.3403,-1.3485,-1.3593,-1.3729,-1.3871,-1.4014,-1.415,-1.4238,-1.4231,-1.4156,-1.4251,-1.4299,0.0,0.0,0.0,0.0,-1.4299,0.0,0.0,0.0,0.0,0.0,-1.4862,-1.5106,0.0,-1.5445,-1.5696,-1.5947,0.0,0.0,0.0,0.0,-1.6137,-1.6117,-1.6266,-1.6354,-1.6402,-1.6388,-1.6449,-1.649,-1.6422,-1.6354,-1.6334,-1.6408,-1.6476,-1.6544,-1.6632,-1.67,-1.6353,-1.5173,-1.3587,-1.2762,-1.3238,-1.518,-1.7346,-1.9549,-2.0031,-2.0153,-1.9997,-2.0051,-2.001,-1.9786,-1.9766,-1.9712,-1.9535,-1.9325,-1.9169,-1.9094,-1.8654,-1.8389,-1.8321,-1.8023,-1.786,-1.786,-1.786,-1.786,-1.786,-1.7772,-1.7629,-1.7412,-1.7331,-1.7175,-1.6978,-1.6978,-1.6978,-1.6978,-1.6978,-1.6978,-1.6951,-1.6727,-1.6592,-1.649,0.0,0.0,0.0,0.0,0.0,0.0,0.0,0.0,0.0,0.0,0.0,0.0,0.0,0.0,0.0,0.0,0.0,0.0,0.0,0.0,0.0,0.0,0.0,-1.341,-1.3437,-1.3458,-1.36,-1.3878,-1.4102,-1.434,-1.4584,-1.4631,-1.4611,-1.4543,-1.4421,-1.434,0.0,0.0,0.0,0.0,-1.4299,0.0,0.0,0.0,0.0,0.0,0.0,0.0,0.0,-1.5737,-1.6022,-1.6273,-1.6246,0.0,0.0,0.0,0.0,0.0,-1.6273,-1.6429,-1.6571,-1.6632,-1.6666,-1.6639,-1.649,-1.6361,-1.6279,-1.6307,-1.6422,-1.653,-1.6551,-1.668,-1.5944,-1.3527,-1.3337,-1.3798,-1.4759,-1.7164,-1.9115,-1.9786,-2.0031,-2.0098,-2.0051,-2.0051,-1.9942,-1.9644,-1.9644,-1.9624,-1.9556,-1.9325,-1.9183,-1.9128,-1.8728,-1.8443,-1.8321,-1.8036,-1.788,-1.786,-1.786,-1.786,-1.786,-1.7846,-1.7684,-1.7419,0.0,0.0,-1.6978,-1.6978,-1.6978,-1.6978,-1.6978,-1.6978,-1.6951,-1.6686,-1.6578,-1.6517,0.0,0.0,0.0,0.0,0.0,0.0,0.0,0.0,0.0,0.0,0.0,0.0,0.0,0.0,0.0,0.0,0.0,0.0,0.0,0.0,0.0,-1.3403,-1.3403,-1.3464,-1.3593,-1.3709,-1.3858,-1.4034,-1.457,-1.4855,-1.4903,-1.5153,-1.5072,-1.4706,-1.4679,-1.4536,-1.4299,0.0,0.0,-1.4299,-1.4299,0.0,0.0,0.0,0.0,0.0,0.0,0.0,0.0,-1.5655,-1.5872,-1.6096,-1.5961,0.0,0.0,0.0,0.0,0.0,-1.63,-1.651,-1.6625,-1.6273,-1.6279,-1.6341,-1.6185,-1.613,-1.6151,-1.6286,-1.6422,-1.6564,-1.6686,-1.6842,-1.6839,-1.6413,-1.6635,-1.7229,-1.8215,-1.8972,-1.9468,-1.9834,-2.0119,-2.0153,-1.9766,-1.9841,-1.9786,-1.9481,-1.959,-1.9501,-1.9115,-1.9169,-1.9081,-1.883,-1.8511,-1.8335,-1.8321,-1.8145,-1.7989,-1.786,-1.786,-1.786,-1.786,-1.7738,-1.7589,-1.7412,0.0,-1.7134,-1.6978,-1.6978,-1.6978,-1.6978,-1.6978,-1.6978,-1.6978,-1.6931,-1.6829,-1.6673,0.0,0.0,0.0,0.0,0.0,0.0,0.0,0.0,0.0,0.0,0.0,0.0,0.0,0.0,0.0,0.0,0.0,0.0,0.0,0.0,-1.1587,-1.1741,-1.2843,-1.3559,-1.3627,-1.377,-1.4034,-1.4434,-1.4794,-1.5133,-1.5445,-1.5337,-1.5045,-1.4611,-1.4536,-1.4428,-1.4299,-1.4299,-1.4299,-1.4306,0.0,0.0,0.0,0.0,0.0,0.0,0.0,0.0,0.0,0.0,-1.6076,-1.6293,-1.6144,0.0,0.0,0.0,0.0,0.0,-1.6286,-1.6463,-1.6598,-1.6476,-1.6558,-1.6632,-1.6476,-1.6381,-1.6341,-1.6408,-1.6544,-1.6639,-1.6625,-1.7019,-1.7473,-1.788,-1.8179,-1.8599,-1.9237,-1.9379,-1.9535,-1.9841,-1.9997,-1.9997,-1.98,-1.9841,-1.9786,-1.9569,-1.9624,-1.9535,-1.9237,-1.9217,-1.9094,-1.8884,-1.8586,-1.8389,-1.8321,-1.8165,-1.8023,-1.786,-1.786,-1.786,-1.786,-1.7792,-1.7629,-1.7419,0.0,-1.7188,-1.6978,-1.6978,-1.6978,-1.6978,-1.6978,-1.6978,-1.6971,-1.689,-1.6761,-1.6605,0.0,0.0,0.0,0.0,0.0,0.0,0.0,0.0,0.0,0.0,0.0,0.0,0.0,0.0,0.0,0.0,0.0,0.0,0.0,0.0,-1.0126,-1.0297,-1.2464,-1.3695,-1.3729,-1.3905,-1.4258,-1.4794,-1.5086,-1.5499,-1.6001,-1.5588,-1.5133,-1.4658,-1.4482,-1.4367,-1.4299,-1.4299,-1.4319,-1.436,0.0,0.0,0.0,0.0,0.0,0.0,0.0,0.0,0.0,0.0,0.0,0.0,0.0,0.0,0.0,-1.6259,-1.6185,-1.6212,-1.6327,-1.6463,-1.6592,-1.6673,-1.6788,-1.687,-1.6856,-1.668,-1.6551,-1.6659,-1.6748,-1.6768,-1.6653,-1.7216,-1.7935,-1.864,-1.8959,-1.9203,-1.9535,-1.959,-1.9678,-1.9908,-1.9929,-1.9908,-1.9875,-1.9841,-1.9752,-1.9576,-1.9556,-1.9468,-1.9291,-1.9203,-1.9061,-1.8884,-1.862,-1.8409,-1.8267,-1.8111,-1.7989,-1.786,-1.786,-1.786,-1.786,-1.7826,-1.767,-1.7419,-1.7385,-1.7222,-1.6978,-1.6978,-1.6978,-1.6978,-1.6978,-1.6978,-1.6965,-1.6849,-1.6707,-1.6571,0.0,0.0,0.0,0.0,0.0,0.0,0.0,0.0,0.0,0.0,0.0,0.0,0.0,0.0,0.0,0.0,0.0,0.0,0.0,0.0,-1.0292,-1.0302,-1.2545,-1.3892,-1.4034,-1.4319,-1.4624,-1.4957,-1.5655,-1.6164,-1.6469,-1.6157,-1.5703,-1.512,-1.4835,-1.4557,-1.4299,-1.4299,-1.4373,-1.4496,-1.4509,0.0,0.0,0.0,0.0,0.0,0.0,0.0,0.0,0.0,0.0,0.0,0.0,0.0,-1.67,-1.6537,-1.649,-1.649,-1.6503,-1.6619,-1.67,-1.6571,-1.6544,-1.6659,-1.7066,-1.6829,-1.6639,-1.706,-1.7046,-1.6965,-1.6951,-1.7439,-1.8057,-1.8654,-1.9115,-1.9556,-1.9997,-2.0051,-2.0064,-2.0085,-2.0085,-2.0031,-1.9888,-1.9752,-1.9556,-1.9257,-1.9237,-1.9115,-1.883,-1.8938,-1.8864,-1.8565,-1.8409,-1.8267,-1.8111,-1.7948,-1.788,-1.786,-1.786,-1.786,-1.786,-1.7717,-1.7575,-1.7412,-1.727,-1.7121,-1.6978,-1.6978,-1.6978,-1.6978,-1.6978,-1.6978,-1.6978,-1.6971,-1.6863,-1.6734,0.0,0.0,0.0,0.0,0.0,0.0,0.0,0.0,0.0,0.0,0.0,0.0,0.0,0.0,0.0,0.0,0.0,0.0,0.0,-0.4715,-0.6023,-0.6105,-0.975,-1.1819,-1.1865,-1.3816,-1.5079,-1.5662,-1.632,-1.6456,-1.6103,-1.59,-1.5432,-1.476,-1.4557,-1.4455,-1.4434,-1.4434,-1.4516,-1.4665,-1.476,-1.4869,0.0,0.0,0.0,0.0,0.0,0.0,0.0,0.0,-1.6252,-1.6341,-1.6273,-1.6476,-1.67,-1.6463,-1.6388,-1.6408,-1.6497,-1.6564,-1.6639,-1.6775,-1.6734,-1.6754,-1.7114,-1.7209,-1.727,-1.7439,-1.7507,-1.7528,-1.7528,-1.7792,-1.8233,-1.8918,-1.9345,-1.9698,-2.0051,-2.0098,-2.0064,-1.9976,-1.9963,-1.9908,-1.9752,-1.961,-1.9468,-1.9359,-1.9257,-1.9081,-1.8782,-1.8816,-1.8708,-1.8409,-1.8247,-1.8145,-1.8091,-1.7935,-1.786,-1.786,-1.786,-1.7812,-1.7717,-1.767,-1.7514,-1.7277,-1.7216,-1.7114,-1.6978,-1.6978,-1.6978,-1.6978,-1.6978,-1.6978,-1.6978,-1.6978,-1.6944,-1.6897,0.0,0.0,0.0,0.0,0.0,0.0,0.0,0.0,0.0,0.0,0.0,0.0,0.0,0.0,0.0,0.0,0.0,0.0,0.0,-0.2779,-0.4159,-0.3619,-0.8031,-1.0549,-1.0734,-1.2901,-1.464,-1.5872,-1.6619,-1.6619,-1.592,-1.573,-1.5337,-1.478,-1.4496,-1.4475,-1.4652,-1.4604,-1.4672,-1.4821,-1.493,-1.4997,0.0,0.0,0.0,0.0,0.0,0.0,0.0,0.0,-1.6252,-1.6374,-1.6313,-1.6469,-1.6646,-1.6497,-1.6415,-1.6388,-1.6442,-1.6456,-1.6503,-1.6714,-1.6795,-1.691,-1.7256,-1.75,-1.7704,-1.7783,-1.7894,-1.7826,-1.7738,-1.7935,-1.8287,-1.8884,-1.9359,-1.9752,-1.9997,-2.0031,-1.9976,-1.982,-1.98,-1.9766,-1.9678,-1.9481,-1.9359,-1.9359,-1.9128,-1.8905,-1.8708,-1.8694,-1.9004,-1.9592,-1.9519,-1.9849,-2.0568,-2.056,-2.0045,-1.9024,-1.9024,-1.8551,-1.765,-1.7602,-1.7439,-1.7188,-1.7148,-1.7073,-1.6978,-1.6978,-1.6951,-1.691,-1.6965,-1.6951,-1.691,-1.6965,-1.6978,-1.6978,0.0,0.0,0.0,0.0,0.0,0.0,0.0,0.0,0.0,0.0,0.0,0.0,0.0,0.0,0.0,0.0,0.0,0.0,0.0,-0.432,-0.5957,-0.375,-0.8081,-1.0708,-1.1141,-1.1578,-1.2962,-1.5418,-1.6463,-1.6666,-1.6062,-1.5771,-1.5554,-1.5377,-1.478,-1.4685,-1.4957,-1.4808,-1.4828,-1.497,-1.4977,-1.5059,-1.5201,0.0,0.0,0.0,0.0,0.0,0.0,0.0,-1.6205,-1.6157,-1.6605,-1.6646,-1.6551,-1.6707,-1.6639,-1.649,-1.6347,-1.6307,-1.6307,-1.6313,-1.6653,-1.71,-1.7548,-1.765,-1.7826,-1.8409,-1.8179,-1.7772,-1.748,-1.7792,-1.8179,-1.8477,-1.9169,-1.9698,-1.9854,-1.9875,-1.982,-1.9678,-1.9664,-1.9664,-1.9786,-1.9379,-1.9203,-1.9322,-1.8899,-1.8531,-1.8531,-1.8531,-1.9731,-2.2387,-2.2539,-2.3806,-2.6099,-2.6089,-2.4594,-2.1546,-2.1546,-2.0161,-1.7629,-1.7487,-1.7331,-1.7182,-1.7039,-1.6978,-1.6978,-1.6978,-1.689,-1.6768,-1.6917,-1.689,-1.6768,-1.6924,-1.6978,-1.6978,0.0,0.0,0.0,0.0,0.0,0.0,0.0,0.0,0.0,0.0,0.0,0.0,0.0,0.0,0.0,0.0,0.0,0.0,-0.2352,-0.513,-0.6505,-0.5793,-0.877,-1.0508,-1.0611,-1.2758,-1.4536,-1.5879,-1.6307,-1.6096,-1.5303,-1.5425,-1.5228,-1.478,-1.4814,-1.4828,-1.4814,-1.4875,-1.493,-1.4991,-1.5194,-1.5303,0.0,0.0,0.0,0.0,0.0,0.0,0.0,0.0,0.0,0.0,-1.6395,-1.6551,-1.6666,-1.6605,-1.6558,-1.649,-1.6347,-1.6232,-1.6225,-1.6537,-1.6876,-1.7249,-1.7704,-1.788,-1.807,-1.8457,-1.8335,-1.8091,-1.7792,-1.7846,-1.8023,-1.8335,-1.8742,-1.9149,-1.9522,-1.9657,-1.9712,-1.9664,-1.9664,-2.063,-2.2756,-2.2695,-2.3239,-2.5301,-2.5086,-2.4591,-2.4328,-2.43,-2.4624,-2.5218,-2.5275,-2.5585,-2.6099,-2.6089,-2.5553,-2.4394,-2.4394,-2.1929,-1.7324,-1.7283,-1.7182,-1.7039,-1.6998,-1.6978,-1.6978,-1.6978,-1.6951,-1.6917,-1.6965,-1.6951,-1.6917,-1.6965,-1.6978,-1.6978,0.0,0.0,0.0,0.0,0.0,0.0,0.0,0.0,0.0,0.0,0.0,0.0,0.0,0.0,0.0,0.0,0.0,0.0,0.0,-0.6784,-0.7657,-0.6809,-0.9076,-1.0482,-1.0657,-1.3391,-1.5065,-1.5547,-1.4883,-1.4267,-1.3487,-1.2712,-1.2784,-1.3389,-1.3569,-1.4184,-1.5106,-1.5194,-1.5167,-1.5079,-1.5377,-1.5499,-1.5499,0.0,0.0,0.0,0.0,0.0,0.0,0.0,0.0,0.0,-1.6293,-1.6429,-1.6571,-1.653,-1.6483,-1.6429,-1.6402,-1.6286,-1.6293,-1.6802,-1.7148,-1.7507,-1.8023,-1.8253,-1.843,-1.8674,-1.8552,-1.8335,-1.8091,-1.7989,-1.8057,-1.8355,-1.8606,-1.8918,-1.9359,-1.9522,-2.0074,-2.1449,-2.1578,-2.2877,-2.5985,-2.5971,-2.6332,-2.7967,-2.7589,-2.7136,-2.6783,-2.6954,-2.6842,-2.6539,-2.661,-2.6468,-2.6064,-2.7039,-2.6881,-2.5505,-2.6546,-2.4705,-2.0329,-1.925,-1.8157,-1.6978,-1.6978,-1.6978,-1.6978,-1.6978,-1.6944,-1.6897,-1.6958,-1.6944,-1.6897,-1.6958,-1.6978,-1.6978,0.0,0.0,0.0,0.0,0.0,0.0,0.0,0.0,0.0,0.0,0.0,0.0,0.0,0.0,0.0,0.0,0.0,0.0,0.0,0.0,-0.9519,-0.758,-0.9564,-1.0896,-1.1517,-1.3774,-1.4862,-1.4719,-1.2902,-1.1741,-1.1135,-0.8809,-0.9124,-1.1367,-1.1578,-1.2884,-1.5202,-1.5375,-1.5391,-1.5153,-1.5486,-1.5615,-1.5622,-1.5635,0.0,0.0,0.0,0.0,0.0,0.0,0.0,0.0,-1.6259,-1.6307,-1.6334,-1.6463,-1.6422,-1.6354,-1.6483,-1.6449,-1.651,-1.7107,-1.75,-1.7894,-1.8464,-1.8674,-1.8796,-1.8918,-1.8742,-1.8531,-1.8389,-1.8233,-1.8233,-1.8511,-1.8674,-1.8938,-1.9345,-1.9434,-2.0692,-2.4048,-2.4425,-2.5728,-2.9307,-2.9252,-2.8872,-2.8989,-2.8365,-2.7866,-2.7638,-2.7595,-2.7283,-2.6863,-2.6918,-2.6606,-2.5862,-2.8261,-2.813,-2.5625,-2.8088,-2.7986,-2.5522,-2.2621,-1.9699,-1.6978,-1.6978,-1.6978,-1.6978,-1.6978,-1.6897,-1.6788,-1.6924,-1.6897,-1.6788,-1.6931,-1.6978,-1.6978,0.0,0.0,0.0,0.0,0.0,0.0,0.0,0.0,0.0,0.0,0.0,0.0,0.0,0.0,0.0,0.0,0.0,0.0,0.0,0.0,-1.2699,-1.2313,-1.3059,-1.3604,-1.3945,-1.436,-1.4597,-1.4563,-1.25,-1.1279,-1.075,-0.8629,-0.7914,-0.8476,-1.0523,-1.164,-1.2015,-1.3995,-1.4828,-1.4699,-1.5242,-1.5459,-1.5472,-1.5594,-1.5615,0.0,0.0,0.0,0.0,0.0,0.0,0.0,-1.6259,-1.6307,-1.6313,-1.6347,-1.6415,-1.6483,-1.651,-1.6673,-1.6978,-1.7575,-1.8124,-1.862,-1.8972,-1.8905,-1.8742,-1.8654,-1.8762,-1.885,-1.8694,-1.8552,-1.8498,-1.8694,-1.885,-1.9006,-1.9217,-1.9468,-2.0822,-2.4073,-2.4425,-2.6685,-3.2372,-3.2399,-3.3042,-3.5195,-3.4659,-3.4051,-3.3665,-3.1427,-3.0094,-2.9979,-2.7685,-2.6282,-2.5862,-2.6275,-2.7193,-2.8393,-2.9014,-2.9014,-2.8291,-2.3409,-1.9597,-1.6978,-1.6978,-1.6978,-1.6978,-1.6978,-1.6958,-1.6937,-1.6971,-1.6958,-1.6937,-1.6971,-1.6978,-1.6978,0.0,0.0,0.0,0.0,0.0,0.0,0.0,0.0,0.0,0.0,0.0,0.0,0.0,0.0,0.0,0.0,0.0,0.0,0.0,0.0,-1.3797,-1.3946,-1.4177,-1.4373,-1.4523,-1.4448,-1.4414,-1.4414,-1.2193,-1.1063,-1.0881,-0.8582,-0.8266,-0.97,-1.0963,-1.2031,-1.3081,-1.4361,-1.4869,-1.4774,-1.5228,-1.5452,-1.5527,-1.5608,-1.5594,-1.552,-1.5438,0.0,0.0,0.0,0.0,0.0,0.0,0.0,-1.6123,-1.6266,-1.6361,-1.6449,-1.6592,-1.6849,-1.7256,-1.8002,-1.8586,-1.8993,-1.9081,-1.8972,-1.8816,-1.8586,-1.8728,-1.885,-1.8782,-1.864,-1.8586,-1.8742,-1.8762,-1.885,-1.9061,-1.9291,-2.1242,-2.6062,-2.662,-2.9178,-3.5612,-3.5683,-3.5964,-3.7296,-3.658,-3.5939,-3.5645,-3.2751,-3.0381,-2.8732,-2.5818,-2.3481,-2.1729,-2.2893,-2.4086,-2.542,-2.8088,-2.9319,-2.9116,-2.3568,-2.0279,-1.8835,-1.7601,-1.6978,-1.6978,-1.6978,-1.6937,-1.687,-1.687,-1.687,-1.687,-1.687,-1.6917,-1.6978,0.0,0.0,0.0,0.0,0.0,0.0,0.0,0.0,0.0,0.0,0.0,0.0,0.0,0.0,0.0,0.0,0.0,0.0,0.0,0.0,0.0,-1.4143,-1.4272,-1.4346,-1.4373,-1.4346,-1.434,-1.434,-1.2337,-1.1495,-1.1879,-0.8872,-0.8845,-1.1358,-1.151,-1.2632,-1.451,-1.4886,-1.4964,-1.4882,-1.5174,-1.5384,-1.5527,-1.5554,-1.5499,-1.5404,-1.5377,-1.5472,-1.5601,-1.5601,0.0,0.0,0.0,0.0,-1.59,-1.6157,-1.6266,-1.6361,-1.6605,-1.6985,-1.7514,-1.8355,-1.8864,-1.9128,-1.9027,-1.8952,-1.883,-1.8586,-1.8654,-1.8762,-1.8762,-1.8654,-1.862,-1.8782,-1.8708,-1.8728,-1.8952,-1.9169,-2.1554,-2.7404,-2.8336,-3.0859,-3.7296,-3.7342,-3.7137,-3.7489,-3.658,-3.5965,-3.5712,-3.2825,-2.9608,-2.6408,-2.3563,-2.0519,-1.7195,-1.933,-2.0592,-2.1207,-2.6649,-2.9319,-2.9116,-2.4559,-2.2001,-2.0999,-1.8604,-1.737,-1.6978,-1.6978,-1.6904,-1.6788,-1.6788,-1.6788,-1.6788,-1.6788,-1.687,-1.6978,0.0,0.0,0.0,0.0,0.0,0.0,0.0,0.0,0.0,0.0,-0.6075,0.0,0.0,0.0,0.0,0.0,0.0,0.0,-1.3994,0.0,0.0,-1.4448,-1.4475,-1.4543,-1.4679,-1.455,-1.4482,-1.4482,-1.3998,-1.4192,-1.4747,-0.9885,-0.7866,-0.8496,-1.0413,-1.1327,-1.1642,-1.3538,-1.4407,-1.4414,-1.4713,-1.4923,-1.5072,-1.5194,-1.5309,-1.5391,-1.5262,-1.5309,-1.5438,-1.5438,-1.554,0.0,0.0,0.0,-1.5859,-1.59,-1.6103,-1.632,-1.6354,-1.706,-1.7935,-1.8565,-1.8871,-1.9006,-1.8993,-1.8776,-1.8586,-1.8531,-1.8654,-1.8762,-1.8762,-1.8742,-1.8782,-1.8938,-1.904,-1.9081,-1.9006,-1.9345,-2.0977,-2.4393,-2.4905,-2.7511,-3.3923,-3.4056,-3.4901,-3.7529,-3.6727,-3.6059,-3.6019,-3.2553,-2.9247,-2.6398,-2.3078,-2.0059,-1.7188,-1.7468,-1.8738,-2.1207,-2.6649,-2.9319,-2.9307,-2.8255,-2.543,-2.1094,-2.041,-1.8899,-1.6978,-1.6978,-1.6971,-1.6951,-1.6951,-1.6951,-1.6951,-1.6951,-1.6965,-1.6978,0.0,0.0,0.0,0.0,0.0,0.0,0.0,0.0,0.0,0.0,0.0,-0.8624,0.0,0.0,0.0,-1.2174,-1.318,-1.3966,-1.4183,-1.4265,-1.4326,-1.4387,-1.4394,-1.4428,-1.4489,-1.4428,-1.4394,-1.4394,-1.4333,-1.4726,-1.5444,-1.3274,-1.2351,-1.2558,-1.3268,-1.3501,-1.3345,-1.4088,-1.4421,-1.4428,-1.4557,-1.4706,-1.4855,-1.5004,-1.5052,-1.5045,0.0,0.0,-1.5282,-1.5282,-1.5384,-1.5513,-1.5513,0.0,0.0,0.0,-1.5886,-1.6164,-1.6666,-1.7202,-1.7758,-1.8355,-1.8565,-1.862,-1.862,-1.8511,-1.8389,-1.8301,-1.8409,-1.8531,-1.862,-1.864,-1.8687,-1.883,-1.8993,-1.9027,-1.8884,-1.9257,-2.0656,-2.3665,-2.4256,-2.6161,-3.0666,-3.2308,-3.3523,-3.4694,-3.5649,-3.6006,-3.5832,-3.2418,-2.9112,-2.6225,-2.2979,-1.9972,-1.7073,-1.7012,-1.8424,-2.1103,-2.5112,-2.7782,-2.9307,-3.0503,-2.8138,-2.3184,-2.1353,-1.9125,-1.6849,-1.6849,-1.6802,-1.672,-1.672,-1.672,-1.6734,-1.6822,-1.6904,-1.6978,0.0,0.0,0.0,0.0,0.0,0.0,0.0,0.0,0.0,0.0,0.0,0.0,0.0,0.0,0.0,0.0,-1.3919,-1.4136,-1.4292,-1.4299,-1.4299,-1.4299,-1.4299,-1.4299,-1.4299,-1.4299,-1.4299,-1.4299,-1.4333,-1.4814,-1.5696,-1.5845,-1.6157,-1.6564,-1.5961,-1.5547,-1.5269,-1.4821,-1.4652,-1.4665,-1.4516,-1.455,-1.4699,-1.4855,-1.4841,0.0,0.0,0.0,0.0,0.0,-1.5228,-1.535,-1.535,-1.5377,0.0,0.0,0.0,-1.5845,-1.6592,-1.6937,-1.7216,-1.7772,-1.8057,-1.8213,-1.8247,-1.8267,-1.8233,-1.8111,-1.8179,-1.8301,-1.8443,-1.8511,-1.8586,-1.8742,-1.8884,-1.8938,-1.8782,-1.9115,-2.0154,-2.2488,-2.2941,-2.4376,-2.7452,-3.0228,-3.1955,-3.2408,-3.4727,-3.5939,-3.5645,-3.294,-3.0061,-2.7249,-2.466,-2.196,-1.9149,-1.8432,-1.8738,-2.0079,-2.3568,-2.624,-2.8382,-3.1371,-3.0219,-2.5798,-2.351,-2.1002,-1.8621,-1.8621,-1.8671,-1.8595,-1.8595,-1.8216,-1.7667,-1.7783,-1.7495,-1.6978,0.0,0.0,0.0,0.0,0.0,0.0,0.0,0.0,0.0,0.0,0.0,0.0,-1.3251,-1.357,-1.3831,-1.3831,-1.398,-1.4136,-1.4292,-1.4299,-1.4299,-1.4299,-1.4299,0.0,-1.4299,-1.4299,-1.4299,-1.4299,-1.4434,-1.4964,-1.5845,-1.6001,-1.653,-1.7338,-1.6734,-1.6144,-1.5588,-1.514,-1.5025,-1.5099,-1.4536,-1.4394,-1.4536,-1.4692,0.0,0.0,0.0,0.0,0.0,0.0,0.0,0.0,0.0,-1.5296,-1.5411,0.0,0.0,0.0,-1.5628,-1.5934,-1.6259,-1.672,-1.7365,-1.7935,-1.8077,-1.8111,-1.8111,-1.8091,-1.8091,-1.8145,-1.8301,-1.8443,-1.8586,-1.8742,-1.8884,-1.8938,-1.8782,-1.9027,-1.9322,-1.9427,-1.9447,-2.0797,-2.4121,-2.6825,-2.9477,-3.2172,-3.4727,-3.5939,-3.5645,-3.4594,-3.2853,-3.0094,-2.9293,-2.7589,-2.4804,-2.2235,-1.9662,-1.7293,-2.2648,-2.5317,-2.5615,-3.0652,-3.1295,-2.8456,-2.7893,-2.6234,-2.3947,-2.3947,-2.4066,-2.4335,-2.4335,-2.2942,-2.087,-2.0878,-1.9245,-1.6978,0.0,0.0,0.0,0.0,0.0,0.0,0.0,0.0,0.0,0.0,0.0,0.0,0.0,-1.381,-1.3987,-1.3987,-1.4129,-1.4245,-1.4299,-1.4299,-1.3584,-1.2059,-1.1971,-1.125,-0.9735,-0.9646,-1.0446,-1.1971,-1.2011,-1.3254,-1.5432,-1.5872,-1.6252,-1.6558,-1.6435,-1.6266,-1.6015,-1.5181,-1.4848,-1.4862,-1.4462,-1.4333,-1.4394,0.0,0.0,0.0,0.0,0.0,0.0,0.0,0.0,0.0,0.0,0.0,-1.5262,-1.5262,-1.5296,-1.5371,-1.5581,-1.5716,-1.5927,-1.6469,-1.6802,-1.7093,-1.7433,-1.767,-1.7806,-1.7806,-1.788,-1.8023,-1.8267,-1.8443,-1.8586,-1.8742,-1.8884,-1.8938,-1.8782,-1.9006,-1.9169,-1.9081,-1.9149,-2.0318,-2.3165,-2.6128,-2.8091,-2.8807,-3.3134,-3.4804,-3.2381,-3.3525,-3.2969,-3.0054,-2.9507,-2.7986,-2.5215,-2.2442,-2.0592,-1.9662,-2.1622,-2.3465,-2.5307,-2.8836,-3.0789,-3.1394,-3.1112,-2.8356,-2.4127,-2.4127,-2.4276,-2.4357,-2.4498,-2.4105,-2.3098,-2.163,-2.0488,-1.9357,0.0,0.0,0.0,0.0,0.0,0.0,0.0,0.0,0.0,0.0,0.0,0.0,0.0,0.0,-1.415,-1.415,-1.4245,-1.4299,-1.4299,-1.4299,-1.3224,-1.0806,-1.0717,-0.9553,-0.7149,-0.7057,-0.8308,-1.0717,-1.0753,-1.2261,-1.5194,-1.5642,-1.5967,-1.6151,-1.6056,-1.6178,-1.6402,-1.5554,-1.5221,-1.5221,-1.4665,-1.4536,-1.4685,0.0,0.0,0.0,0.0,0.0,0.0,0.0,0.0,0.0,0.0,0.0,0.0,0.0,-1.2642,-1.2716,-1.2862,-1.2902,-1.3255,-1.4719,-1.507,-1.5437,-1.6909,-1.7351,-1.7467,-1.7616,-1.7758,-1.7948,-1.8267,-1.8443,-1.8586,-1.8742,-1.885,-1.8884,-1.8782,-1.9847,-2.0533,-2.0416,-2.0452,-2.1201,-2.2915,-2.5761,-2.7317,-2.6783,-3.2144,-3.4437,-3.2114,-3.3369,-3.3198,-3.1031,-3.0745,-2.9319,-2.6649,-2.3878,-2.2027,-2.1103,-2.1103,-2.2545,-2.5307,-2.7908,-3.0527,-3.2959,-3.2679,-3.0386,-2.6778,-2.6778,-2.6778,-2.6789,-2.6945,-2.6011,-2.4387,-2.2951,-2.1251,-1.9462,0.0,0.0,0.0,0.0,0.0,0.0,0.0,0.0,0.0,0.0,0.0,0.0,0.0,0.0,0.0,-1.4149,-1.4231,-1.4224,-1.4306,-1.4299,-1.3224,-1.0717,-1.0629,-0.9468,-0.6968,-0.6879,-0.8129,-1.0629,-1.073,-1.2323,-1.516,-1.5323,-1.571,-1.6246,-1.5676,-1.59,-1.6686,-1.6232,-1.6137,-1.6205,-1.5153,-1.5011,-1.5432,0.0,0.0,0.0,-1.5798,-1.5662,0.0,-1.4916,0.0,0.0,0.0,0.0,0.0,0.0,0.0,-0.7442,0.0,0.0,0.0,-1.1425,-1.2154,-1.3068,-1.6485,-1.7042,-1.6974,-1.7534,-1.7738,-1.7935,-1.8267,-1.8423,-1.8586,-1.8742,-1.8762,-1.8878,-1.8885,-2.1502,-2.3318,-2.3203,-2.3263,-2.3266,-2.3152,-2.5655,-2.7205,-2.6873,-3.1974,-3.5191,-3.5072,-3.4362,-3.3748,-3.344,-3.3414,-3.2083,-2.942,-2.6649,-2.3878,-2.1207,-2.1103,-2.2442,-2.5215,-2.7884,-3.0512,-3.2874,-3.2581,-3.2385,-3.2118,-3.2091,-3.2091,-3.2091,-3.2104,-2.915,-2.4841,-2.4851,-2.1543,-1.7076,0.0,0.0,0.0,0.0,0.0,0.0,0.0,0.0,0.0,0.0,0.0,0.0,-1.1384,-1.0059,-0.983,-1.165,-1.1786,-1.2469,-1.4276,-1.4353,-1.2414,-0.8308,-0.8129,-0.6168,-0.2061,-0.1971,-0.3938,-0.8129,-0.8149,-1.0356,-1.455,-1.4923,-1.5181,-1.535,-1.5506,-1.5716,-1.59,-1.5228,-1.5343,-1.59,-1.4957,-1.4977,-1.5554,0.0,0.0,0.0,0.0,-1.571,-1.5696,0.0,-1.5459,-1.5486,0.0,0.0,0.0,0.0,0.0,0.0,-0.7464,0.0,0.0,0.0,0.0,0.0,-1.2886,-1.3618,-1.4303,-1.671,-1.7195,-1.7453,-1.8179,-1.8355,-1.8464,-1.8728,-1.8762,-1.956,-2.1725,-2.2744,-2.412,-2.6272,-2.6556,-2.7201,-2.8982,-2.9888,-3.0103,-2.9794,-3.3167,-3.4228,-3.1867,-3.3085,-3.3841,-3.3761,-3.3534,-3.3,-3.2284,-2.7567,-2.4804,-2.3981,-2.0079,-1.9558,-2.2235,-2.3053,-2.5891,-3.0323,-3.0042,-3.0872,-3.2385,-3.1957,-3.1784,-3.181,-3.2024,-3.0126,-2.7012,-2.5454,-2.2673,-1.9593,0.0,0.0,0.0,0.0,0.0,0.0,0.0,0.0,0.0,0.0,0.0,0.0,-0.911,-0.7855,-0.7708,-0.9142,-1.0124,-1.1362,-1.2795,-1.3751,-1.2148,-0.7324,-0.7057,-0.4829,-0.009,0.0,-0.233,-0.7057,-0.7057,-0.9553,-1.4306,-1.457,-1.4719,-1.4787,-1.4991,-1.5187,-1.5323,-1.4753,-1.4997,-1.5716,-1.5194,-1.5357,-1.5913,-1.5859,-1.5988,0.0,0.0,0.0,-1.6252,-1.5791,-1.5608,0.0,0.0,0.0,0.0,0.0,0.0,0.0,0.0,0.0,0.0,-0.7699,0.0,0.0,-1.0175,-1.1402,-1.2694,-1.4759,-1.61,-1.71,-1.7806,-1.8036,-1.8233,-1.8531,-1.862,-1.985,-2.295,-2.4508,-2.6386,-2.9459,-2.9625,-3.0032,-3.1285,-3.1363,-3.121,-3.1022,-3.3527,-3.4072,-3.1958,-3.3226,-3.3948,-3.3694,-3.3507,-3.3414,-3.3414,-2.7975,-2.5215,-2.5112,-1.9662,-1.8424,-2.1103,-2.1103,-2.3465,-2.7658,-2.8523,-2.9673,-3.0903,-3.1544,-3.1784,-3.169,-3.1851,-3.0324,-2.7789,-2.5393,-2.2894,-2.0422,0.0,0.0,0.0,0.0,0.0,0.0,0.0,0.0,0.0,0.0,-0.6904,-0.6622,-0.6329,-0.6325,0.0,0.0,-0.8656,-1.0109,-1.073,-1.2675,-1.1971,-0.7681,-0.7506,-0.5365,-0.0897,-0.0807,-0.2955,-0.7506,-0.7506,-0.9824,-1.4299,-1.4299,0.0,0.0,-1.4353,-1.4523,-1.4882,-1.4638,-1.4923,-1.5547,-1.5594,-1.59,-1.6361,-1.6625,-1.6829,-1.6978,-1.6978,-1.6978,-1.6856,-1.6022,-1.5527,0.0,0.0,0.0,0.0,0.0,-0.7439,0.0,0.0,0.0,0.0,0.0,-0.7714,0.0,-0.8731,-1.044,-1.1956,-1.2818,-1.4867,-1.6761,-1.7277,-1.7602,-1.788,-1.8145,-1.8375,-1.9749,-2.3199,-2.5842,-2.8543,-3.1521,-3.1764,-3.1671,-3.1316,-3.1368,-3.1522,-3.1737,-3.37,-3.4576,-3.4015,-3.4202,-3.4055,-3.348,-3.3427,-3.3414,-3.3414,-2.7975,-2.5215,-2.5112,-1.9662,-1.8327,-2.0592,-2.0592,-2.2131,-2.4887,-2.7067,-2.8134,-2.8607,-3.0695,-3.1604,-3.1664,-3.1379,-2.9763,-2.7221,-2.4597,-2.2168,-1.9836,0.0,0.0,0.0,0.0,0.0,0.0,0.0,0.0,0.0,0.0,-0.542,-0.353,-0.1623,0.0,0.0,0.0,-0.4817,-0.6649,-1.0566,-1.1188,-1.0984,-1.0002,-1.0002,-0.8664,-0.5811,-0.5722,-0.7146,-1.0002,-1.0002,-1.1433,-1.4299,-1.4299,0.0,0.0,-1.4312,-1.4346,-1.4441,-1.4618,-1.478,-1.4943,-1.5309,-1.5866,-1.6483,-1.6544,-1.6741,-1.6978,-1.6978,-1.6978,-1.6917,-1.649,-1.6069,-1.5655,0.0,0.0,0.0,0.0,0.0,0.0,0.0,0.0,0.0,0.0,0.0,0.0,-1.0129,-1.1011,-1.215,-1.4523,-1.5341,-1.5961,-1.6897,-1.7209,-1.7344,-1.7399,-1.7948,-1.9527,-2.3058,-2.3897,-2.5425,-2.8543,-3.0667,-3.1809,-3.1441,-3.3405,-3.4593,-3.4424,-3.4848,-3.4963,-3.4616,-3.4416,-3.4162,-3.3801,-3.3547,-3.3414,-3.3414,-2.7975,-2.5215,-2.5112,-1.9662,-1.7293,-1.7811,-1.7811,-1.9253,-2.1906,-2.2055,-2.4478,-2.8386,-2.8535,-2.9866,-3.1474,-2.9338,-2.7021,-2.4351,-2.1875,-1.9316,-1.7111,0.0,0.0,0.0,0.0,0.0,0.0,0.0,0.0,-0.3581,-0.3598,-0.2513,-0.1319,-0.0103,0.0,0.0,0.0,0.0,0.0,0.0,0.0,-0.9697,-0.7239,-0.7149,-0.6018,-0.3636,-0.4767,-0.6556,-0.889,-1.0144,-1.1971,-1.4299,-1.4299,-1.4258,0.0,-1.4265,-1.4258,-1.4211,-1.4584,-1.4787,-1.4909,-1.5506,-1.5967,-1.6334,-1.6639,-1.6849,-1.6978,-1.6978,-1.6931,-1.6809,-1.6429,-1.6252,0.0,0.0,-1.4571,-1.3704,0.0,-1.2337,-1.1382,0.0,0.0,0.0,-0.9741,0.0,0.0,0.0,-1.0426,-1.1713,-1.3386,-1.4584,-1.5527,-1.6279,-1.6537,-1.6714,-1.6937,-1.7412,-1.8447,-2.0373,-2.2172,-2.4393,-2.7663,-2.8883,-3.0008,-3.1227,-3.2503,-3.3161,-3.3023,-3.3129,-3.2306,-3.0503,-3.0139,-3.0509,-3.1591,-3.1441,-3.1982,-3.3414,-2.9307,-2.6546,-2.5112,-2.0999,-1.832,-1.6978,-1.6978,-1.7706,-1.9141,-2.0291,-2.2987,-2.6693,-2.7847,-2.9772,-3.1673,-2.8896,-2.6999,-2.5356,-2.155,-1.9295,-1.8112,0.0,0.0,0.0,0.0,0.0,0.0,0.0,0.0,-0.0206,-0.0825,-0.0831,-0.1041,-0.1655,0.0,0.0,0.0,0.0,0.0,0.0,0.0,0.0,-0.5112,-0.4576,-0.3346,-0.1379,-0.3709,-0.587,-0.7787,-1.0177,-1.2414,-1.4299,-1.4299,-1.4231,-1.4122,-1.4245,-1.4265,-1.4224,-1.4618,-1.4909,-1.516,-1.5845,-1.611,-1.6144,-1.672,-1.6937,-1.6937,-1.6971,-1.6904,-1.6734,-1.6341,-1.6368,-1.6408,-1.5513,-1.5703,0.0,0.0,0.0,0.0,0.0,0.0,0.0,0.0,0.0,-1.171,0.0,0.0,0.0,-1.2324,-1.385,-1.5235,-1.5683,-1.5866,-1.6069,-1.6435,-1.6815,-1.7182,-1.7514,-2.0164,-2.3027,-2.5761,-2.6101,-2.6949,-2.9247,-2.9731,-2.9903,-3.0006,-3.0044,-2.8851,-2.6031,-2.6161,-2.7307,-2.9229,-2.9825,-3.1164,-3.3414,-3.0647,-2.819,-2.5932,-2.3165,-2.0696,-1.8529,-1.8529,-1.8529,-1.8634,-2.0351,-2.2793,-2.5669,-2.7292,-2.9628,-3.1789,-2.9067,-2.7608,-2.6487,-2.1836,-1.9883,-1.9239,0.0,0.0,0.0,0.0,0.0,0.0,0.0,0.0,-0.0946,-0.3596,-0.3814,-0.478,-0.7373,0.0,0.0,0.0,0.0,0.0,-1.0758,0.0,0.0,0.0,-0.7877,0.0,-0.6279,-0.8664,-1.0017,-1.0307,-1.2698,-1.4033,-1.4299,0.0,-1.4292,-1.4278,-1.4292,-1.4434,-1.4679,-1.4862,-1.5181,-1.5608,-1.609,-1.6205,-1.613,-1.6598,-1.6775,-1.6795,-1.6931,-1.6971,-1.6924,0.0,-1.6693,-1.6659,0.0,-1.6137,-1.609,0.0,0.0,0.0,0.0,0.0,0.0,0.0,-1.546,0.0,0.0,0.0,-1.4739,-1.4679,0.0,-1.493,-1.5377,0.0,0.0,-1.5554,-1.6144,-1.6571,-1.6497,-1.7293,-1.8136,-1.9,-2.1161,-2.2739,-2.3062,-2.5153,-2.6546,-2.6835,-2.6598,-2.6255,-2.5683,-2.7954,-2.9282,-2.933,-3.1668,-3.31,-3.3414,-3.0647,-2.9116,-2.8811,-2.6035,-2.4598,-2.429,-2.429,-2.429,-2.4177,-2.1945,-2.3775,-2.8272,-2.5737,-2.7617,-3.1829,-2.9469,-2.6934,-2.4204,-2.1504,-1.8987,-1.6898,0.0,0.0,0.0,0.0,0.0,0.0,0.0,0.0,-0.043,-0.1717,-0.3352,-0.4918,-0.6419,0.0,0.0,0.0,0.0,-1.0431,0.0,0.0,0.0,0.0,0.0,0.0,0.0,-0.9676,-1.0795,-1.0725,-1.3121,-1.4299,-1.4299,0.0,0.0,-1.4421,-1.4421,-1.4638,-1.4997,-1.5065,-1.535,-1.5798,-1.6164,-1.632,-1.6388,-1.6836,-1.706,-1.7134,-1.7114,-1.7107,-1.7039,0.0,-1.6666,0.0,0.0,0.0,0.0,0.0,0.0,0.0,0.0,0.0,0.0,0.0,0.0,0.0,-1.5391,0.0,-1.5092,0.0,0.0,0.0,0.0,0.0,0.0,0.0,-1.575,-1.6015,-1.6042,-1.6259,-1.668,-1.7392,-1.8316,-1.9664,-2.1433,-2.4213,-2.5973,-2.6079,-2.5797,-2.5603,-2.5528,-2.6553,-2.778,-2.9217,-3.0445,-3.1768,-3.3414,-3.2284,-3.0849,-2.9217,-2.6546,-2.5215,-2.5112,-2.3568,-2.3672,-2.5102,-2.3885,-2.4655,-2.6782,-2.7001,-2.8334,-3.0329,-3.1112,-2.8439,-2.3651,-1.967,-1.7523,-1.653,0.0,0.0,0.0,0.0,0.0,0.0,0.0,0.0,-0.0543,-0.2273,-0.436,-0.6419,-0.851,-1.0516,0.0,0.0,-1.3356,-1.3236,0.0,0.0,-1.1109,0.0,0.0,0.0,0.0,0.0,0.0,-1.0861,-1.3251,-1.4441,-1.4482,0.0,0.0,0.0,-1.4679,-1.4943,-1.5371,-1.5459,-1.5771,-1.6239,-1.6463,-1.6666,-1.6856,-1.71,-1.729,-1.7399,-1.7249,-1.7195,-1.7121,-1.6653,-1.6714,0.0,-1.6598,0.0,0.0,0.0,0.0,0.0,-1.6501,0.0,0.0,0.0,0.0,0.0,0.0,0.0,0.0,0.0,0.0,0.0,0.0,0.0,0.0,0.0,0.0,-1.5723,-1.5784,-1.5791,-1.6049,-1.6741,-1.6707,-1.7519,-1.9768,-2.2688,-2.4358,-2.4422,-2.4867,-2.5053,-2.5223,-2.582,-2.7196,-2.9217,-3.004,-3.1365,-3.3414,-3.2699,-3.1265,-2.9217,-2.6546,-2.5215,-2.5112,-2.3156,-2.3672,-2.624,-2.5522,-2.6035,-2.7567,-2.8719,-2.9498,-3.0154,-3.1565,-2.9359,-2.5012,-2.1322,-1.9481,-1.8788,0.0,0.0,0.0,0.0,0.0,0.0,0.0,0.0,-0.2035,-0.7818,-0.854,-1.0963,-1.7384,-1.7781,0.0,0.0,0.0,-1.7177,-1.715,0.0,-1.2216,0.0,0.0,-0.7911,0.0,0.0,0.0,0.0,-1.3528,-1.4801,-1.4943,0.0,0.0,0.0,-1.5099,-1.5411,-1.5852,-1.6151,-1.6612,-1.7148,-1.7161,-1.7344,-1.7582,0.0,-1.729,-1.7399,-1.7249,0.0,0.0,-1.7012,-1.6971,0.0,0.0,0.0,0.0,0.0,0.0,0.0,0.0,0.0,0.0,-1.6266,0.0,0.0,0.0,0.0,-1.5784,0.0,0.0,0.0,0.0,0.0,0.0,0.0,0.0,0.0,0.0,-1.5649,-1.571,-1.5879,-1.6151,-1.6435,-1.6831,-1.9002,-2.0443,-2.0705,-2.2897,-2.4337,-2.476,-2.7303,-2.8948,-2.9307,-3.1869,-3.3314,-3.3414,-3.0748,-2.942,-2.9217,-2.6546,-2.5215,-2.5215,-2.5112,-2.6546,-2.9014,-2.6342,-2.8178,-3.2873,-3.0052,-3.0441,-3.2577,-3.0042,-2.8908,-2.8719,-2.8886,-2.724,-2.4578,0.0,0.0,0.0,0.0,0.0,0.0,0.0,-0.1609,-0.3721,-0.6223,-0.8192,-1.1259,-1.6053,-1.8128,-1.9257,0.0,0.0,-1.8552,-1.8057,-1.6638,0.0,0.0,0.0,-1.3538,0.0,0.0,0.0,0.0,0.0,-1.5113,-1.5262,-1.5106,0.0,0.0,0.0,-1.5737,-1.6171,-1.6368,-1.668,-1.7066,-1.7263,-1.765,-1.8057,0.0,-1.7582,-1.7684,-1.7433,-1.7344,0.0,-1.7168,-1.706,-1.6998,-1.7093,-1.7608,-1.8069,-1.7196,-1.7663,0.0,0.0,0.0,-1.976,-1.7195,0.0,0.0,0.0,0.0,0.0,0.0,0.0,0.0,0.0,0.0,0.0,0.0,0.0,0.0,0.0,-1.5316,-1.5215,-1.5262,-1.571,-1.6049,-1.6144,-1.6942,-1.9151,-2.3112,-2.3839,-2.5918,-2.9993,-3.115,-3.1698,-3.1701,-3.2794,-3.2498,-3.0748,-2.9724,-2.9319,-2.9217,-2.6546,-2.6137,-2.7884,-2.6035,-2.5727,-2.6649,-2.7578,-2.7986,-2.8178,-3.085,-3.1315,-3.0612,-3.1528,-3.1929,-3.1428,-2.7839,-2.6035,-2.5112,0.0,0.0,0.0,0.0,-0.0927,-0.1564,-0.1481,-0.4134,-0.6719,-0.8278,-1.0322,-1.3155,-1.6886,-1.8946,-1.9976,0.0,-1.982,-1.9325,-1.8531,-1.8247,0.0,-1.7521,-1.7182,0.0,0.0,0.0,0.0,0.0,0.0,-1.5635,-1.5723,-1.552,0.0,0.0,-1.5852,-1.6096,-1.6483,-1.6795,-1.7066,-1.7311,-1.75,-1.7806,0.0,0.0,-1.7846,-1.7989,0.0,-1.75,-1.7487,-1.7385,-1.7256,-1.7161,-1.7311,-1.7812,-1.8447,-1.8603,-1.9384,-1.9957,-1.8963,-2.0332,0.0,-1.7741,-1.8942,0.0,-1.7924,0.0,0.0,0.0,0.0,0.0,0.0,0.0,0.0,0.0,0.0,0.0,0.0,-1.5092,-1.4991,-1.5038,-1.5432,-1.5737,-1.5845,-1.6763,-1.9208,-2.3846,-2.4789,-2.721,-3.1965,-3.2492,-3.2719,-3.2826,-3.32,-3.2083,-2.9319,-2.8291,-2.7884,-2.7782,-2.5112,-2.5215,-2.7782,-2.5009,-2.429,-2.5215,-2.6035,-2.6444,-2.6955,-3.0445,-3.1466,-3.095,-3.2699,-3.3414,-3.3,-2.9408,-2.7465,-2.6649,0.0,0.0,0.0,0.0,-0.2526,-0.4451,-0.4209,-0.7393,-1.087,-1.3756,-1.4846,-1.6656,-2.0118,-2.0315,-2.0315,-2.0736,-2.0363,-1.9766,-1.8905,-1.8959,0.0,0.0,-1.786,-1.7704,-1.727,0.0,0.0,0.0,0.0,0.0,-1.6334,-1.6029,-1.5961,0.0,-1.6259,-1.6483,-1.6775,-1.7378,-1.7717,-1.788,-1.788,-1.7901,-1.7914,-1.7901,-1.8091,-1.8287,-1.7826,-1.7663,-1.7663,-1.7663,-1.7568,-1.7467,-1.7616,-1.926,-2.1316,-2.1449,-2.3515,-2.5094,-2.2284,-2.1754,-2.1218,-1.7996,-1.9294,0.0,0.0,0.0,-2.2013,0.0,0.0,0.0,0.0,0.0,0.0,0.0,0.0,0.0,0.0,0.0,-1.5025,-1.5174,-1.5309,-1.5506,-1.5805,-1.7982,-2.0253,-2.2616,-2.5125,-2.7726,0.0,-3.1421,-3.2115,-3.2519,-3.3106,-3.2083,-2.9319,-2.6546,-2.5215,-2.5215,-2.2442,-2.2442,-2.4906,-2.2338,-2.2442,-2.4701,-2.2131,-2.4084,-2.8913,-2.9014,-3.0748,-3.32,-3.32,-3.32,-3.32,-3.3314,-3.1567,-2.9116,0.0,0.0,0.0,0.0,-0.2332,-0.4236,-0.42,-0.7328,-1.091,-1.4286,-1.5383,-1.7149,-2.0584,-2.0878,-2.077,-2.077,-2.056,0.0,0.0,0.0,0.0,-1.9169,-1.8871,-1.8531,-1.8199,-1.7717,0.0,-1.7134,0.0,0.0,-1.6802,-1.6497,-1.6368,0.0,-1.6571,-1.6619,-1.6619,-1.7222,-1.7684,-1.8036,-1.8158,-1.8409,-1.8674,0.0,-1.8552,-1.8728,-1.8057,-1.788,-1.7982,-1.7982,-1.788,-1.7758,-1.7792,-1.8142,-1.9058,-2.1103,-2.2343,-2.2804,-2.2118,-2.3638,-2.4282,-1.9024,-1.9731,-2.1027,0.0,0.0,0.0,0.0,0.0,0.0,0.0,0.0,0.0,0.0,0.0,0.0,0.0,0.0,0.0,-1.5323,-1.5194,-1.5201,-1.5493,-1.6043,-1.7436,-2.0033,-2.0677,-2.3087,-2.7901,-2.8793,-3.0139,-3.2211,-3.3,-3.2083,-2.9319,-2.6546,-2.5215,-2.5215,-2.2442,-2.1518,-2.2131,-2.1414,-2.0384,-1.9149,-2.0488,-2.1933,-2.3362,-2.542,-2.7873,-3.0343,-3.0343,-3.0343,-3.0647,-3.2699,-3.0331,-2.6546,-0.0217,0.0,0.0,0.0,-0.2642,-0.5088,-0.6345,-1.0535,-1.4412,-1.6596,-1.7582,-1.8715,-2.054,-2.098,-2.1055,-2.0967,-2.077,0.0,-2.0241,0.0,0.0,-1.9678,-1.9535,-1.9305,-1.8938,-1.8409,0.0,-1.7616,0.0,0.0,-1.6971,-1.6666,-1.6524,-1.653,-1.668,-1.67,-1.6659,-1.7263,-1.7772,-1.8199,-1.8287,-1.8511,0.0,-1.8674,-1.8742,-1.883,-1.8409,-1.8233,-1.8199,-1.8267,-1.8179,-1.8077,-1.8145,-1.8057,-1.8468,-2.1295,-2.221,-2.2303,-2.2303,-2.3532,-2.3923,-1.9266,-2.0111,-2.1574,-1.9837,-1.942,-2.0122,0.0,0.0,0.0,0.0,0.0,0.0,0.0,0.0,0.0,0.0,0.0,0.0,0.0,-1.5323,-1.533,-1.5493,-1.5133,-1.6008,-1.8626,-1.8715,-2.047,0.0,-2.6992,-2.8777,-3.0153,-3.1238,-3.0472,-2.7578,-2.4889,-2.354,-2.3362,-2.182,-2.176,-2.2974,-2.1734,-2.0329,-1.8948,-1.9286,-2.0079,-2.1317,-2.2788,-2.5009,-2.7476,-2.7476,-2.6751,-2.6035,-2.88,-2.7873,-2.542,-0.111,-0.0562,-0.0567,-0.0561,-0.3911,-0.7502,-0.9982,-1.5037,-1.8747,-1.9393,-2.0187,-2.0661,-2.0539,-2.0967,-2.1245,-2.1245,0.0,-2.0627,-2.0227,-2.0438,-2.0329,-1.98,-1.9997,-1.9942,-1.9522,-1.9027,0.0,0.0,0.0,0.0,-1.6971,-1.6686,-1.6551,-1.6558,-1.6686,-1.6768,-1.6842,-1.7385,-1.7894,-1.8321,-1.8355,-1.8477,-1.8674,-1.8796,-1.883,-1.8816,-1.8796,-1.862,-1.8409,-1.8552,-1.8511,-1.8423,-1.8531,-1.8498,-1.8958,-2.1816,-2.269,-2.2715,-2.269,-2.269,-2.1977,-1.9205,-2.0252,-2.1932,-2.1912,-2.1649,-2.2324,-2.5,-2.183,-1.931,0.0,0.0,0.0,0.0,0.0,0.0,0.0,0.0,0.0,0.0,0.0,0.0,-1.5669,-1.5038,-1.5474,-1.764,-1.7862,-1.8838,0.0,0.0,-2.7445,-2.7286,-2.8801,-2.8172,-2.5306,-2.2723,-2.1378,-2.1213,-2.0778,-2.1978,-2.4317,-2.1925,-2.0865,-2.0799,-1.833,-1.8569,-2.0734,-2.0691,-2.2158,-2.4701,-2.5112,-2.3568,-2.1414,-2.3775,-2.4392,-2.4187,-0.3992,-0.3833,-0.3752,-0.3669,-0.8848,-1.3277,-1.4399,-1.5767,-1.7665,-2.0386,-2.1245,-2.1638,-2.1618,-2.1475,-2.1408,-2.1408,-2.1123,0.0,0.0,0.0,0.0,-2.0397,-2.0329,-2.0187,-1.9997,-1.9183,-1.8654,0.0,0.0,0.0,-1.6978,-1.6795,-1.6707,-1.6714,-1.6734,-1.6883,-1.7127,-1.7365,0.0,-1.8335,-1.8586,-1.8918,-1.9271,-1.9305,-1.9237,-1.9115,-1.8993,-1.883,-1.8708,-1.8864,-1.8905,-1.885,-1.8762,-1.8796,-1.9398,-2.2074,-2.2976,-2.2954,-2.2934,-2.2887,-2.2318,-1.9503,-1.8924,-1.9284,-1.9339,-1.9121,-1.9537,-2.2481,-2.3837,-2.4691,-2.5229,0.0,0.0,0.0,0.0,0.0,0.0,0.0,0.0,0.0,0.0,-1.8316,-1.6105,-1.5472,-1.5348,-1.5491,-1.5321,-1.6279,0.0,0.0,-2.4082,0.0,-2.7207,-2.7637,0.0,0.0,-2.1436,-2.1689,-1.9203,-1.8309,-1.8752,-1.8331,-1.8137,-1.8058,-1.76,-1.7625,-1.7925,-1.7897,-1.9474,-2.2027,-2.429,-2.3568,-2.1207,-2.1622,-2.0384,-1.8738,-0.4859,-0.3373,-0.2815,-0.4846,-0.931,-1.3471,-1.6098,-1.8111,-1.9672,-2.0898,-2.1245,-2.1387,-2.1319,-2.1462,-2.1564,-2.1564,-2.1285,-2.1068,-2.1001,-2.0858,-2.0736,-2.0668,-2.0526,0.0,-2.0227,-1.9481,-1.8918,-1.8531,0.0,0.0,0.0,0.0,-1.6707,-1.6632,-1.6632,-1.6842,-1.7202,-1.7358,0.0,-1.8355,-1.8728,-1.9094,-1.9434,-1.9522,-1.9447,-1.9305,-1.9149,-1.9006,-1.8884,-1.8871,-1.8918,-1.8972,-1.8905,-1.8972,-1.9303,-2.0656,-2.1006,-2.1044,-2.0961,-2.1006,-2.0715,-1.9338,-1.8884,-1.8796,-1.8871,-1.8586,-1.8712,-1.9886,-2.1143,-2.1891,-2.1613,-2.1128,0.0,0.0,0.0,0.0,0.0,0.0,0.0,0.0,0.0,0.0,0.0,0.0,-1.6927,-1.4981,-1.4713,-1.516,0.0,0.0,-2.3251,0.0,0.0,0.0,-2.547,0.0,-1.9561,-1.9453,-1.8093,-1.746,-1.7541,-1.7541,-1.7582,-1.765,-1.7575,-1.75,-1.7419,-1.7256,-1.7946,-1.9149,-2.0384,-2.0183,-1.894,-1.894,-1.8118,-1.7188,-0.6054,-0.4596,-0.4267,-0.7411,-1.085,-1.4336,-1.7668,-2.0468,-2.1991,-2.1408,-2.1299,-2.1245,-2.1123,-2.1475,-2.1726,-2.1726,-2.1441,-2.1245,-2.1211,-2.1001,-2.0845,-2.077,-2.0648,-2.0526,-2.0383,-1.9786,-1.9203,0.0,0.0,0.0,0.0,0.0,0.0,0.0,-1.6605,-1.6829,0.0,0.0,-1.7846,-1.8409,-1.885,-1.9217,-1.9501,-1.961,-1.9569,-1.9413,-1.9291,-1.9169,-1.9006,-1.8871,-1.8884,-1.8993,-1.8993,-1.9094,-1.9203,-1.9203,-1.9203,-1.9203,-1.9237,-1.9203,-1.9169,-1.9203,-1.9081,-1.8952,-1.8993,-1.8762,-1.8464,-1.8233,-1.8685,-1.8829,-1.846,-1.851,0.0,0.0,0.0,0.0,0.0,0.0,0.0,0.0,0.0,0.0,-1.593,-1.7672,-1.7884,-1.5603,-1.5454,-1.5669,-1.6077,0.0,0.0,0.0,0.0,-2.5132,-2.466,0.0,-1.8703,-1.8416,-1.7853,-1.7575,-1.7704,-1.7704,-1.7758,-1.786,-1.7738,-1.7684,-1.7629,-1.7351,-1.7175,-1.7073,-1.7073,-1.7073,-1.7073,-1.7073,-1.7053,-1.7026,-0.9904,-1.2004,-1.4041,-1.4951,-1.8172,-2.0808,-2.141,-2.2091,-2.2486,-2.2411,-2.2289,-2.2215,-2.2201,-2.1991,-2.1862,-2.1862,-2.1584,-2.1353,-2.1231,-2.1197,-2.1055,-2.079,-2.0756,-2.0682,-2.0526,-1.9942,-1.9413,0.0,0.0,0.0,0.0,0.0,0.0,0.0,0.0,0.0,0.0,-1.765,-1.8091,-1.8552,-1.9006,-1.9359,-1.9644,-1.9664,-1.9569,-1.9434,-1.9413,-1.9305,-1.9169,-1.9027,-1.8972,-1.8993,-1.8993,-1.9094,-1.9203,-1.9203,-1.9203,-1.9237,-1.9379,-1.9217,-1.904,-1.9169,-1.8993,-1.8816,-1.8959,-1.8762,-1.8531,-1.8498,-2.0387,-2.1864,-2.1433,-2.3436,-2.3451,0.0,0.0,0.0,0.0,0.0,0.0,0.0,0.0,0.0,0.0,-1.5595,-1.6212,-1.773,-1.8133,-1.9105,0.0,0.0,0.0,-1.9475,-2.4998,-2.611,-2.2141,-2.1847,-2.1674,-2.1862,-1.9192,-1.7826,-1.7846,-1.7846,-1.7846,-1.786,-1.7846,-1.7772,-1.7629,-1.7467,-1.7392,-1.7378,-1.7378,-1.7378,-1.7378,-1.7378,-1.729,-1.7175,-1.3811,-1.3399,-1.3799,-1.6477,-1.8032,-1.9812,-2.2181,-2.2554,-2.2554,-2.2554,-2.2432,-2.2337,-2.2337,-2.2059,-2.1882,-2.1882,-2.1618,-2.1455,-2.1475,-2.1319,-2.1197,-2.1177,-2.0912,-2.0736,-2.0682,-2.0187,-1.9712,0.0,0.0,0.0,0.0,0.0,0.0,0.0,0.0,-1.7378,-1.7623,-1.7989,-1.8389,-1.883,-1.9203,-1.9468,-1.9664,-1.9664,-1.9624,-1.9556,-1.9468,-1.9393,-1.9325,-1.9169,-1.9115,-1.9094,-1.9027,-1.9094,-1.9217,-1.9305,-1.9345,-1.9379,-1.9522,-1.9488,-1.9413,-1.9468,-1.9325,-1.9149,-1.9128,-1.8952,-1.8762,-1.8565,-1.9185,-1.9789,-1.9595,-2.0311,-2.0225,0.0,0.0,0.0,0.0,0.0,0.0,0.0,0.0,0.0,0.0,-1.6651,-1.7776,-1.8794,-1.7207,-1.7224,0.0,0.0,0.0,-1.955,0.0,-2.4327,-2.1572,-2.1889,-2.1295,-1.9692,-1.8433,-1.786,-1.786,-1.786,-1.786,-1.786,-1.786,-1.7772,-1.765,-1.7582,-1.75,-1.7419,-1.7419,-1.7419,-1.7419,-1.7419,-1.7385,-1.7538,-1.6646,-1.5494,-1.5622,-1.8615,-1.9025,-1.9954,-2.2683,-2.2818,-2.2608,-2.2554,-2.2391,-2.2269,-2.2269,-2.2079,-2.1937,-2.1882,-2.174,-2.1672,-2.1726,-2.1564,-2.1462,-2.1441,-2.1143,0.0,-2.0845,-2.0492,-2.0085,-1.9624,-1.9149,0.0,0.0,0.0,0.0,0.0,-1.7629,-1.7826,-1.8077,-1.8423,-1.8796,-1.9149,-1.9481,-1.9698,-1.9786,-1.9752,-1.9732,-1.9712,-1.961,-1.9535,-1.9481,-1.9413,-1.9379,-1.9305,-1.9115,-1.9115,-1.9237,-1.9379,-1.9393,-1.9413,-1.961,-1.959,-1.9535,-1.959,-1.9447,-1.9271,-1.9169,-1.9027,-1.885,-1.8586,-1.8375,-1.8213,-1.8165,-1.7982,-1.7894,-1.8057,0.0,0.0,0.0,0.0,0.0,0.0,0.0,-1.5615,-1.5221,-1.6649,-1.8041,-1.8894,-1.6283,-1.6054,0.0,0.0,0.0,0.0,0.0,0.0,-2.1365,-2.1931,-2.1132,-1.9177,-1.8302,-1.786,-1.786,-1.786,-1.786,-1.786,-1.786,-1.7812,-1.7717,-1.7717,-1.765,-1.7555,-1.7555,-1.7555,-1.7555,-1.7555,-1.8055,-1.9085,-1.7893,-1.9941,-2.2374,-2.2974,-2.3061,-2.3205,-2.3219,-2.2974,-2.273,-2.2574,-2.2289,-2.2113,-2.2113,-2.2113,-2.2038,-2.1903,-2.2025,-2.2038,-2.1882,-2.2025,-2.1896,0.0,0.0,-2.1299,-2.1001,-2.0845,-2.0539,-2.0098,0.0,0.0,-1.8742,0.0,-1.8301,-1.8301,-1.8301,-1.8389,-1.8552,-1.9006,-1.9291,-1.9468,-1.9908,-2.0098,-2.0085,-1.9929,-1.9875,-1.9875,-1.9875,-1.9786,-1.9678,-1.982,-1.9766,-1.961,-1.9291,-1.9203,-1.9237,-1.9379,-1.9325,-1.9271,-1.9576,-1.9434,-1.9237,-1.9393,-1.9217,-1.8993,-1.8993,-1.8871,-1.8728,-1.8565,-1.8531,-1.8477,-1.8335,-1.8321,-1.8267,-1.8111,0.0,0.0,0.0,0.0,0.0,0.0,-1.7936,-1.5839,-1.5242,-1.4916,-1.5734,-1.8067,-1.6246,0.0,0.0,0.0,0.0,-1.897,-2.3002,0.0,-2.1479,-2.1931,-2.221,-2.2101,-1.9287,-1.786,-1.786,-1.786,-1.786,-1.786,-1.786,-1.786,-1.786,-1.786,-1.786,-1.786,-1.786,-1.786,-1.786,-1.786,-1.9608,-2.1923,-2.1151,-2.2007,-2.2886,-2.3171,-2.3219,-2.3219,-2.3219,-2.2974,-2.273,-2.2574,-2.2391,-2.2147,-2.1848,-2.1903,-2.1937,0.0,-2.2025,-2.2093,0.0,-2.2079,-2.2004,-2.176,-2.1543,-2.1353,-2.1143,-2.1001,-2.0804,-2.056,0.0,0.0,0.0,-1.8871,-1.8762,-1.8477,-1.8776,-1.9006,-1.9169,-1.9522,-1.9746,-1.9908,-2.0051,-2.0031,-1.9942,-1.9888,-1.982,-1.9732,-1.9732,-1.9766,-1.982,-1.9854,-1.9908,-1.9942,-1.9854,-1.9678,-1.9535,-1.9698,-1.9698,-1.9678,-1.9786,-1.9732,-1.9644,-1.961,-1.9434,-1.9291,-1.9291,-1.9094,-1.8871,-1.8728,-1.8694,-1.8674,-1.864,-1.862,-1.8606,-1.8552,-1.9157,0.0,0.0,0.0,0.0,0.0,-1.6475,-1.5499,-1.4794,-1.4916,0.0,0.0,-1.7126,0.0,0.0,0.0,0.0,0.0,-2.2313,0.0,-1.8884,-2.1202,-2.1301,-1.9441,-1.8462,-1.7968,-1.786,-1.786,-1.786,-1.786,-1.786,-1.786,-1.786,-1.786,-1.906,-2.0811,-2.0811,-2.1983,-2.372,-2.372,-2.4326,-2.5321,-2.2907,-2.3029,-2.3117,-2.3205,-2.3219,-2.3219,-2.3219,-2.2974,-2.273,-2.2574,-2.2323,-2.2038,-2.1706,-2.1794,0.0,-2.1882,-2.2181,-2.2323,-2.2201,-2.2303,-2.2215,-2.1903,-2.1706,-2.1509,-2.1299,-2.1211,0.0,-2.0933,-2.0492,-1.9963,-1.9359,-1.9481,-1.9393,-1.9128,-1.9413,-1.959,-1.9698,-1.9942,-2.0098,-2.0187,-2.0241,-2.0173,-2.0031,-1.9976,-1.9875,-1.9752,-1.98,-1.9854,-1.9888,-2.0064,-2.0153,-2.0187,-2.0241,-2.1004,-2.182,-2.1906,-2.2758,-2.3698,-2.3634,-2.2657,-2.1772,-2.1494,-2.0374,-1.9413,-1.9359,-1.9169,-1.8972,-1.8938,-1.8918,-1.8918,-1.8918,-1.8884,-1.885,-1.885,-1.8552,-1.8199,-1.7826,0.0,0.0,0.0,0.0,0.0,0.0,-1.5323,-1.552,0.0,0.0,0.0,0.0,0.0,-1.8956,-1.7575,-2.0604,-2.0758,-1.765,-1.9692,-1.9811,-1.8002,-1.9101,-2.0149,-2.1116,-2.1116,-2.0576,-1.95,-1.95,-1.8942,-1.7977,-1.906,-2.0584,-2.2328,-2.3402,-2.4905,-2.6529,-2.6529,-2.7176,-2.8339,-2.3185,-2.3219,-2.3219,-2.3219,-2.3219,-2.3219,-2.3205,-2.2961,-2.273,-2.2554,-2.2167,-2.1848,-2.1706,-2.1815,-2.1903,-2.1916,0.0,0.0,-2.2378,-2.2642,-2.2534,-2.1937,-2.1903,-2.176,-2.1455,-2.1441,-2.1353,-2.1197,-2.077,-2.0485,-2.0329,-2.0187,-2.0119,-2.0098,-2.0119,-2.0119,-2.0119,-2.0275,-2.0349,-2.0349,-2.0485,-2.0451,-2.0315,-2.0173,-2.001,-1.9888,-2.0051,-2.001,-1.9963,-2.0383,-2.0451,-2.0363,-2.0752,-2.3164,-2.5716,-2.5251,-2.7455,-3.0078,-2.9733,-2.7492,-2.5156,-2.4622,-2.194,-1.9413,-1.9257,-1.9115,-1.9061,-1.9183,-1.9203,-1.9217,-1.9217,-1.9094,-1.9006,-1.8993,-1.8599,-1.8145,-1.7704,0.0,0.0,0.0,0.0,0.0,-1.5886,-1.6022,-1.6123,0.0,0.0,0.0,0.0,0.0,-1.9585,-1.9916,-1.852,-1.7744,-1.7704,-1.7968,-1.8134,-1.8205,-2.1132,-2.3937,-2.6529,-2.6529,-2.5014,-2.253,-2.253,-2.1015,-1.8736,-2.1343,-2.2647,-2.3075,-2.5772,-2.6961,-2.7068,-2.7068,-2.879,-3.1166,-2.3185,-2.3219,-2.3219,-2.3219,-2.3219,-2.3185,-2.3083,-2.2907,-2.2696,-2.2425,-2.2201,-2.2004,-2.1848,-2.1971,-2.2113,-2.2215,-2.2567,-2.2696,-2.252,-2.2784,-2.2744,-2.2249,-2.2113,-2.1916,-2.1618,-2.1496,-2.1319,-2.1055,-2.0946,-2.0702,-2.0329,-2.0295,-2.0207,-2.0098,-2.0227,-2.0275,-2.0275,-2.0438,-2.0485,-2.0485,-2.0526,-2.0451,-2.0329,-2.0295,-2.0098,-1.9888,-2.0051,-2.0085,-2.0085,-2.0309,-2.0438,-2.0865,-2.3535,-2.6654,-2.877,-2.6173,-2.7767,-3.031,-3.019,-2.9408,-2.8036,-2.5416,-2.2123,-1.9569,-1.9413,-1.9345,-1.9305,-1.9217,-1.9291,-1.9379,-1.9379,-1.9257,-1.9115,-1.9006,-1.8511,-1.7982,-1.7541,-1.7283,0.0,0.0,-1.6435,-1.6435,-1.5906,-1.63,-1.6497,0.0,0.0,-1.7658,-1.9335,-1.8396,-1.7846,-1.7744,-1.9761,-2.0065,-1.8158,-1.8233,-1.9288,-2.1325,-2.411,-2.588,-2.6529,-2.6529,-2.6097,-2.5447,-2.5447,-2.5122,-2.4471,-2.5231,-2.6853,-2.8897,-2.9551,-3.1178,-3.3129,-3.3129,-3.3566,-3.4214,-2.3205,-2.3219,-2.3219,-2.3219,-2.3219,-2.3171,-2.3029,-2.2886,-2.2696,-2.2466,-2.2181,-2.2004,-2.1991,-2.2059,-2.2181,-2.2323,-2.2608,-2.2744,-2.2662,-2.2886,-2.2818,-2.2357,-2.2201,-2.1971,-2.1672,-2.1509,-2.1333,-2.1089,-2.1034,-2.0845,-2.0526,-2.0451,-2.0383,-2.0315,-2.0383,-2.0417,-2.0438,-2.0505,-2.0539,-2.0539,-2.0539,-2.0451,-2.0329,-2.0329,-2.0187,-1.9997,-2.0153,-2.0207,-2.0484,-2.2109,-2.2717,-2.3424,-2.6788,-3.0139,-3.2382,-3.0626,-3.2484,-3.5059,-3.4792,-3.3525,-3.1184,-2.6218,-2.3487,-2.1652,-2.0015,-1.959,-1.9522,-1.9434,-1.9481,-1.9535,-1.9535,-1.9359,-1.9128,-1.8918,-1.8375,-1.7826,-1.7378,-1.7127,0.0,-1.6435,-1.6666,-1.6754,-1.649,-1.6822,-1.6992,-1.6829,-1.7107,0.0,-1.9014,-1.8109,-1.8021,-1.8963,-1.9735,-1.9574,-1.8213,-1.8145,-2.0198,-2.4458,-2.587,-2.793,-3.0525,-3.0525,-2.9765,-2.8468,-2.8468,-2.7876,-2.6789,-2.8198,-2.9612,-3.1248,-3.2545,-3.3893,-3.5191,-3.5191,-3.5191,-3.5191,-2.3219,-2.3219,-2.3219,-2.3219,-2.3219,-2.3171,-2.2995,-2.2873,-2.271,-2.2534,-2.2167,-2.1971,-2.2127,-2.2147,-2.2215,-2.2391,-2.2656,-2.2818,-2.2818,-2.2961,-2.2866,-2.2466,-2.2269,-2.2038,-2.174,-2.1543,-2.1367,-2.1211,-2.1089,-2.0946,-2.077,-2.0627,-2.056,-2.0539,-2.0539,-2.0539,-2.0539,-2.0539,-2.0539,-2.0539,-2.0539,-2.0471,-2.0363,-2.0363,-2.0261,-2.0153,-2.0309,-2.0349,-2.072,-2.374,-2.5039,-2.6152,-2.9403,-3.2764,-3.5608,-3.6087,-3.8227,-4.0441,-4.0174,-3.7714,-3.3947,-2.8076,-2.6069,-2.499,-2.2084,-2.139,-2.1295,-2.1295,-2.0794,-2.0536,-2.0536,-1.9767,-1.9081,-1.8782,-1.8213,-1.767,-1.7188,0.0,-1.6899,-1.7369,-1.758,-1.7996,-1.8543,-1.8388,-1.8171,-1.8192,-1.7847,-1.7629,-1.7528,-1.7758,-1.887,-2.0755,-1.9117,-1.8124,-1.8124,-1.8406,-2.1119,-2.6057,-2.6837,-2.9765,-3.4544,-3.498,-3.3883,-3.1604,-3.1604,-3.0343,-2.8499,-3.0921,-3.1929,-3.2289,-3.4656,-3.5511,-3.5311,-3.5231,-3.5231,-3.5257,-2.3219,-2.3219,-2.3219,-2.3219,-2.3219,-2.313,-2.2852,-2.2798,-2.2676,-2.2411,-2.2201,-2.2127,-2.2289,-2.2303,-2.2411,-2.2696,-2.2873,-2.2974,-2.2974,-2.3117,-2.3097,-2.292,-2.2642,-2.2344,-2.2038,-2.1652,-2.1367,-2.1211,-2.1197,-2.1034,-2.077,-2.0756,-2.0668,-2.0539,-2.0539,-2.0539,-2.0539,-2.0539,-2.0539,-2.0539,-2.0539,-2.0526,-2.0505,-2.0505,-2.0417,-2.0315,-2.0451,-2.0438,-2.0349,-2.1125,-2.3164,-2.6152,-2.9403,-3.2764,-3.6111,-3.8836,-4.0091,-4.0481,-4.0401,-3.789,-3.493,-3.3673,-3.1279,-2.9197,-2.858,-2.8551,-2.8522,-2.8522,-2.6102,-2.4063,-2.4063,-2.1287,-1.8918,-1.862,-1.807,-1.748,-1.6897,0.0,-1.7958,-2.0139,-2.1118,-2.2575,-2.496,-2.311,-2.1878,-2.2026,-1.939,-1.788,-1.7989,-1.8036,-1.8321,-1.8727,-1.8465,-1.8287,-1.8287,-2.0563,-2.2159,-2.3018,-2.7844,-3.0739,-3.1604,-3.4108,-3.498,-3.4544,-3.4544,-3.4383,-3.4308,-3.475,-3.5121,-3.5426,-3.5511,-3.5752,-3.5872,-3.5378,-3.5351,-3.5525,-2.3219,-2.3219,-2.3219,-2.3219,-2.3219,-2.3151,-2.294,-2.2907,-2.2832,-2.2608,-2.2378,-2.2323,-2.2554,-2.25,-2.2567,-2.2886,-2.3042,-2.3117,-2.3117,-2.3185,-2.3151,-2.3008,-2.271,-2.2378,-2.1991,-2.1774,-2.1597,-2.1462,-2.1374,-2.1177,-2.0892,-2.0811,-2.0682,-2.0539,-2.0539,-2.0539,-2.0539,-2.0539,-2.0539,-2.0539,-2.0539,-2.0539,-2.0539,-2.0539,-2.0505,-2.0451,-2.0526,-2.0505,-2.0697,-2.2509,-2.4157,-2.642,-3.1505,-3.4222,-3.6209,-3.9483,-4.0481,-4.0481,-4.0481,-3.9483,-3.7432,-3.3472,-3.1521,-2.9589,-2.5665,-2.4773,-2.4855,-2.4771,-2.3459,-2.229,-2.2191,-2.0586,-1.9128,-1.883,-1.8145,0.0,0.0,-1.8569,-2.0125,-2.1512,-2.3682,-2.5561,-2.6962,-2.444,-2.2778,-2.2863,-1.996,-1.8145,-1.8213,-1.8213,-1.8247,-1.8321,-1.8389,-1.8423,-1.8423,-1.9534,-2.173,-2.4926,-2.7398,-3.0262,-3.345,-3.461,-3.5191,-3.5191,-3.5191,-3.5444,-3.5872,-3.5872,-3.6046,-3.6286,-3.6153,-3.6086,-3.6046,-3.5765,-3.5752,-3.5832,-2.3219,-2.3219,-2.3219,-2.3219,-2.3219,-2.3171,-2.3029,-2.3008,-2.2961,-2.2798,-2.2588,-2.2534,-2.2764,-2.271,-2.2744,-2.2995,-2.313,-2.3219,-2.3219,-2.3219,-2.3171,-2.3063,-2.273,-2.2357,-2.195,-2.1903,-2.1815,-2.1672,-2.155,-2.1333,-2.1055,-2.0892,-2.0736,-2.0594,-2.056,-2.0539,-2.0539,-2.0539,-2.0539,-2.0539,-2.0539,-2.056,-2.0594,-2.0594,-2.0594,-2.0594,-2.0627,-2.0594,-2.0913,-2.347,-2.4946,-2.642,-3.1505,-3.4222,-3.5988,-3.8592,-3.9861,-4.0481,-4.0481,-4.0655,-3.9499,-3.4178,-3.2387,-3.0549,-2.5139,-2.3223,-2.2699,-2.2562,-2.1903,-2.1224,-2.1218,-2.0165,-1.9325,-1.8993,0.0,0.0,0.0,-1.947,-2.1144,-2.2056,-2.4548,-2.6523,-2.7368,-2.4751,-2.2999,-2.2999,-2.0063,-1.8389,-1.8423,-1.8389,-1.8389,-1.8423,-1.8498,-1.8552,-1.8586,-1.8321,-2.0895,-2.6189,-2.6524,-2.9497,-3.4734,-3.5099,-3.5338,-3.5391,-3.5324,-3.5631,-3.6179,-3.6179,-3.634,-3.6607,-3.654,-3.6393,-3.6259,-3.6126,-3.6112,-3.6126,-2.3219,-2.3219,-2.3219,-2.3219,-2.3219,-2.3171,-2.3029,-2.3008,-2.2961,-2.2798,-2.2764,-2.2764,-2.2784,-2.2907,-2.2995,-2.3008,-2.313,-2.3219,-2.3219,-2.3219,-2.3219,-2.3205,-2.2784,-2.2411,-2.2093,-2.195,-2.1815,-2.1672,-2.1652,-2.1496,-2.1197,-2.1055,-2.0892,-2.0756,-2.0614,-2.0539,-2.0539,-2.0539,-2.0539,-2.0539,-2.0539,-2.0627,-2.0756,-2.0756,-2.0756,-2.077,-2.0912,-2.079,-2.056,-2.0965,-2.304,-2.5542,-2.6027,-3.0522,-3.5597,-3.5842,-3.8079,-4.0481,-4.0481,-4.0481,-4.0373,-3.9861,-3.7384,-3.4994,-3.4456,-3.1979,-2.9747,-2.9727,-2.7214,-2.4864,-2.4839,-2.1856,-1.9291,-1.885,0.0,0.0,-1.7494,-1.7875,-1.9229,-2.1874,-2.289,-2.4465,-2.7153,-2.4872,-2.3276,-2.3276,-2.0293,-1.8586,-1.8728,-1.8599,-1.8586,-1.8728,-1.8599,-1.8599,-1.8742,-1.8586,-2.0115,-2.3199,-2.5947,-2.8821,-3.2046,-3.4519,-3.5752,-3.5992,-3.5725,-3.5925,-3.6473,-3.6473,-3.6647,-3.6874,-3.662,-3.6647,-3.6794,-3.6273,-3.6246,-3.6393,-2.3219,-2.3219,-2.3219,-2.3219,-2.3219,-2.3205,-2.3151,-2.313,-2.3117,-2.3063,-2.2974,-2.2961,-2.3049,-2.3029,-2.3042,-2.313,-2.3185,-2.3219,-2.3219,-2.3219,-2.3137,-2.2961,-2.2608,-2.2323,-2.2113,-2.195,-2.1815,-2.1672,-2.1672,-2.1475,-2.1068,-2.1021,-2.0858,-2.0627,-2.056,-2.0539,-2.0539,-2.0539,-2.0539,-2.0539,-2.0648,-2.0716,-2.079,-2.0878,-2.0912,-2.0912,-2.098,-2.0858,-2.0702,-2.0756,-2.1548,-2.3164,-2.7271,-3.0388,-3.3236,-3.7347,-3.9483,-4.0481,-4.0481,-4.0615,-4.0207,-3.8008,-3.6587,-3.4662,-3.0284,-2.828,-2.6788,-2.4787,-2.3236,-2.2302,-2.2205,-2.0926,-2.0363,-2.2088,0.0,-2.2188,-2.3994,-2.4209,-2.4676,-2.5674,-2.6006,-2.6681,-2.7707,-2.5045,-2.3369,-2.3479,-2.0464,-1.8742,-1.8905,-1.885,-1.885,-1.8905,-1.8938,-1.8884,-1.8762,-1.8708,-2.023,-2.322,-2.5888,-2.8807,-3.1966,-3.4708,-3.5965,-3.6059,-3.5952,-3.6126,-3.65,-3.65,-3.6687,-3.6941,-3.6834,-3.6834,-3.6901,-3.6687,-3.6687,-3.6727,-2.3219,-2.3219,-2.3219,-2.3219,-2.3219,-2.3219,-2.3219,-2.3219,-2.3219,-2.3219,-2.313,-2.3117,-2.3205,-2.313,-2.3117,-2.3219,-2.3219,-2.3219,-2.3219,-2.313,-2.2974,-2.273,-2.2466,-2.2249,-2.2038,-2.1937,-2.1815,-2.1672,-2.1672,-2.1496,-2.1143,-2.1034,-2.0892,-2.0682,-2.0573,-2.0539,-2.0539,-2.0539,-2.0573,-2.0627,-2.0736,-2.0824,-2.0933,-2.1021,-2.1068,-2.1068,-2.1123,-2.1021,-2.0845,-2.0892,-2.1419,-2.3002,-2.763,-3.0438,-3.3135,-3.8836,-4.0481,-4.0481,-4.0481,-4.0615,-4.0207,-3.7653,-3.6476,-3.4561,-2.9671,-2.778,-2.642,-2.4047,-2.3669,-2.363,-2.3528,-2.3348,-2.3892,-2.5945,-2.587,-2.6262,-2.8413,-2.7573,-2.6816,-2.6816,-2.5839,-2.5202,-2.5202,-2.3189,-2.1887,-2.2014,-1.9965,-1.8816,-1.8918,-1.8972,-1.8993,-1.8993,-1.9169,-1.9149,-1.8905,-1.885,-2.0306,-2.3326,-2.6089,-2.9042,-3.2214,-3.4991,-3.6259,-3.634,-3.6246,-3.6366,-3.6647,-3.6647,-3.6834,-3.7088,-3.6981,-3.7008,-3.7048,-3.6981,-3.6941,-3.6901,-2.3219,-2.3219,-2.3219,-2.3219,-2.3219,-2.3219,-2.3219,-2.3219,-2.3219,-2.3219,-2.3219,-2.3219,-2.3219,-2.3219,-2.3219,-2.3219,-2.3219,-2.3219,-2.3219,-2.294,-2.271,-2.2554,-2.2411,-2.2201,-2.1882,-2.1882,-2.1815,-2.1672,-2.1672,-2.1584,-2.1421,-2.1143,-2.1001,-2.098,-2.0682,-2.0539,-2.0539,-2.0539,-2.0627,-2.077,-2.077,-2.0946,-2.1211,-2.1211,-2.1211,-2.1231,-2.1387,-2.1245,-2.1021,-2.1157,-2.319,-2.5821,-2.5829,-3.0309,-3.6209,-3.9483,-4.0481,-4.0481,-4.0481,-4.0481,-4.0481,-4.0481,-3.7983,-3.5474,-3.5474,-3.2989,-3.0522,-3.0522,-3.0522,-3.0522,-3.0522,-3.034,-3.017,-2.9843,-2.9698,-2.9498,-2.9163,-2.6327,-2.422,-2.4102,-2.1054,-1.8993,-1.8993,-1.885,-1.8762,-1.8762,-1.8762,-1.8762,-1.8762,-1.8905,-1.8993,-1.8993,-1.9271,-1.9359,-1.9203,-1.9061,-2.0532,-2.3326,-2.6396,-2.955,-3.2508,-3.5274,-3.6647,-3.6941,-3.6647,-3.6687,-3.6941,-3.6941,-3.7128,-3.7342,-3.7048,-3.7128,-3.7342,-3.7048,-3.6941,-3.6901,-2.3219,-2.3219,-2.3219,-2.3219,-2.3219,-2.3219,-2.3219,-2.3219,-2.3219,-2.3219,-2.3219,-2.3219,-2.3219,-2.3219,-2.3219,-2.3219,-2.3219,-2.3185,-2.3083,-2.2886,-2.2676,-2.2411,-2.216,-2.1971,-2.1882,-2.1672,-2.155,-2.1509,-2.1509,-2.1387,-2.1123,-2.1034,-2.0878,-2.0682,-2.0573,-2.0539,-2.0539,-2.0668,-2.0736,-2.079,-2.1001,-2.1143,-2.1231,-2.1333,-2.1367,-2.1367,-2.1421,-2.1319,-2.1157,-2.1197,-2.1727,-2.3207,-2.7741,-3.3682,-3.9214,-4.0238,-4.0481,-4.0481,-4.0481,-4.0481,-4.0481,-4.0481,-3.9726,-3.8336,-3.5988,-3.4725,-3.337,-3.1019,-3.0522,-3.0522,-3.0522,-3.0462,-3.105,-3.3071,-3.3443,-3.3971,-3.584,-3.3371,-3.0472,-2.7932,-2.4567,-2.1585,-1.9372,-1.8905,-1.885,-1.9061,-1.9081,-1.8972,-1.8782,-1.8905,-1.8993,-1.8993,-1.9271,-1.9359,-1.9203,-2.1501,-2.3077,-2.3823,-2.8969,-3.1851,-3.2756,-3.5583,-3.6861,-3.6941,-3.6834,-3.6861,-3.6941,-3.6941,-3.6981,-3.7048,-3.6981,-3.6981,-3.7048,-3.6981,-3.6941,-3.6941,-2.3219,-2.3219,-2.3219,-2.3219,-2.3219,-2.3219,-2.3219,-2.3219,-2.3219,-2.3219,-2.3219,-2.3219,-2.3219,-2.3219,-2.3219,-2.3219,-2.3219,-2.3185,-2.3097,-2.2961,-2.2798,-2.2601,-2.2255,-2.1991,-2.1794,-2.1618,-2.1496,-2.1441,-2.1441,-2.1319,-2.1089,-2.1021,-2.0878,-2.0627,-2.0573,-2.0539,-2.0539,-2.0648,-2.0716,-2.079,-2.1034,-2.1157,-2.1231,-2.1387,-2.1441,-2.1441,-2.1441,-2.1387,-2.1438,-2.2856,-2.5063,-2.8077,-3.3306,-3.7594,-4.0655,-4.0655,-4.0548,-4.0481,-4.0481,-4.0481,-4.0481,-4.0481,-4.0481,-3.9956,-3.7983,-3.7469,-3.6956,-3.486,-3.4479,-3.4479,-3.4479,-3.4479,-3.5071,-3.6869,-3.7234,-3.7651,-3.9058,-3.6534,-3.374,-3.1364,-2.8031,-2.4641,-2.1418,-2.084,-2.0277,-1.9131,-1.9027,-1.8959,-1.8782,-1.8905,-1.9006,-1.9081,-1.9305,-1.9999,-2.1265,-2.4563,-2.5425,-2.4102,-3.0097,-3.298,-3.2886,-3.5828,-3.7048,-3.6941,-3.6941,-3.6941,-3.6941,-3.6941,-3.7008,-3.7128,-3.7128,-3.7128,-3.7128,-3.7128,-3.7048,-3.6941,-2.3219,-2.3219,-2.3219,-2.3219,-2.3219,-2.3219,-2.3219,-2.3219,-2.3219,-2.3219,-2.3219,-2.3219,-2.3219,-2.3219,-2.3219,-2.3219,-2.3219,-2.3219,-2.3205,-2.3083,-2.3008,-2.2995,-2.2601,-2.2181,-2.174,-2.1692,-2.1597,-2.1455,-2.1441,-2.1367,-2.1211,-2.1068,-2.0912,-2.077,-2.0614,-2.0539,-2.0539,-2.056,-2.0648,-2.079,-2.0946,-2.1089,-2.1211,-2.1367,-2.1421,-2.1421,-2.1421,-2.156,-2.2348,-2.587,-3.1288,-3.7096,-3.9923,-4.0916,-4.0949,-4.0909,-4.0735,-4.0508,-4.0481,-4.0481,-4.0481,-4.0481,-4.0481,-4.0481,-4.0481,-4.0481,-4.0481,-4.0481,-4.0481,-4.0481,-4.0481,-4.0481,-4.0481,-4.0481,-4.0481,-4.0294,-3.9706,-3.7047,-3.4857,-3.4029,-3.1243,-2.805,-2.4698,-2.429,-2.2842,-1.9806,-1.9363,-1.9363,-1.9567,-1.9468,-1.9393,-1.9552,-2.0049,-2.1631,-2.4451,-2.7888,-2.8031,-2.4967,-3.0869,-3.3511,-3.3374,-3.6095,-3.7195,-3.6941,-3.6941,-3.6941,-3.6941,-3.6941,-3.7088,-3.7342,-3.7342,-3.7342,-3.7342,-3.7342,-3.7155,-3.6941,-2.3219,-2.3219,-2.3219,-2.3219,-2.3219,-2.3219,-2.3219,-2.3219,-2.3219,-2.3219,-2.3219,-2.3219,-2.3219,-2.3219,-2.3219,-2.3219,-2.3219,-2.3171,-2.3063,-2.3029,-2.2961,-2.2832,-2.2744,-2.2534,-2.2201,-2.1848,-2.1652,-2.1618,-2.1496,-2.1367,-2.1211,-2.1068,-2.0912,-2.077,-2.0614,-2.0539,-2.0539,-2.0668,-2.0736,-2.079,-2.1055,-2.1123,-2.1055,-2.1211,-2.1265,-2.1265,-2.1265,-2.3017,-2.6001,-2.9498,-3.3359,-3.674,-3.7348,-3.9312,-4.1203,-4.0976,-4.0869,-4.0762,-4.0548,-4.0481,-4.0481,-4.0481,-4.0481,-4.0481,-4.0481,-4.0481,-4.0481,-4.0481,-4.0481,-4.0481,-4.0481,-4.0481,-4.0481,-4.0481,-4.0481,-4.0361,-4.0,-3.9111,-3.7504,-3.4631,-3.3349,-3.1353,-2.7843,-2.7542,-2.7019,-2.5959,-2.4053,-2.373,-2.5835,-2.3705,-2.2494,-2.2809,-2.5193,-2.5925,-2.4758,-3.0221,-3.2445,-3.1746,-3.5226,-3.6736,-3.6671,-3.69,-3.7008,-3.6941,-3.6941,-3.6941,-3.6941,-3.6941,-3.6981,-3.7048,-3.7048,-3.7048,-3.7048,-3.7048,-3.6981,-3.6941,-2.3219,-2.3219,-2.3219,-2.3219,-2.3219,-2.3219,-2.3219,-2.3219,-2.3219,-2.3219,-2.3219,-2.3259,-2.3327,-2.3259,-2.3219,-2.3219,-2.3219,-2.3185,-2.3117,-2.3117,-2.3083,-2.2995,-2.292,-2.2784,-2.2554,-2.2113,-2.1815,-2.1672,-2.1509,-2.1367,-2.1211,-2.1068,-2.0912,-2.077,-2.0614,-2.0539,-2.0539,-2.0627,-2.0702,-2.079,-2.1021,-2.1109,-2.124,-2.3075,-2.379,-2.4045,-2.5714,-2.8688,-3.2129,-3.3948,-3.6721,-3.9437,-3.93,-4.0358,-4.1497,-4.1203,-4.1016,-4.0842,-4.0548,-4.0481,-4.0481,-4.0481,-4.0481,-4.0481,-4.0481,-4.0481,-4.0481,-4.0481,-4.0481,-4.0481,-4.0481,-4.0481,-4.0481,-4.0481,-4.0481,-4.0361,-4.0067,-3.9893,-3.9032,-3.6895,-3.6488,-3.4796,-3.1122,-2.9344,-2.8217,-2.7894,-2.6597,-2.6491,-2.778,-2.6491,-2.577,-2.6057,-2.7795,-2.8885,-2.924,-3.2332,-3.4639,-3.6196,-3.742,-3.7956,-3.7809,-3.7342,-3.7088,-3.6941,-3.6941,-3.6941,-3.6941,-3.6941,-3.6941,-3.6941,-3.7088,-3.7048,-3.6941,-3.7088,-3.7048,-3.6901,-2.3219,-2.3219,-2.3219,-2.3219,-2.3219,-2.3219,-2.3219,-2.3219,-2.3219,-2.3219,-2.3219,-2.3273,-2.3395,-2.3293,-2.3239,-2.3259,-2.3239,-2.3219,-2.3219,-2.3219,-2.3219,-2.3219,-2.3117,-2.2974,-2.2818,-2.2432,-2.2059,-2.1706,-2.153,-2.1367,-2.1245,-2.1109,-2.0967,-2.0845,-2.0668,-2.0573,-2.0573,-2.0573,-2.0648,-2.079,-2.0967,-2.1473,-2.2355,-2.5355,-2.6991,-2.7775,-3.0779,-3.4348,-3.76,-3.8248,-4.035,-4.2619,-4.2365,-4.2111,-4.179,-4.1456,-4.1163,-4.0909,-4.0588,-4.0481,-4.0481,-4.0481,-4.0481,-4.0481,-4.0481,-4.0481,-4.0481,-4.0481,-4.0481,-4.0481,-4.0481,-4.0481,-4.0481,-4.0481,-4.0481,-4.0361,-4.0067,-4.0027,-3.9813,-3.9225,-3.9052,-3.7619,-3.4402,-3.16,-2.9747,-2.9459,-2.9028,-2.8935,-2.9459,-2.9164,-2.9052,-2.9322,-3.0092,-3.1624,-3.3982,-3.4416,-3.6092,-3.8798,-3.8437,-3.8143,-3.7889,-3.7529,-3.7235,-3.7008,-3.6967,-3.6941,-3.6941,-3.6941,-3.6941,-3.6967,-3.7155,-3.7128,-3.6967,-3.7195,-3.7155,-3.6901,-2.3219,-2.3219,-2.3219,-2.3219,-2.3219,-2.3219,-2.3219,-2.3219,-2.3219,-2.3219,-2.3219,-2.3219,-2.3259,-2.3239,-2.3273,-2.3415,-2.3293,-2.3219,-2.3219,-2.3219,-2.3219,-2.3219,-2.3205,-2.313,-2.2974,-2.2784,-2.2411,-2.1848,-2.1584,-2.1421,-2.1408,-2.1245,-2.1177,-2.1143,-2.0858,-2.0736,-2.0736,-2.0736,-2.0756,-2.079,-2.1068,-2.292,-2.5644,-2.6198,-2.8331,-3.1039,-3.1746,-3.4435,-3.8263,-4.1314,-4.2474,-4.2659,-4.2619,-4.2405,-4.2031,-4.1483,-4.131,-4.1163,-4.0615,-4.0481,-4.0481,-4.0481,-4.0481,-4.0481,-4.0481,-4.0481,-4.0481,-4.0481,-4.0481,-4.0481,-4.0481,-4.0481,-4.0481,-4.0481,-4.0481,-4.0361,-4.0067,-4.0027,-3.9813,-3.9225,-3.8691,-3.8122,-3.7282,-3.6736,-3.6276,-3.5746,-3.3497,-3.3183,-3.5583,-3.3216,-3.1988,-3.2448,-3.5154,-3.5911,-3.4371,-3.6815,-3.8385,-3.9078,-3.8517,-3.8223,-3.8183,-3.7635,-3.7342,-3.7315,-3.7048,-3.6941,-3.6941,-3.6941,-3.6941,-3.6901,-3.6727,-3.6754,-3.6941,-3.6981,-3.6981,-3.6941,-2.3219,-2.3219,-2.3219,-2.3219,-2.3219,-2.3219,-2.3219,-2.3219,-2.3219,-2.3219,-2.3219,-2.3259,-2.3347,-2.3347,-2.3347,-2.3327,-2.3259,-2.3219,-2.3219,-2.3219,-2.3219,-2.3219,-2.3219,-2.3151,-2.3008,-2.2852,-2.2567,-2.2147,-2.1916,-2.1686,-2.1441,-2.1367,-2.1299,-2.1197,-2.1001,-2.0892,-2.0892,-2.0892,-2.0946,-2.1171,-2.3445,-2.5371,-2.7087,-3.1317,-3.3731,-3.5473,-3.7695,-3.952,-4.1322,-4.2794,-4.3233,-4.31,-4.2766,-4.2592,-4.2365,-4.175,-4.1483,-4.1229,-4.0842,-4.0588,-4.0481,-4.0481,-4.0481,-4.0481,-4.0481,-4.0481,-4.0481,-4.0481,-4.0481,-4.0481,-4.0481,-4.0481,-4.0481,-4.0481,-4.0481,-4.0441,-4.0294,-4.0294,-4.0067,-3.9493,-3.9012,-3.8584,-3.8103,-3.7929,-3.7702,-3.7448,-3.5992,-3.5751,-3.707,-3.5914,-3.5331,-3.5484,-3.7194,-3.7548,-3.6612,-3.7981,-3.8798,-3.8905,-3.8651,-3.833,-3.7996,-3.7569,-3.7301,-3.7128,-3.7008,-3.6941,-3.6941,-3.6941,-3.6941,-3.6941,-3.6794,-3.6834,-3.6941,-3.6941,-3.6941,-3.6901]},{"header":{"parameterUnit":"m.s-1","parameterCategory":1,"la1":30.6,"la2":28.766,"lo1":-90.7593,"lo2":-88.6598,"dy":0.0162,"dx":0.0183,"nx":116,"ny":114,"refTime":"2023-08-21T06:00:00:Z","depth":0,"parameterNumber":3,"parameterNumberName":"V-component_of_WINDS"},"data":[0.0,0.0,0.0,0.0,0.0,0.0,0.0,0.0,0.0,0.0,0.0,0.0,0.0,0.0,0.0,0.0,0.0,0.0,0.0,0.0,0.0,0.0,0.0,0.0,0.0,0.0,0.0,0.0,0.0,0.0,0.0,0.0,0.0,0.0,0.0,0.0,0.0,0.0,0.0,0.0,0.0,0.0,0.0,0.0,0.0,0.0,0.0,0.0,0.0,0.0,0.0,0.0,0.0,0.0,0.0,0.0,0.0,0.0,0.0,0.0,0.0,0.0,0.0,0.0,0.0,0.0,0.0,0.0,0.0,0.0,0.0,0.0,0.0,0.0,0.0,0.0,0.0,0.0,0.0,0.0,0.0,0.0,0.0,0.0,0.0,0.0,0.0,0.0,0.0,0.0,0.0,0.0,0.0,0.0,0.0,0.0,0.0,0.0,0.0,0.0,0.0,0.0,0.0,0.0,0.0,0.0,0.0,0.0,0.0,0.0,0.0,0.0,0.0,0.0,0.0,0.0,0.0,0.0,0.0,0.0,0.0,0.0,0.0,0.0,0.0,0.0,0.0,0.0,0.0,0.0,0.0,0.0,0.0,0.0,0.0,0.0,0.0,0.0,0.0,0.0,0.0,0.0,0.0,0.0,0.0,0.0,0.0,0.0,0.0,0.0,0.0,0.0,0.0,0.0,0.0,0.0,0.0,0.0,0.0,0.0,0.0,0.0,0.0,0.0,0.0,0.0,0.0,0.0,0.0,0.0,0.0,0.0,0.0,0.0,0.0,0.0,0.0,0.0,0.0,0.0,0.0,0.0,0.0,0.0,0.0,0.0,0.0,0.0,0.0,0.0,0.0,0.0,0.0,0.0,0.0,0.0,0.0,0.0,0.0,0.0,0.0,0.0,0.0,0.0,0.0,0.0,0.0,0.0,0.0,0.0,0.0,0.0,0.0,0.0,0.0,0.0,0.0,0.0,0.0,0.0,0.0,0.0,0.0,0.0,0.0,0.0,0.0,0.0,0.0,0.0,0.0,0.0,0.0,0.0,0.0,0.0,0.0,0.0,0.0,0.0,0.0,0.0,0.0,0.0,0.0,0.0,0.0,0.0,0.0,0.0,0.0,0.0,0.0,0.0,0.0,0.0,0.0,0.0,0.0,0.0,0.0,0.0,0.0,0.0,0.0,0.0,0.0,0.0,0.0,0.0,0.0,0.0,0.0,0.0,0.0,0.0,0.0,0.0,0.0,0.0,0.0,0.0,0.0,0.0,0.0,0.0,0.0,0.0,0.0,0.0,0.0,0.0,0.0,0.0,0.0,0.0,0.0,0.0,0.0,0.0,0.0,0.0,0.0,0.0,0.0,0.0,0.0,0.0,0.0,0.0,0.0,0.0,0.0,0.0,0.0,0.0,0.0,0.0,0.0,0.0,0.0,0.0,0.0,0.0,0.0,0.0,0.0,0.0,0.0,0.0,0.0,0.0,0.0,0.0,0.0,0.0,0.0,0.0,0.0,0.0,0.0,0.0,0.0,0.0,0.0,0.0,0.0,0.0,0.0,0.0,0.0,0.0,0.0,0.0,0.0,0.0,0.0,0.0,0.0,0.0,0.0,0.0,0.0,0.0,0.0,0.0,0.0,0.0,0.0,0.0,0.0,0.0,0.0,0.0,0.0,0.0,0.0,0.0,0.0,0.0,0.0,0.0,0.0,0.0,0.0,0.0,0.0,0.0,0.0,0.0,0.0,0.0,0.0,0.0,0.0,0.0,0.0,0.0,0.0,0.0,0.0,0.0,0.0,0.0,0.0,0.0,0.0,0.0,0.0,0.0,0.0,0.0,0.0,0.0,0.0,0.0,0.0,0.0,0.0,0.0,0.0,0.0,0.0,0.0,0.0,0.0,0.0,0.0,0.0,0.0,0.0,0.0,0.0,0.0,0.0,0.0,0.0,0.0,0.0,0.0,0.0,0.0,0.0,0.0,0.0,0.0,0.0,0.0,0.0,0.0,0.0,0.0,0.0,0.0,0.0,0.0,0.0,0.0,0.0,0.0,0.0,0.0,0.0,0.0,0.0,0.0,0.0,0.0,0.0,0.0,0.0,0.0,0.0,0.0,0.0,0.0,0.0,0.0,0.0,0.0,0.0,0.0,0.0,0.0,0.0,0.0,0.0,0.0,0.0,0.0,0.0,0.0,0.0,0.0,0.0,0.0,0.0,0.0,0.0,0.0,0.0,0.0,0.0,0.0,0.0,0.0,0.0,0.0,0.0,0.0,0.0,0.0,0.0,0.0,0.0,0.0,0.0,0.0,0.0,0.0,0.0,0.0,0.0,0.0,0.0,0.0,0.0,0.0,0.0,0.0,0.0,0.0,0.0,0.0,0.0,0.0,0.0,0.0,0.0,0.0,0.0,0.0,0.0,0.0,0.0,0.0,0.0,0.0,0.0,0.0,0.0,0.0,0.0,0.0,0.0,0.0,0.0,0.0,0.0,0.0,0.0,0.0,0.0,0.0,0.0,0.0,0.0,0.0,0.0,0.0,0.0,0.0,0.0,0.0,0.0,0.0,0.0,0.0,0.0,0.0,0.0,0.0,0.0,0.0,0.0,0.0,0.0,0.0,0.0,0.0,0.0,0.0,0.0,0.0,0.0,0.0,0.0,0.0,0.0,0.0,0.0,0.0,0.0,0.0,0.0,0.0,0.0,0.0,0.0,0.0,0.0,0.0,0.0,0.0,0.0,0.0,0.0,0.0,0.0,0.0,0.0,0.0,0.0,0.0,0.0,0.0,0.0,0.0,0.0,0.0,0.0,0.0,0.0,0.0,0.0,0.0,0.0,0.0,0.0,0.0,0.0,0.0,0.0,0.0,0.0,0.0,0.0,0.0,0.0,0.0,0.0,0.0,0.0,0.0,0.0,0.0,0.0,0.0,0.0,0.0,0.0,0.0,0.0,0.0,0.0,0.0,0.0,0.0,0.0,0.0,0.0,0.0,0.0,0.0,0.0,0.0,0.0,0.0,0.0,0.0,0.0,0.0,0.0,0.0,0.0,0.0,0.0,0.0,0.0,0.0,0.0,0.0,0.0,0.0,0.0,0.0,0.0,0.0,0.0,0.0,0.0,0.0,0.0,0.0,0.0,0.0,0.0,0.0,0.0,0.0,0.0,0.0,0.0,0.0,0.0,0.0,0.0,0.0,0.0,0.0,0.0,0.0,0.0,0.0,0.0,0.0,0.0,0.0,0.0,0.0,0.0,0.0,0.0,0.0,0.0,0.0,0.0,0.0,0.0,0.0,0.0,0.0,0.0,0.0,0.0,0.0,0.0,0.0,0.0,0.0,0.0,0.0,0.0,0.0,0.0,0.0,0.0,0.0,0.0,0.0,0.0,0.0,0.0,0.0,0.0,0.0,0.0,0.0,0.0,0.0,0.0,0.0,0.0,0.0,0.0,0.0,0.0,0.0,0.0,0.0,0.0,0.0,0.0,0.0,0.0,0.0,0.0,0.0,0.0,0.0,0.0,0.0,0.0,0.0,0.0,0.0,0.0,0.0,0.0,0.0,0.0,0.0,0.0,0.0,0.0,0.0,0.0,0.0,0.0,0.0,0.0,0.0,0.0,0.0,0.0,0.0,0.0,0.0,0.0,0.0,0.0,0.0,0.0,0.0,0.0,0.0,0.0,0.0,0.0,0.0,0.0,0.0,0.0,0.0,0.0,0.0,0.0,0.0,0.0,0.0,0.0,0.0,0.0,0.0,0.0,0.0,0.0,0.0,0.0,0.0,0.0,0.0,0.0,0.0,0.0,0.0,0.0,0.0,0.0,0.0,0.0,0.0,0.0,0.0,0.0,0.0,0.0,0.0,0.0,0.0,0.0,0.0,0.0,0.0,0.0,0.0,0.0,0.0,0.0,0.0,0.0,0.0,0.0,0.0,0.0,0.0,0.0,0.0,0.0,0.0,0.0,0.0,0.0,0.0,0.0,0.0,0.0,0.0,0.0,0.0,0.0,0.0,0.0,0.0,0.0,0.0,0.0,0.0,0.0,0.0,0.0,0.0,0.0,0.0,0.0,0.0,0.0,0.0,0.0,0.0,0.0,0.0,0.0,0.0,0.0,0.0,0.0,0.0,0.0,0.0,0.0,0.0,0.0,0.0,0.0,0.0,0.0,0.0,0.0,0.0,0.0,0.0,0.0,0.0,0.0,0.0,0.0,0.0,0.0,0.0,0.0,0.0,0.0,0.0,0.0,0.0,0.0,0.0,0.0,0.0,0.0,0.0,0.0,0.0,0.0,0.0,0.0,0.0,0.0,0.0,0.0,0.0,0.0,0.0,0.0,0.0,0.0,0.0,0.0,0.0,0.0,0.0,0.0,0.0,0.0,0.0,0.0,0.0,0.0,0.0,0.0,0.0,0.0,0.0,0.0,0.0,0.0,0.0,0.0,0.0,0.0,0.0,0.0,0.0,0.0,0.0,0.0,0.0,0.0,0.0,0.0,0.0,0.0,0.0,0.0,0.0,0.0,0.0,0.0,0.0,0.0,0.0,0.0,0.0,0.0,0.0,0.0,0.0,0.0,0.0,0.0,0.0,0.0,0.0,0.0,0.0,0.0,0.0,0.0,0.0,0.0,0.0,0.0,0.0,0.0,0.0,0.0,0.0,0.0,0.0,0.0,0.0,0.0,0.0,0.0,0.0,0.0,0.0,0.0,0.0,0.0,0.0,0.0,0.0,0.0,0.0,0.0,0.0,0.0,0.0,0.0,0.0,0.0,0.0,0.0,0.0,0.0,0.0,0.0,0.0,0.0,0.0,0.0,0.0,0.0,0.0,0.0,0.0,0.0,0.0,0.0,0.0,0.0,0.0,0.0,0.0,0.0,0.0,0.0,0.0,0.0,0.0,0.0,0.0,0.0,0.0,0.0,0.0,0.0,0.0,0.0,0.0,0.0,0.0,0.0,0.0,0.0,0.0,0.0,0.0,0.0,0.0,0.0,0.0,0.0,0.0,0.0,0.0,0.0,0.0,0.0,0.0,0.0,0.0,0.0,0.0,0.0,0.0,0.0,0.0,0.0,0.0,0.0,0.0,0.0,0.0,0.0,0.0,0.0,0.0,0.0,0.0,0.0,0.0,0.0,0.0,0.0,0.0,0.0,0.0,0.0,0.0,0.0,0.0,0.0,0.0,0.0,0.0,0.0,0.0,0.0,0.0,0.0,0.0,0.0,0.0,0.0,0.0,0.0,0.0,0.0,0.0,0.0,0.0,0.0,0.0,0.0,0.0,0.0,0.0,0.0,0.0,0.0,0.0,0.0,0.0,0.0,0.0,0.0,0.0,0.0,0.0,0.0,0.0,0.0,0.0,0.0,0.0,0.0,0.0,0.0,0.0,0.0,0.0,0.0,0.0,0.0,0.0,0.0,0.0,0.0,0.0,0.0,0.0,0.0,0.0,0.0,0.0,0.0,0.0,0.0,0.0,0.0,0.0,0.0,0.0,0.0,0.0,0.0,0.0,0.0,0.0,0.0,0.0,0.0,0.0,0.0,0.0,0.0,0.0,0.0,0.0,0.0,0.0,0.0,0.0,0.0,0.0,0.0,0.0,0.0,0.0,0.0,0.0,0.0,0.0,0.0,0.0,0.0,0.0,0.0,0.0,0.0,0.0,0.0,0.0,0.0,0.0,0.0,0.0,0.0,0.0,0.0,0.0,0.0,0.0,0.0,0.0,0.0,0.0,0.0,0.0,0.0,0.0,0.0,0.0,0.0,0.0,0.0,0.0,0.0,0.0,0.0,0.0,0.0,0.0,0.0,0.0,0.0,0.0,0.0,0.0,0.0,0.0,0.0,0.0,0.0,0.0,0.0,0.0,0.0,0.0,0.0,0.0,0.0,0.0,0.0,0.0,0.0,0.0,0.0,0.0,0.0,0.0,0.0,0.0,0.0,0.0,0.0,0.0,0.0,0.0,0.0,0.0,0.0,0.0,0.0,0.0,0.0,0.0,0.0,0.0,0.0,0.0,0.0,0.0,0.0,0.0,0.0,0.0,0.0,0.0,0.0,0.0,0.0,0.0,0.0,0.0,0.0,0.0,0.0,0.0,0.0,0.0,0.0,0.0,0.0,0.0,0.0,0.0,5.4516,5.2009,0.0,0.0,0.0,0.0,0.0,0.0,0.0,0.0,0.0,0.0,0.0,0.0,0.0,0.0,0.0,0.0,0.0,0.0,0.0,0.0,0.0,0.0,0.0,0.0,0.0,0.0,0.0,0.0,0.0,0.0,0.0,0.0,0.0,0.0,0.0,0.0,0.0,5.4465,5.4939,5.5138,5.5136,5.5004,5.5235,5.5685,0.0,0.0,0.0,0.0,0.0,0.0,0.0,0.0,0.0,0.0,0.0,0.0,0.0,0.0,0.0,0.0,0.0,0.0,0.0,0.0,0.0,0.0,0.0,0.0,0.0,0.0,0.0,0.0,0.0,0.0,0.0,0.0,0.0,0.0,0.0,0.0,0.0,0.0,0.0,0.0,0.0,0.0,0.0,0.0,0.0,0.0,0.0,0.0,0.0,0.0,0.0,0.0,0.0,0.0,0.0,0.0,0.0,0.0,0.0,0.0,0.0,0.0,0.0,0.0,0.0,0.0,0.0,0.0,0.0,0.0,5.9001,5.6679,0.0,0.0,0.0,0.0,0.0,0.0,0.0,0.0,0.0,0.0,0.0,0.0,0.0,0.0,0.0,0.0,0.0,0.0,0.0,0.0,0.0,0.0,0.0,0.0,5.8437,5.8437,5.8437,0.0,0.0,0.0,0.0,0.0,0.0,0.0,0.0,5.6125,5.6427,5.702,5.685,5.6883,5.7117,5.7872,5.8097,5.7881,5.7983,0.0,0.0,0.0,0.0,0.0,0.0,0.0,0.0,0.0,0.0,0.0,0.0,0.0,0.0,0.0,0.0,0.0,0.0,0.0,0.0,0.0,0.0,0.0,0.0,0.0,0.0,0.0,0.0,0.0,0.0,0.0,0.0,0.0,0.0,0.0,0.0,0.0,0.0,0.0,0.0,0.0,0.0,0.0,0.0,0.0,0.0,0.0,0.0,0.0,0.0,0.0,0.0,0.0,0.0,0.0,0.0,0.0,0.0,0.0,0.0,0.0,0.0,0.0,6.9165,6.9274,6.8371,6.8843,6.8336,6.6917,6.4808,6.3071,6.1557,5.9781,0.0,0.0,0.0,0.0,0.0,0.0,0.0,0.0,0.0,0.0,0.0,0.0,0.0,0.0,0.0,0.0,0.0,0.0,0.0,0.0,0.0,6.0089,6.0089,6.0089,6.0089,6.0041,0.0,0.0,0.0,0.0,0.0,0.0,5.7895,5.7761,5.7805,5.8033,6.003,6.1619,6.2747,6.3549,6.3125,6.157,5.9081,5.8027,5.8094,0.0,0.0,0.0,0.0,0.0,0.0,0.0,0.0,0.0,0.0,0.0,0.0,0.0,0.0,0.0,0.0,0.0,0.0,0.0,0.0,0.0,0.0,0.0,0.0,0.0,0.0,0.0,0.0,0.0,0.0,0.0,0.0,0.0,0.0,0.0,0.0,0.0,0.0,0.0,0.0,0.0,6.25,6.4151,0.0,0.0,0.0,0.0,0.0,0.0,0.0,0.0,0.0,0.0,0.0,0.0,0.0,6.8503,6.9307,7.2778,7.4227,7.3647,7.6557,7.7152,7.5665,7.4499,7.3859,7.3586,7.2592,0.0,6.5544,6.3234,0.0,0.0,0.0,0.0,0.0,0.0,0.0,0.0,0.0,0.0,0.0,0.0,0.0,0.0,0.0,0.0,0.0,0.0,0.0,0.0,0.0,6.1484,6.2094,6.2863,6.3785,6.4056,6.3414,0.0,0.0,0.0,0.0,5.9984,6.0103,5.9591,6.0022,6.1477,6.4273,6.5776,6.5968,6.6309,6.5817,6.4633,6.3176,6.1342,5.9322,5.9776,0.0,0.0,0.0,0.0,0.0,0.0,0.0,0.0,0.0,0.0,0.0,0.0,0.0,0.0,0.0,0.0,0.0,0.0,0.0,0.0,0.0,0.0,0.0,0.0,0.0,0.0,0.0,0.0,0.0,0.0,0.0,0.0,0.0,0.0,0.0,0.0,0.0,0.0,0.0,6.3885,6.5731,6.5951,6.5743,6.4987,0.0,0.0,0.0,0.0,0.0,0.0,0.0,0.0,0.0,7.2323,7.4412,7.6082,7.7366,7.9517,8.0192,7.9378,8.0781,8.0606,7.8991,7.8326,7.776,7.7312,7.6938,7.5578,7.332,6.9295,6.7781,6.7707,0.0,0.0,0.0,0.0,6.2047,6.1825,0.0,0.0,0.0,0.0,0.0,0.0,0.0,0.0,0.0,0.0,0.0,0.0,6.2951,6.3931,6.5013,6.625,6.7514,6.7969,6.7373,6.6151,0.0,6.3739,6.2322,6.1765,6.2232,6.2241,6.3423,6.5843,6.8639,6.9785,6.9406,6.962,6.9271,6.8497,6.79,6.5439,6.1722,6.1954,6.0928,5.9249,0.0,0.0,0.0,0.0,0.0,0.0,0.0,0.0,0.0,0.0,0.0,0.0,0.0,0.0,0.0,0.0,0.0,0.0,0.0,0.0,0.0,0.0,0.0,0.0,0.0,0.0,0.0,0.0,0.0,0.0,0.0,0.0,0.0,0.0,0.0,0.0,0.0,6.8356,6.9766,6.8673,6.981,6.9397,0.0,0.0,0.0,0.0,0.0,0.0,7.3222,7.5115,7.7063,7.91,8.112,8.2761,8.3998,8.4784,8.4816,8.421,8.421,8.3316,8.1703,8.1504,8.0754,7.9523,7.9523,7.941,7.8827,7.4297,7.2183,7.159,6.958,6.8177,6.7376,6.7689,6.7643,6.7486,0.0,0.0,0.0,0.0,0.0,0.0,0.0,0.0,0.0,0.0,0.0,6.5292,6.6843,6.8232,6.9448,7.0337,7.0509,7.0869,7.1628,6.8637,6.6907,6.7128,6.5516,6.4406,6.3991,6.6192,6.8471,7.0838,7.2565,7.3707,7.4242,7.5033,7.4904,7.3925,7.2436,6.9601,6.5772,6.4266,6.3098,6.2212,6.1744,0.0,0.0,0.0,0.0,0.0,0.0,0.0,0.0,0.0,0.0,0.0,0.0,0.0,0.0,0.0,0.0,0.0,0.0,0.0,0.0,0.0,0.0,0.0,0.0,0.0,0.0,0.0,0.0,0.0,0.0,0.0,0.0,0.0,0.0,0.0,0.0,0.0,0.0,7.4331,7.6901,0.0,0.0,0.0,0.0,7.4072,7.6343,7.8425,8.0128,8.2528,8.4221,8.5043,8.5925,8.643,8.6518,8.7201,8.7523,8.7485,8.7485,8.6608,8.4947,8.4286,8.268,8.0452,8.0452,7.9938,7.901,7.6444,7.5802,7.6157,7.3036,7.2205,7.2713,7.1996,7.2184,7.2805,0.0,0.0,0.0,0.0,0.0,0.0,0.0,0.0,6.5379,6.568,6.6924,6.8224,6.9294,7.1329,7.3071,7.4277,7.5361,7.5798,7.5451,7.2917,7.1274,7.0839,6.8349,6.7422,6.8338,7.0704,7.2868,7.4809,7.654,7.7817,7.8588,7.8468,7.8194,7.7824,7.7162,7.5764,7.3683,7.0065,6.7184,6.5059,6.4867,6.3282,0.0,0.0,0.0,0.0,0.0,0.0,0.0,0.0,0.0,0.0,0.0,0.0,0.0,0.0,0.0,0.0,0.0,0.0,0.0,0.0,0.0,0.0,0.0,0.0,0.0,0.0,0.0,0.0,0.0,0.0,0.0,0.0,0.0,0.0,0.0,0.0,0.0,7.9349,8.1736,0.0,7.8444,7.9359,8.064,8.1877,8.3312,8.4843,8.6528,8.8002,8.913,8.9972,9.0794,9.1215,9.1194,9.1413,9.1011,8.9956,8.9956,8.8767,8.6581,8.58,8.4634,8.3314,8.274,8.1995,8.1115,8.0272,7.9263,7.824,7.7055,7.6473,7.6246,7.5944,7.6019,7.6284,0.0,0.0,0.0,0.0,0.0,0.0,0.0,0.0,6.7352,6.7921,6.9209,7.0821,7.2774,7.4676,7.6503,7.8262,7.8874,7.9033,7.8615,7.5609,7.3636,7.3157,7.0479,7.0055,7.2305,7.4735,7.6813,7.8481,8.0268,8.1425,8.1986,8.1531,8.1458,8.1689,8.1317,8.08,8.0067,7.6659,7.2606,6.8434,6.8495,6.688,6.42,0.0,0.0,0.0,0.0,0.0,0.0,0.0,0.0,0.0,0.0,0.0,0.0,0.0,0.0,0.0,0.0,0.0,0.0,0.0,0.0,0.0,0.0,0.0,0.0,0.0,0.0,0.0,0.0,0.0,0.0,0.0,0.0,0.0,0.0,8.1155,8.3626,8.3079,8.5915,8.6646,8.3445,8.4881,8.6506,8.7731,8.8863,9.0133,9.1556,9.2441,9.3056,9.3326,9.3864,9.398,9.371,9.371,9.3133,9.2056,9.1787,9.0594,8.8632,8.7786,8.6632,8.5286,8.467,8.3632,8.2285,8.2285,8.1318,7.9806,7.9578,7.9172,7.8718,7.8718,7.8718,7.8701,0.0,0.0,0.0,0.0,0.0,0.0,0.0,6.7491,6.8335,6.9976,7.1057,7.3212,7.7357,7.8311,7.9646,8.217,8.0862,8.0246,8.1054,7.6399,7.3737,7.407,7.1997,7.2401,7.5766,7.8224,8.0303,8.2004,8.3606,8.4438,8.4476,8.4414,8.4843,8.5574,8.4805,8.4504,8.4505,8.3685,7.9201,7.2665,7.2679,7.0734,6.7834,0.0,0.0,0.0,0.0,0.0,0.0,0.0,0.0,0.0,0.0,0.0,0.0,0.0,0.0,0.0,0.0,0.0,0.0,0.0,0.0,0.0,0.0,0.0,0.0,0.0,0.0,0.0,0.0,0.0,0.0,0.0,0.0,0.0,8.0885,8.4953,8.7345,8.5719,8.9726,9.1018,8.6824,8.8671,9.0479,9.1287,9.2864,9.4134,9.498,9.5826,9.5903,9.5057,9.5018,9.4634,9.3787,9.3787,9.3749,9.371,9.2903,9.2095,9.121,9.0325,8.8556,8.6209,8.617,8.4709,8.2401,8.2362,8.1862,8.1045,8.037,8.0144,8.0144,8.0144,8.0144,8.0087,0.0,0.0,0.0,0.0,0.0,0.0,0.0,7.0085,7.1334,7.2432,7.5077,7.769,7.9944,8.1509,8.288,8.4087,8.2593,8.1477,8.1131,7.8054,7.6009,7.5457,7.5999,7.7637,8.0378,8.237,8.4478,8.6776,8.6781,8.7389,8.8569,8.7482,8.7412,8.8167,8.7953,8.7851,8.7807,8.699,8.5086,8.2312,7.7828,7.4771,7.2716,0.0,0.0,0.0,0.0,0.0,0.0,0.0,0.0,0.0,0.0,0.0,0.0,0.0,0.0,0.0,0.0,0.0,0.0,0.0,0.0,0.0,0.0,0.0,0.0,0.0,0.0,0.0,0.0,0.0,0.0,0.0,8.1612,8.5051,8.5748,8.894,9.147,9.2238,9.456,9.5441,9.3672,9.4672,9.5288,9.4941,9.5326,9.5672,9.5942,9.6172,9.6172,9.5942,9.5942,9.5826,9.5595,9.5595,9.5249,9.4634,9.3787,9.2941,9.2095,9.0594,8.9517,8.8786,8.7555,8.6286,8.4978,8.3747,8.2747,8.1885,8.1118,8.0838,8.0838,8.0838,8.0838,8.074,0.0,0.0,0.0,0.0,0.0,0.0,0.0,7.1042,7.2463,7.406,7.67,7.9611,8.2598,8.3292,8.4089,8.5565,8.3463,8.1659,8.074,7.8643,7.7563,7.7876,7.9126,8.1182,8.3982,8.6105,8.802,8.9748,9.0052,9.0721,9.164,9.0792,9.066,9.108,9.1095,9.092,9.0608,9.0128,8.9451,8.8393,8.4405,8.1205,7.8535,7.5829,7.3794,7.2113,7.0358,6.9265,6.8686,6.8567,0.0,0.0,0.0,0.0,0.0,0.0,0.0,0.0,0.0,0.0,0.0,0.0,0.0,0.0,0.0,0.0,0.0,0.0,0.0,0.0,0.0,0.0,0.0,0.0,8.6159,8.9776,9.1145,9.2948,9.4595,9.5903,9.7211,9.7865,9.7403,9.7442,9.7326,9.6826,9.648,9.6288,9.6288,9.6288,9.6288,9.6288,9.6288,9.6288,9.6288,9.6288,9.6057,9.5518,9.4672,9.3787,9.2941,9.1595,9.0594,8.9863,8.8863,8.7555,8.6017,8.467,8.3401,0.0,0.0,0.0,0.0,0.0,8.0855,8.1016,0.0,0.0,0.0,0.0,0.0,0.0,0.0,7.1173,7.2652,7.5111,7.7078,8.0044,8.484,8.4046,8.4163,8.6583,8.3742,8.1403,8.0362,7.8878,7.8971,8.0978,8.2029,8.3995,8.703,8.9615,9.1163,9.171,9.3213,9.3984,9.4061,9.3945,9.3984,9.4061,9.3945,9.3619,9.3141,9.2928,9.252,9.19,9.1092,8.8368,8.453,8.1541,7.9396,7.7599,7.4635,7.2696,7.1581,7.1552,0.0,0.0,0.0,0.0,0.0,0.0,0.0,0.0,0.0,0.0,0.0,0.0,0.0,0.0,0.0,0.0,0.0,0.0,0.0,0.0,0.0,0.0,0.0,0.0,9.0953,9.4518,9.648,9.6749,9.698,9.7557,9.8404,9.8904,9.8788,9.8173,9.775,9.7634,9.698,9.6596,9.6596,9.6596,0.0,0.0,0.0,9.6403,9.6288,9.6288,9.6288,9.6288,9.5403,9.4595,9.3826,9.3018,9.1748,9.021,9.0094,8.8671,8.6324,8.5401,8.3939,8.2176,8.0769,8.0201,8.0201,8.0201,8.0591,8.1093,0.0,0.0,0.0,0.0,0.0,0.0,0.0,7.2535,7.4209,7.6115,7.8587,8.126,8.414,8.4377,8.4992,8.6661,8.4318,8.2365,8.1445,8.1103,8.203,8.4528,8.674,8.8818,9.0798,9.3338,9.4708,9.4851,9.5151,9.5656,9.6355,9.5656,9.5695,9.6316,9.5617,9.5519,9.5749,9.4397,9.4039,9.4291,9.3389,9.1152,8.8016,8.6078,8.4318,8.2683,8.079,8.029,8.0564,8.039,7.9785,7.9033,7.8132,0.0,0.0,0.0,0.0,0.0,0.0,0.0,0.0,0.0,0.0,0.0,0.0,0.0,0.0,0.0,0.0,0.0,0.0,0.0,0.0,9.0698,9.329,9.5826,9.8942,9.9365,9.9173,9.8596,9.9327,9.9558,9.8865,9.9288,9.9288,9.8596,9.8404,9.8327,9.8327,9.8327,9.798,9.7288,9.7288,9.698,9.6326,9.6288,9.6288,9.6288,0.0,0.0,9.4711,9.3864,9.2941,9.1979,9.1248,8.9902,8.8055,8.6517,8.4478,8.2208,8.1266,8.0888,8.0888,8.0888,8.0991,8.1016,0.0,0.0,0.0,0.0,0.0,0.0,0.0,7.2193,7.3793,7.5943,7.7815,8.0048,8.2929,8.2966,8.3284,8.4447,8.2479,8.1616,8.2581,8.2967,8.4722,8.8291,9.0083,9.1735,9.3335,9.5037,9.5845,9.5698,9.6117,9.6584,9.6973,9.6545,9.6584,9.6973,9.6545,9.6517,9.6765,9.5911,9.575,9.5969,9.5517,9.445,9.2787,9.0116,8.8334,8.7118,8.5527,8.4929,8.494,8.4825,8.4441,8.3866,8.3293,8.222,8.0592,0.0,0.0,0.0,0.0,0.0,0.0,0.0,0.0,0.0,0.0,0.0,0.0,0.0,0.0,8.5016,8.7594,0.0,9.1018,9.4441,9.6788,9.875,10.0481,10.1481,10.1481,10.0212,10.0404,10.0481,10.0096,10.0096,9.9904,9.9481,9.9058,9.8788,9.8788,9.8788,9.8596,9.8173,9.7711,9.7326,9.6903,9.6519,9.6288,9.6288,9.5865,9.5403,9.498,9.4557,9.3672,9.2479,9.2056,9.0864,8.9133,8.6978,8.4863,8.2901,8.2516,8.1823,8.1093,8.1093,8.1093,8.1054,0.0,0.0,0.0,0.0,0.0,0.0,0.0,7.168,7.3086,7.5351,7.6406,7.8125,8.1211,8.0937,8.0859,8.1719,8.0686,8.107,8.3672,8.4827,8.7323,9.1601,9.2812,9.3979,9.5336,9.6035,9.63,9.6093,9.6795,9.7138,9.7138,9.7138,9.7138,9.7138,9.7138,9.7123,9.7082,9.7082,9.7057,9.7012,9.7012,9.7012,9.6672,9.35,9.1893,9.1084,8.9495,8.8372,8.7672,8.7861,8.7585,8.7194,8.7347,8.6697,8.5363,8.2631,8.217,0.0,0.0,0.0,0.0,0.0,0.0,0.0,0.0,8.4632,8.5247,8.8671,8.9363,9.0248,9.3172,9.4403,9.5672,9.7865,10.0096,10.1712,10.202,10.3097,10.3405,10.2212,10.1789,10.1597,10.1597,10.0789,10.0289,10.0289,9.9673,9.9288,9.9288,9.9288,9.9211,9.9058,9.8211,9.7673,9.7519,9.6711,9.6288,9.6288,9.6288,9.5942,9.5249,9.5249,9.4403,9.2941,9.2441,9.1364,8.9748,8.7517,8.5593,8.4093,8.4093,8.2939,8.1323,8.1323,8.1246,8.1093,0.0,0.0,0.0,0.0,0.0,0.0,0.0,0.0,7.3555,7.4609,7.5508,7.6797,7.8711,7.8828,7.9101,7.9922,8.121,8.2773,8.4648,8.6953,8.9843,9.3437,9.5195,9.6484,9.7343,9.746,9.7498,9.7495,9.7573,9.7612,9.7612,9.7612,9.7612,9.7612,9.7612,9.7511,9.7348,9.7348,9.7227,9.7012,9.7012,9.7012,9.6886,9.567,9.504,9.4617,9.2886,9.1583,9.0836,9.1604,9.0834,8.964,9.0447,9.0059,8.8709,8.544,8.3978,8.3208,8.2054,8.3131,8.5132,8.7325,8.7325,8.8209,0.0,9.2979,9.2326,9.5672,9.6365,9.6711,9.7865,9.8788,9.9712,10.0712,10.1789,10.2981,10.4482,10.4212,10.4097,10.4597,10.3405,10.252,10.252,10.1712,10.1212,10.1212,10.1096,10.1019,10.1019,10.1019,10.0712,9.9981,9.9096,9.8288,9.7519,9.6711,9.6288,9.6288,9.6288,9.6249,9.6134,9.6134,9.5634,9.4595,9.2326,9.0787,8.9825,8.8825,8.7401,8.5824,8.5824,8.4324,8.217,8.217,8.1708,8.1093,0.0,0.0,0.0,0.0,0.0,0.0,0.0,0.0,0.0,0.0,7.3398,7.4297,7.6055,7.668,7.7109,7.7461,7.9492,8.2106,8.5202,8.7858,9.106,9.5006,9.6376,9.7251,9.7695,9.7695,9.7695,9.7695,9.7695,9.7695,9.7695,9.7695,9.7461,9.6992,9.6992,9.6677,9.6116,9.6116,9.6063,9.5949,9.5949,9.5949,9.591,9.5559,9.4619,9.3402,9.239,9.1768,0.0,0.0,9.0825,9.0902,9.2249,9.1402,8.971,8.8825,8.7632,8.6786,8.794,8.8402,8.9056,9.1095,9.1814,9.2982,9.6444,9.6187,9.6113,9.9475,10.0198,10.0595,10.1826,10.2406,10.3192,10.43,10.5403,10.6006,10.61,10.6203,10.5981,10.5214,10.4097,10.3212,10.2597,10.2712,10.2597,10.2097,10.252,10.2789,10.2789,10.2289,10.1904,10.1597,10.0289,9.9135,9.825,9.7403,9.6749,9.6288,9.6288,9.6288,9.6288,9.6288,9.5826,9.4864,9.2826,9.1479,9.0594,8.9748,8.8671,8.7555,8.7055,8.5901,8.4324,8.2862,8.1785,8.1093,0.0,0.0,0.0,0.0,0.0,0.0,0.0,0.0,0.0,0.0,7.164,7.2305,7.4062,7.5039,7.5624,7.5815,7.7729,8.0675,8.4746,8.7666,9.1064,9.5132,9.6569,9.7358,9.7511,9.7565,9.761,9.761,9.7655,9.7695,9.7695,9.7695,9.7383,9.6836,9.6601,9.6133,9.5547,9.5312,9.5195,9.5195,9.5195,9.5078,9.4804,9.4297,9.2922,9.1214,9.1071,9.0663,0.0,0.0,8.9246,9.0226,9.1678,9.1022,8.9802,9.0188,8.9469,8.8982,9.1068,9.1855,9.255,9.4497,9.5969,9.7365,9.9034,9.914,9.9647,10.2516,10.3183,10.3713,10.4722,10.5391,10.6109,10.6912,10.7692,10.801,10.7205,10.7194,10.6611,10.5003,10.3982,10.3289,10.2712,10.3405,10.3712,10.3289,10.3905,10.4212,10.4212,10.3212,10.2597,10.2597,10.0981,9.9673,9.8788,9.7942,9.7096,9.6288,9.6288,9.6288,9.6288,9.6288,9.5826,9.4903,9.371,9.2556,9.1518,9.0902,8.9979,8.894,8.8094,8.7094,8.5824,8.3516,8.2131,8.14,0.0,0.0,0.0,0.0,0.0,0.0,0.0,0.0,0.0,0.0,0.0,0.0,0.0,7.4101,7.4916,7.556,7.645,7.8706,8.28,8.6249,8.9674,9.3147,9.5668,9.7021,9.703,9.7265,9.7416,9.7416,9.7607,9.7695,9.7695,9.7695,9.7695,9.7617,9.6836,9.6484,9.6406,9.5547,9.5195,9.5195,9.5195,9.4687,9.375,9.207,9.0312,8.8905,8.9512,0.0,0.0,8.5834,8.6155,8.7067,8.7895,8.8711,8.9148,8.836,8.8096,8.8308,8.9238,9.1884,9.4998,9.7545,9.9453,10.1204,10.2907,10.3189,10.3615,10.5109,10.6107,10.6586,10.641,10.7716,10.8485,10.7811,10.7716,10.7716,10.7695,10.6195,10.4887,10.3982,10.3212,10.2597,10.2597,10.3405,10.4212,10.4982,10.4982,10.5097,10.5097,10.3482,10.2597,10.2597,10.0981,9.9673,9.8788,9.7942,9.7096,9.6288,9.6288,9.6288,9.6288,9.6288,9.5826,9.498,9.4941,9.398,9.2441,9.2441,9.1402,8.9787,8.8979,8.7594,8.5901,8.417,8.3016,8.2131,0.0,0.0,0.0,0.0,0.0,0.0,0.0,0.0,0.0,0.0,0.0,0.0,0.0,0.0,0.0,0.0,7.5552,7.7966,8.0873,8.4771,8.8274,9.1168,9.4261,9.6011,9.6117,9.6779,9.7227,9.7407,9.7483,9.7561,9.7695,9.7695,9.7422,9.6875,9.6601,9.6172,9.5586,9.4726,9.4687,9.5039,9.332,9.3125,9.3633,9.1328,8.9023,8.6836,0.0,0.0,8.3459,8.2427,8.304,8.4565,8.6579,8.6618,8.5966,8.6255,8.7976,9.0327,9.2866,9.5677,9.8635,10.1788,10.3107,10.4096,10.5806,10.5689,10.5591,10.6684,10.6118,10.5489,10.5796,10.5991,10.6519,10.7813,10.8601,10.8986,10.8896,10.8805,10.7309,10.3483,10.3789,10.3597,10.1904,10.302,10.4482,10.5905,10.6482,10.679,10.679,10.5713,10.4597,10.3482,10.2404,10.0789,9.8827,9.8519,9.7673,9.6288,9.6288,9.6288,9.6288,9.6288,9.6134,9.5826,9.5249,9.4326,9.3249,9.271,9.1825,9.0671,8.9825,8.8825,8.7632,8.5901,8.4362,8.2939,0.0,0.0,0.0,0.0,0.0,0.0,0.0,0.0,0.0,0.0,0.0,0.0,0.0,0.0,0.0,0.0,0.0,7.5789,7.8464,8.1723,8.4712,8.7329,9.0137,9.1889,9.2353,9.3036,9.3616,9.4163,9.4243,9.4515,9.4961,9.4961,9.4687,9.4179,9.4179,9.3867,9.3281,9.2422,9.2303,9.257,9.035,8.992,9.0344,8.8085,8.6054,0.0,0.0,0.0,8.0975,7.9695,8.0597,8.2507,8.4184,8.4813,8.5214,8.6696,8.9315,9.2596,9.6341,9.9233,10.2008,10.5084,10.6515,10.7293,10.8305,10.7905,10.7214,10.6887,10.5913,10.479,10.4078,10.4194,10.4915,10.6421,10.7192,10.7886,10.8685,10.8496,10.6982,10.3906,10.3905,10.3712,10.2404,10.2981,10.4289,10.629,10.7521,10.7982,10.7713,10.6905,10.5597,10.3982,10.3097,10.1404,9.8827,9.8788,9.7942,9.6288,9.6288,9.6288,9.6288,9.6288,9.6288,9.6288,9.5711,9.4788,9.3672,9.3133,9.2249,9.1133,9.0248,8.9402,8.8479,8.6748,8.5247,8.3824,0.0,0.0,0.0,0.0,0.0,0.0,0.0,0.0,0.0,0.0,0.0,0.0,0.0,0.0,0.0,0.0,0.0,0.0,7.5509,7.7381,7.9499,8.1909,8.3795,8.5235,8.621,8.6525,8.7181,8.8179,8.8385,8.8906,8.9726,8.9726,8.9726,8.9726,8.9726,8.9765,8.9726,8.8867,8.8424,8.817,8.6672,8.5493,8.4505,8.2964,0.0,0.0,0.0,7.9101,7.9531,7.793,7.914,8.1328,8.1367,8.3711,8.6953,8.9453,9.2109,9.5156,9.9375,10.2383,10.5117,10.75,10.9414,11.0504,11.0202,10.9505,10.8196,10.5889,10.5317,10.431,10.15,10.2404,10.3597,10.3712,10.3982,10.4982,10.7521,10.579,10.4597,10.5213,10.3905,10.3212,10.3982,10.3289,10.3905,10.629,10.7905,10.8482,10.779,10.7021,10.579,10.4097,10.3097,10.1481,9.8942,9.8788,9.7904,9.6288,9.6288,9.6288,9.6288,9.6288,9.6288,9.6288,9.6288,9.5326,9.3749,9.3749,9.2787,9.1171,9.0364,8.9517,8.8556,8.6863,8.5709,8.4709,0.0,0.0,0.0,0.0,0.0,0.0,0.0,0.0,0.0,0.0,0.0,0.0,0.0,0.0,0.0,0.0,0.0,0.0,7.1637,7.5042,7.7322,7.7932,8.1452,8.3529,8.3796,8.4446,8.5027,8.5483,8.5555,8.5795,8.6211,8.6211,8.6211,8.6211,8.6211,8.6479,8.6876,8.6017,8.6281,8.7079,8.4892,8.4639,8.541,0.0,0.0,0.0,8.0742,8.0508,8.0586,8.0195,8.2617,8.5937,8.6562,8.8242,9.039,9.2344,9.5625,9.9336,10.2383,10.5586,10.8281,10.9609,11.0312,11.039,10.9682,10.849,10.6896,10.4393,10.2088,9.9725,9.7094,9.798,9.975,10.1712,10.4597,10.7598,11.0214,11.0521,10.979,10.8098,10.7598,10.6905,10.5905,10.6097,10.6713,10.729,10.779,10.8213,10.8598,10.8406,10.7521,10.579,10.4289,10.2597,10.0712,9.8788,9.7326,9.6288,9.6288,9.6288,9.6288,9.6288,9.6288,9.6288,9.6288,9.5672,9.4672,9.4672,9.3672,9.2133,9.1902,9.0902,8.9479,8.8402,8.7094,8.5632,0.0,0.0,0.0,0.0,0.0,0.0,0.0,0.0,0.0,0.0,0.0,0.0,0.0,0.0,0.0,0.0,0.0,0.0,0.0,7.1831,7.3503,7.4281,7.6249,7.7727,7.8546,7.9364,7.9923,8.016,8.0902,8.1353,8.1523,8.1523,8.1523,8.1523,8.1914,8.2497,8.3142,8.2673,8.31,0.0,0.0,0.0,0.0,0.0,0.0,8.1133,8.1054,8.2461,8.4609,8.6133,8.8047,9.0039,9.1601,9.3281,9.5234,9.8125,10.1211,10.4219,10.6406,10.8984,11.1015,11.1093,11.1211,11.0818,10.9281,10.7806,10.5719,10.2195,9.9851,9.738,9.4078,9.5467,9.7676,9.9365,10.3212,10.7213,11.0483,11.1291,11.1291,11.0714,11.0291,10.9521,10.8213,10.8213,10.8406,10.879,10.879,10.879,10.8906,10.929,10.8482,10.6521,10.5097,10.3097,10.0212,9.8404,9.7096,9.6288,9.6288,9.6288,9.6288,9.6288,9.6288,9.6288,9.6288,9.5826,9.498,9.498,9.4018,9.2479,9.2479,9.1441,8.9825,8.8979,8.7825,8.6517,0.0,0.0,0.0,0.0,0.0,0.0,0.0,0.0,0.0,0.0,0.0,0.0,0.0,0.0,0.0,0.0,0.0,0.0,0.0,0.0,6.9406,7.0926,7.038,7.0814,7.2453,7.3236,7.373,7.3906,7.5547,7.6328,7.6328,7.6445,7.6523,7.6523,7.7305,7.8125,7.8983,7.8983,7.9432,8.0064,7.8777,0.0,0.0,0.0,0.0,8.0039,8.1133,8.4453,8.8984,9.3047,9.4062,9.4062,9.6719,9.875,10.1015,10.4883,10.7304,10.8984,11.0703,11.2304,11.3281,11.25,11.1992,11.1194,10.8891,10.6887,10.4205,9.9758,9.806,9.6148,9.2109,9.4162,9.6753,9.7704,10.1481,10.5713,11.0098,11.0714,11.1291,11.2983,11.2406,11.1598,11.0906,11.0098,10.979,11.0483,11.0483,11.0214,10.929,10.9906,10.8983,10.629,10.5405,10.2981,9.9019,9.8096,9.7326,9.6634,9.6519,9.648,9.648,9.648,9.6403,9.6288,9.6288,9.5865,9.5172,9.5172,9.4172,9.2672,9.2672,9.1595,8.9979,8.9171,8.8363,8.7517,0.0,0.0,0.0,0.0,0.0,0.0,0.0,0.0,0.0,0.0,6.7302,6.6953,0.0,0.0,0.0,0.0,0.0,0.0,0.0,0.0,0.0,6.834,6.8847,6.9344,6.9859,7.0015,7.0145,7.0312,7.1328,7.1836,7.1836,7.2578,7.289,7.289,7.3047,7.3899,7.5222,7.5222,7.6024,7.7306,7.7215,7.7596,0.0,0.0,0.0,0.0,8.3398,8.5273,8.7695,9.4687,9.789,9.9414,10.1992,10.4492,10.6719,10.8203,11.039,11.25,11.3515,11.4492,11.5117,11.4297,11.2797,11.0904,10.8407,10.5097,10.1518,9.808,9.5968,9.3956,9.1228,9.3357,9.6454,9.9398,10.3306,10.7713,11.2599,11.3291,11.3984,11.5599,11.4484,11.3791,11.4407,11.3599,11.2906,11.2291,11.2291,11.1906,11.1098,11.0483,10.8713,10.5405,10.4482,10.2712,9.9904,9.9019,9.8481,9.8365,9.7634,9.7288,9.7288,9.7288,9.6942,9.6288,9.6288,0.0,9.6057,9.6057,9.5057,9.348,9.348,9.2441,9.0864,9.0017,8.9594,8.9325,0.0,0.0,0.0,0.0,0.0,0.0,0.0,0.0,6.7861,6.9078,6.8869,6.8223,6.7238,0.0,0.0,0.0,0.0,0.0,0.0,0.0,0.0,0.0,6.7645,6.7876,6.8413,6.8841,6.9131,6.9319,0.0,7.1321,7.1406,7.1797,7.1992,7.1992,7.1992,7.2653,7.381,7.424,7.5123,7.6266,7.6846,7.7561,0.0,0.0,0.0,0.0,8.3594,8.5937,8.8828,9.2969,9.7304,10.1719,10.6093,10.8711,11.0312,11.1601,11.3203,11.4608,11.4785,11.5516,11.5819,11.4388,11.2287,10.9787,10.6595,10.3092,9.9499,9.6186,9.4513,9.3003,9.0963,9.3043,9.5776,9.8035,10.1213,10.5214,11.0602,11.1714,11.2983,11.5599,11.5484,11.5099,11.4714,11.4714,11.4099,11.2791,11.2714,11.2291,11.1522,11.0214,10.8213,10.5213,10.4289,10.2712,10.0096,9.9673,9.925,9.8788,9.8365,9.8173,9.8173,9.8173,9.7711,9.6903,9.6903,9.6673,9.6288,9.6288,9.5557,9.4326,9.3864,9.2941,9.171,9.0402,8.9902,8.9787,0.0,0.0,0.0,0.0,0.0,0.0,0.0,6.7982,6.9096,7.0992,7.0895,7.0129,6.8738,6.758,6.674,0.0,0.0,0.0,0.0,0.0,0.0,0.0,0.0,0.0,6.7624,0.0,0.0,6.9124,7.0688,0.0,0.0,0.0,0.0,0.0,7.1992,7.246,7.3278,7.3981,7.4837,0.0,0.0,7.7682,0.0,0.0,0.0,0.0,0.0,8.5781,8.8945,9.1133,9.5469,10.1015,10.6992,10.9882,11.1285,11.3081,11.4404,11.5282,11.538,11.6084,11.6282,11.4605,11.19,10.8812,10.5405,10.1477,9.7717,9.4702,9.3464,9.2507,9.1202,9.2918,9.5089,9.6776,9.8774,10.219,10.8107,10.9699,11.1483,11.4907,11.5984,11.5984,11.4714,11.5176,11.4907,11.3407,11.2906,11.2291,11.1522,10.979,10.7905,10.5713,10.4482,10.2789,10.0673,10.0289,9.9827,9.9327,9.9173,9.9058,9.9058,9.8904,9.8327,9.748,9.7326,9.6865,9.6288,9.6288,9.5788,9.4903,9.4249,9.348,9.2556,9.1018,9.0479,9.0364,0.0,0.0,0.0,0.0,0.0,0.0,0.0,6.9735,7.1005,7.338,7.2819,7.2104,7.1801,6.9728,6.7743,0.0,0.0,0.0,0.0,0.0,0.0,0.0,0.0,0.0,0.0,0.0,0.0,6.8923,6.9863,0.0,0.0,0.0,0.0,0.0,0.0,7.2375,7.3033,7.3111,0.0,0.0,0.0,0.0,0.0,0.0,0.0,0.0,0.0,8.3867,8.5156,9.1523,9.4062,9.5664,10.1719,10.5609,10.828,11.011,11.2117,11.411,11.5705,11.6707,11.7085,11.6119,11.2609,10.8709,10.6083,10.0894,9.6082,9.4452,9.3009,9.202,9.2061,9.291,9.4656,9.7895,9.8864,10.1602,10.831,10.9784,11.1483,11.4907,11.5984,11.6407,11.6292,11.6292,11.5984,11.5099,11.3599,11.2291,11.1522,10.979,10.8482,10.7482,10.5097,10.3405,10.2404,10.0904,10.0404,10.1096,10.0289,9.9981,9.9942,9.9173,9.8327,9.7442,9.6749,9.6365,0.0,9.6288,9.5788,9.498,9.4903,9.4326,9.348,9.2595,9.2249,9.2133,0.0,0.0,0.0,0.0,0.0,0.0,0.0,6.9081,7.0564,7.3497,7.3408,7.3035,7.299,7.1673,6.9848,0.0,0.0,0.0,0.0,0.0,0.0,0.0,0.0,0.0,0.0,0.0,6.9275,7.027,7.0619,0.0,0.0,0.0,0.0,0.0,0.0,7.2871,7.3603,7.3609,0.0,0.0,0.0,0.0,0.0,0.0,0.0,0.0,0.0,0.0,8.4395,8.6717,8.9232,9.1738,9.371,9.6891,10.0992,10.6885,11.0395,11.2702,11.4603,11.6123,11.6918,11.5923,11.1998,10.7815,10.5809,10.0188,9.5188,9.409,9.2804,9.191,9.1987,9.2537,9.3684,9.5963,9.543,9.6912,10.308,10.3591,10.5597,11.1483,11.2983,11.4099,11.5599,11.6176,11.5907,11.4599,11.2906,11.1791,11.1522,11.0291,10.879,10.7021,10.5405,10.3982,10.2597,10.1404,10.1019,10.1289,10.1019,10.0789,10.0789,10.0519,9.9558,9.825,9.7942,9.725,0.0,9.6288,9.6095,9.5711,9.5211,9.4788,9.4364,9.3518,9.2903,9.2441,0.0,0.0,0.0,0.0,0.0,6.7135,6.8111,6.9011,7.0701,7.3731,7.4205,7.4245,7.4245,7.3476,7.2014,6.9706,0.0,0.0,0.0,0.0,0.0,0.0,0.0,0.0,0.0,0.0,7.0902,7.1904,7.1904,7.2277,0.0,0.0,7.3053,7.3066,0.0,0.0,0.0,0.0,0.0,0.0,0.0,0.0,0.0,0.0,0.0,0.0,0.0,0.0,0.0,0.0,0.0,8.9184,8.8979,9.1214,9.5387,10.2712,10.7114,11.0206,11.2489,11.4815,11.6402,11.5786,11.1598,10.729,10.579,9.9981,9.4749,9.3864,9.2949,9.2273,9.2273,9.2663,9.3472,9.4927,9.3762,9.4454,9.9676,9.9887,10.1789,10.7982,10.9483,11.1098,11.3907,11.5407,11.5484,11.4099,11.2714,11.1791,11.1522,11.0906,10.9483,10.7213,10.5597,10.4212,10.2981,10.1904,10.1289,10.1289,10.1289,10.1289,10.1289,10.1096,10.0212,9.8788,9.8519,9.7596,0.0,9.6288,9.6288,9.6249,9.5634,9.5365,9.5288,9.4403,9.3557,9.2826,0.0,0.0,0.0,0.0,0.0,0.0,0.0,7.0307,7.2091,7.464,7.5556,7.5976,7.5976,7.5207,7.4014,7.2322,0.0,0.0,0.0,0.0,0.0,0.0,0.0,0.0,0.0,0.0,7.2591,7.3476,7.3476,7.3536,7.3689,7.3689,7.3791,7.3992,0.0,0.0,0.0,0.0,0.0,0.0,0.0,0.0,0.0,0.0,0.0,0.0,0.0,0.0,0.0,0.0,0.0,0.0,0.0,9.0578,9.2788,9.7052,10.1712,10.6189,10.9396,11.2697,11.5506,11.6292,11.2099,10.7482,10.6597,10.0481,9.4749,9.3864,9.3413,9.3168,9.3168,9.3564,9.437,9.5863,9.5119,9.5765,9.9831,10.0891,10.2212,10.4789,10.5905,10.779,11.1214,11.3791,11.4907,11.4099,11.3214,11.2291,11.1522,11.1522,11.0714,10.8906,10.5597,10.3905,10.3905,10.2212,10.1289,10.1289,10.1289,10.1289,10.1289,10.0481,9.9635,9.875,9.7904,9.7057,0.0,9.6288,9.6288,9.6288,9.6288,9.6288,9.6172,9.5288,9.4441,9.3557,0.0,0.0,0.0,0.0,0.0,0.0,0.0,6.8798,7.0507,7.3601,7.4161,7.4938,7.6707,7.5592,7.4476,7.3937,0.0,0.0,0.0,0.0,0.0,0.0,0.0,0.0,0.0,0.0,7.4053,7.4322,7.4322,7.434,7.4372,7.4372,7.4424,7.4485,7.5103,7.5659,0.0,0.0,0.0,0.0,0.0,0.0,8.1108,0.0,0.0,0.0,0.0,0.0,0.0,0.0,0.0,0.0,0.0,0.0,0.0,9.2953,9.7612,10.2508,10.4504,10.6597,10.829,10.7982,10.5213,10.2404,10.2212,9.7942,9.4018,9.3749,9.3282,9.2918,9.2918,9.3635,9.4764,9.6453,9.5413,9.5457,9.8514,9.9496,10.1484,10.5795,11.0419,11.3714,11.4791,11.5099,11.4907,11.4099,11.3214,11.2291,11.1522,11.0406,10.9483,10.8906,10.679,10.5097,10.3905,10.2212,10.1289,10.1289,10.1289,10.1289,10.1289,10.1019,10.0096,9.8788,9.8519,9.7596,9.6288,9.6288,9.6288,9.6288,9.6288,9.6288,9.6211,9.5326,9.4441,9.3595,0.0,0.0,0.0,0.0,0.0,0.0,0.0,6.8988,7.0423,7.3144,7.3783,7.4668,7.6592,7.5822,7.5053,7.4745,0.0,0.0,0.0,0.0,0.0,0.0,0.0,0.0,0.0,7.4938,7.5361,7.5668,7.5976,7.613,7.613,7.6476,7.6438,7.6169,7.6707,7.7246,0.0,0.0,0.0,0.0,0.0,0.0,8.1093,0.0,0.0,0.0,0.0,0.0,0.0,0.0,0.0,0.0,0.0,0.0,0.0,0.0,9.4265,9.8042,10.0904,10.3097,10.4713,10.4789,10.2712,10.0481,10.0173,9.6788,9.371,9.371,9.3485,9.3374,9.3722,9.4136,9.5018,9.673,9.5524,9.5263,9.7793,9.9035,10.1301,10.5585,11.1208,11.4484,11.4176,11.4484,11.4407,11.3599,11.2714,11.2022,11.1522,11.0214,10.9213,10.8906,10.6713,10.4982,10.3905,10.2212,10.1289,10.1289,10.1289,10.1289,10.1289,10.1289,10.0404,9.8788,9.8788,9.7865,0.0,9.6288,9.6288,9.6288,9.6288,9.6288,9.6211,9.5326,9.4441,9.3595,0.0,0.0,0.0,0.0,0.0,0.0,0.0,0.0,0.0,7.336,7.4245,7.5014,7.5899,7.6015,7.5668,0.0,0.0,0.0,0.0,0.0,0.0,0.0,0.0,0.0,0.0,7.6053,7.6476,7.7284,7.8092,7.8477,7.853,7.94,7.9323,7.8515,7.8646,7.8669,0.0,0.0,0.0,0.0,8.0785,8.1093,0.0,0.0,0.0,0.0,0.0,0.0,0.0,0.0,0.0,0.0,0.0,0.0,0.0,0.0,0.0,0.0,0.0,10.1289,10.3405,10.4905,10.302,10.0519,9.9712,9.648,0.0,9.3672,9.3894,9.4353,9.5205,9.4905,9.5088,9.6682,9.5574,9.526,9.7468,9.9595,10.198,10.5196,10.9213,11.1406,11.0483,11.2599,11.3599,11.2791,11.2022,11.1522,11.1406,11.0598,10.9713,10.879,10.5597,10.3905,10.3905,10.2212,10.1289,10.1289,10.1289,10.1289,10.1289,10.1212,10.0289,0.0,9.8711,9.7788,9.6288,9.6288,9.6288,9.6288,9.6288,9.6288,9.6211,9.5326,9.4441,9.3595,0.0,0.0,0.0,0.0,0.0,0.0,0.0,0.0,0.0,0.0,7.4591,7.5014,7.5899,7.6015,7.5938,0.0,0.0,0.0,0.0,0.0,0.0,0.0,0.0,0.0,0.0,7.663,7.7092,7.7284,7.8092,7.8477,7.853,7.94,7.9323,7.8554,7.99,8.0477,0.0,0.0,0.0,0.0,8.1016,8.1093,0.0,0.0,0.0,0.0,8.3978,8.5132,0.0,0.0,0.0,0.0,0.0,0.0,0.0,0.0,9.1364,9.1902,9.3787,0.0,9.5095,9.4826,9.4672,9.4518,0.0,9.3518,9.2941,9.3557,9.3761,9.4078,9.4926,9.4971,9.5229,9.631,9.5719,9.5558,9.6757,10.171,10.6486,10.9622,11.2599,11.3791,11.2291,11.3291,11.3599,11.2791,11.2522,11.1906,11.0598,10.9713,10.879,10.7982,10.529,10.3905,10.3905,10.2212,10.1289,10.1289,10.1289,10.1289,10.1289,10.0712,9.9788,9.875,9.8096,9.725,9.6288,9.6288,9.6288,9.6288,9.6288,9.6288,9.6211,9.5326,9.4441,9.3595,0.0,0.0,0.0,0.0,0.0,0.0,0.0,0.0,0.0,0.0,0.0,0.0,0.0,0.0,0.0,0.0,0.0,0.0,0.0,0.0,0.0,0.0,0.0,7.6015,7.6015,7.6476,7.7092,7.7861,7.8669,7.9477,8.0246,8.0746,8.0708,8.0285,8.0823,8.1093,0.0,0.0,0.0,0.0,8.1093,0.0,0.0,0.0,0.0,0.0,8.4286,8.567,0.0,8.7594,8.9017,9.0441,0.0,0.0,0.0,0.0,9.1518,9.1402,9.2249,9.2749,9.3018,9.2941,9.3287,9.3518,9.3133,9.2749,9.2633,9.3056,9.3441,9.3826,9.4326,9.4711,9.5168,9.5798,9.5917,9.6937,9.9711,10.3897,10.7991,11.1581,11.3599,11.4291,11.3407,11.3714,11.3483,11.2214,11.2099,11.1791,11.0791,10.9598,10.8713,10.829,10.579,10.4289,10.3905,10.2212,10.1289,10.1289,10.1289,10.1289,10.1289,10.0789,9.9981,9.875,9.8288,9.7403,9.6288,9.6288,9.6288,9.6288,9.6288,9.6288,9.6134,9.4864,9.4095,9.3518,0.0,0.0,0.0,0.0,0.0,0.0,0.0,0.0,0.0,0.0,0.0,0.0,0.0,0.0,0.0,0.0,0.0,0.0,0.0,0.0,0.0,0.0,0.0,7.6053,7.6207,7.6322,7.713,7.8707,7.9977,8.1323,8.2708,8.2978,8.2862,8.2477,8.1785,8.1323,0.0,0.0,0.0,0.0,8.1093,0.0,0.0,0.0,0.0,0.0,0.0,0.0,0.0,8.9248,9.0864,9.2287,9.2133,0.0,0.0,0.0,0.0,0.0,9.2287,9.3172,9.398,9.4326,9.4518,9.4364,9.3518,9.2787,9.2326,9.2479,9.3133,9.3749,9.3864,9.4595,9.5277,9.5492,9.6426,9.8964,10.4194,10.6121,10.8406,11.2214,11.3599,11.3984,11.3714,11.3714,11.3099,11.1406,11.1406,11.1291,11.0906,10.9598,10.879,10.8482,10.6213,10.4597,10.3905,10.2289,10.1404,10.1289,10.1289,10.1289,10.1289,10.1212,10.0289,9.8788,0.0,0.0,9.6288,9.6288,9.6288,9.6288,9.6288,9.6288,9.6134,9.4634,9.4018,9.3672,0.0,0.0,0.0,0.0,0.0,0.0,0.0,0.0,0.0,0.0,0.0,0.0,0.0,0.0,0.0,0.0,0.0,0.0,0.0,0.0,0.0,7.6015,7.6015,7.6361,7.7092,7.7746,7.8592,7.9592,8.2631,8.4247,8.4516,8.594,8.5478,8.3401,8.3247,8.2439,8.1093,0.0,0.0,8.1093,8.1093,0.0,0.0,0.0,0.0,0.0,0.0,0.0,0.0,8.8786,9.0017,9.1287,9.0517,0.0,0.0,0.0,0.0,0.0,9.2441,9.3633,9.4287,9.2287,9.2326,9.2672,9.1787,9.1479,9.1595,9.2364,9.3133,9.3941,9.4634,9.5518,9.6114,9.6148,9.8091,10.1596,10.7411,10.8986,11.0406,11.2483,11.4099,11.4291,11.2099,11.2522,11.2214,11.0483,11.1098,11.0598,10.8406,10.8713,10.8213,10.679,10.4982,10.3982,10.3905,10.2904,10.202,10.1289,10.1289,10.1289,10.1289,10.0596,9.975,9.875,0.0,9.7173,9.6288,9.6288,9.6288,9.6288,9.6288,9.6288,9.6288,9.6019,9.5441,9.4557,0.0,0.0,0.0,0.0,0.0,0.0,0.0,0.0,0.0,0.0,0.0,0.0,0.0,0.0,0.0,0.0,0.0,0.0,0.0,0.0,7.6392,7.6842,7.6745,7.6899,7.7284,7.8092,7.9592,8.1862,8.3901,8.5824,8.7594,8.6978,8.5324,8.2862,8.2439,8.1823,8.1093,8.1093,8.1093,8.1131,0.0,0.0,0.0,0.0,0.0,0.0,0.0,0.0,0.0,0.0,9.1171,9.2402,9.1556,0.0,0.0,0.0,0.0,0.0,9.2364,9.3364,9.4134,9.3441,9.3903,9.4326,9.3441,9.2903,9.2672,9.3056,9.3826,9.4364,9.4287,9.6519,9.9096,10.1404,10.3097,10.5482,10.9098,10.9906,11.0791,11.2522,11.3407,11.3407,11.2291,11.2522,11.2214,11.0983,11.1291,11.0791,10.9098,10.8983,10.829,10.7098,10.5405,10.4289,10.3905,10.302,10.2212,10.1289,10.1289,10.1289,10.1289,10.0904,9.9981,9.8788,0.0,9.748,9.6288,9.6288,9.6288,9.6288,9.6288,9.6288,9.6249,9.5788,9.5057,9.4172,0.0,0.0,0.0,0.0,0.0,0.0,0.0,0.0,0.0,0.0,0.0,0.0,0.0,0.0,0.0,0.0,0.0,0.0,0.0,0.0,7.6914,7.7561,7.7599,7.7669,7.7861,7.8861,8.0862,8.3901,8.5555,8.7902,9.0748,8.8402,8.5824,8.3131,8.2131,8.1477,8.1093,8.1093,8.1208,8.1439,0.0,0.0,0.0,0.0,0.0,0.0,0.0,0.0,0.0,0.0,0.0,0.0,0.0,0.0,0.0,9.221,9.1787,9.1941,9.2595,9.3364,9.4095,9.4557,9.5211,9.5672,9.5595,9.4595,9.3864,9.448,9.498,9.5095,9.4441,9.7634,10.1712,10.5713,10.7521,10.8906,11.0791,11.1098,11.1598,11.2906,11.3022,11.2906,11.2714,11.2522,11.2022,11.1021,11.0906,11.0406,10.9406,10.8906,10.8098,10.7098,10.5597,10.4405,10.3597,10.2712,10.202,10.1289,10.1289,10.1289,10.1289,10.1096,10.0212,9.8788,9.8596,9.7673,9.6288,9.6288,9.6288,9.6288,9.6288,9.6288,9.6211,9.5557,9.4749,9.398,0.0,0.0,0.0,0.0,0.0,0.0,0.0,0.0,0.0,0.0,0.0,0.0,0.0,0.0,0.0,0.0,0.0,0.0,0.0,0.0,7.7523,7.76,7.81,7.8784,7.9592,8.1208,8.2939,8.4824,8.8786,9.1672,9.3403,9.1633,8.9056,8.5747,8.4132,8.2554,8.1093,8.1093,8.1516,8.2208,8.2285,0.0,0.0,0.0,0.0,0.0,0.0,0.0,0.0,0.0,0.0,0.0,0.0,0.0,9.4711,9.3787,9.3518,9.3518,9.3595,9.4249,9.4711,9.398,9.3826,9.448,9.6788,9.5441,9.4364,9.6749,9.6673,9.6211,9.6134,9.8904,10.2404,10.579,10.8406,11.0906,11.3407,11.3714,11.3791,11.3907,11.3907,11.3599,11.2791,11.2022,11.0906,10.9213,10.9098,10.8406,10.679,10.7405,10.6982,10.529,10.4405,10.3597,10.2712,10.1789,10.1404,10.1289,10.1289,10.1289,10.1289,10.0481,9.9673,9.875,9.7942,9.7096,9.6288,9.6288,9.6288,9.6288,9.6288,9.6288,9.6288,9.6249,9.5634,9.4903,0.0,0.0,0.0,0.0,0.0,0.0,0.0,0.0,0.0,0.0,0.0,0.0,0.0,0.0,0.0,0.0,0.0,0.0,0.0,7.7082,7.7618,7.867,7.8695,7.9082,7.9984,8.2563,8.5517,8.8825,9.2556,9.3326,9.1325,9.0171,8.7517,8.3708,8.2554,8.1977,8.1862,8.1862,8.2324,8.317,8.3708,8.4324,0.0,0.0,0.0,0.0,0.0,0.0,0.0,0.0,9.2172,9.2672,9.2287,9.3441,9.4711,9.3364,9.2941,9.3056,9.3557,9.3941,9.4364,9.5134,9.4903,9.5018,9.7057,9.7596,9.7942,9.8904,9.9288,9.9404,9.9404,10.0904,10.3405,10.729,10.9713,11.1714,11.3714,11.3984,11.3791,11.3291,11.3214,11.2906,11.2022,11.1214,11.0406,10.979,10.9213,10.8213,10.6521,10.6713,10.6097,10.4405,10.3482,10.2904,10.2597,10.1712,10.1289,10.1289,10.1289,10.1019,10.0481,10.0212,9.9327,9.798,9.7634,9.7057,9.6288,9.6288,9.6288,9.6288,9.6288,9.6288,9.6288,9.6288,9.6095,9.5826,0.0,0.0,0.0,0.0,0.0,0.0,0.0,0.0,0.0,0.0,0.0,0.0,0.0,0.0,0.0,0.0,0.0,0.0,7.7187,7.7176,7.774,7.894,7.8889,7.9459,8.0853,8.3817,8.69,9.0017,9.4249,9.4249,9.0287,8.921,8.6978,8.3824,8.2208,8.2093,8.3093,8.2824,8.3208,8.4055,8.467,8.5055,0.0,0.0,0.0,0.0,0.0,0.0,0.0,0.0,9.2172,9.2864,9.2518,9.3403,9.4403,9.3557,9.3095,9.2941,9.3249,9.3326,9.3595,9.4788,9.5249,9.5903,9.7865,9.925,10.0404,10.1501,10.1481,10.1096,10.0596,10.1712,10.3712,10.7098,10.979,11.2022,11.3407,11.3599,11.3291,11.2406,11.2291,11.2099,11.1598,11.0483,10.979,10.979,10.8482,10.7213,10.6097,10.602,10.5092,10.3195,10.2812,10.2112,10.1093,10.0496,10.0202,10.0202,10.0202,10.0092,10.0096,9.9827,9.8904,9.748,9.725,9.6826,9.6288,9.6288,9.6134,9.5903,9.6211,9.6134,9.5903,9.6211,9.6288,9.6288,0.0,0.0,0.0,0.0,0.0,0.0,0.0,0.0,0.0,0.0,0.0,0.0,0.0,0.0,0.0,0.0,0.0,0.0,7.7187,7.7575,7.7858,7.8074,7.853,7.9989,8.2533,8.5075,8.6732,8.744,9.3364,9.4518,9.1095,8.944,8.8209,8.7209,8.3824,8.3285,8.4824,8.3978,8.4093,8.4901,8.4939,8.5401,8.6209,0.0,0.0,0.0,0.0,0.0,0.0,0.0,9.1902,9.1633,9.4172,9.4403,9.3864,9.4749,9.4364,9.3518,9.271,9.2479,9.2479,9.2518,9.4441,9.698,9.9519,10.0096,10.1096,10.4405,10.3097,10.0789,9.9135,10.0904,10.3097,10.4789,10.8713,11.1714,11.2599,11.2714,11.2406,11.1598,11.1522,11.1522,11.15,10.9906,10.8906,10.8885,10.65,10.5097,10.5097,10.5097,10.3925,10.1506,10.2192,10.1102,9.7828,9.7791,9.7734,9.7691,9.7691,9.8544,9.9981,9.9173,9.8288,9.7442,9.6634,9.6288,9.6288,9.6288,9.5788,9.5095,9.5942,9.5788,9.5095,9.598,9.6288,9.6288,0.0,0.0,0.0,0.0,0.0,0.0,0.0,0.0,0.0,0.0,0.0,0.0,0.0,0.0,0.0,0.0,0.0,0.0,7.6995,7.6978,7.7266,7.7949,7.8496,7.9149,7.9924,8.2891,8.6284,9.0056,9.2479,9.1287,8.6786,8.7478,8.6363,8.3824,8.4016,8.4093,8.4016,8.4362,8.467,8.5016,8.617,8.6786,0.0,0.0,0.0,0.0,0.0,0.0,0.0,0.0,0.0,0.0,9.2979,9.3864,9.4518,9.4172,9.3903,9.3518,9.271,9.2056,9.2018,9.3787,9.5711,9.7827,10.0404,10.1404,10.2481,10.4674,10.3982,10.2597,10.0904,10.1212,10.2212,10.3982,10.629,10.8598,11.0714,11.1483,11.1791,11.1522,11.1522,11.1307,11.0613,10.911,10.7597,10.6408,10.4492,10.2923,10.1821,10.1707,10.1107,9.9752,9.9979,9.9376,9.7828,9.7791,9.7488,9.6938,9.6938,9.7406,9.825,9.8019,9.7442,9.6634,9.6403,9.6288,9.6288,9.6288,9.6134,9.5942,9.6211,9.6134,9.5942,9.6211,9.6288,9.6288,0.0,0.0,0.0,0.0,0.0,0.0,0.0,0.0,0.0,0.0,7.7656,0.0,0.0,0.0,0.0,0.0,0.0,0.0,0.0,7.6575,7.6885,7.7828,7.8146,7.8955,8.0272,8.2791,8.544,8.8171,9.0147,8.8822,8.4556,8.7006,8.6837,8.4532,8.6283,8.6501,8.567,8.617,8.6017,8.5517,8.7209,8.7902,8.7902,0.0,0.0,0.0,0.0,0.0,0.0,0.0,0.0,0.0,9.2402,9.3172,9.398,9.3749,9.348,9.3172,9.3018,9.2364,9.2402,9.5288,9.725,9.9288,10.2212,10.352,10.452,10.5905,10.5213,10.3982,10.2597,10.202,10.2404,10.4097,10.552,10.729,10.979,11.0714,11.1012,11.0993,11.1008,11.0588,10.9819,10.8176,10.66,10.5294,10.3414,10.1716,10.0395,10.0592,10.0177,9.9045,9.9309,9.8781,9.7272,9.668,9.6116,9.5601,9.5318,9.5529,9.6156,9.6776,9.6788,9.6288,9.6288,9.6288,9.6288,9.6288,9.6095,9.5826,9.6172,9.6095,9.5826,9.6172,9.6288,9.6288,0.0,0.0,0.0,0.0,0.0,0.0,0.0,0.0,0.0,0.0,7.7226,7.7305,0.0,0.0,0.0,0.0,0.0,0.0,0.0,0.0,7.6834,7.7835,7.7891,7.9412,8.2599,8.3995,8.4286,8.3478,8.6978,8.6984,8.3873,8.7487,8.8672,8.7822,8.9449,8.9546,8.8469,8.832,8.7286,8.594,8.7825,8.8556,8.8594,8.8671,0.0,0.0,0.0,0.0,0.0,0.0,0.0,0.0,9.221,9.2479,9.2633,9.3364,9.3133,9.2749,9.348,9.3287,9.3633,9.7019,9.925,10.1481,10.4713,10.5905,10.6597,10.729,10.629,10.5097,10.4289,10.3405,10.3405,10.4982,10.5905,10.7405,10.9713,11.0214,11.0302,11.0179,11.0176,10.9799,10.8899,10.7295,10.59,10.4977,10.2718,10.091,10.0082,10.0782,10.0503,9.8958,9.959,9.8865,9.6517,9.5027,9.421,9.3991,9.3326,9.3356,9.4019,9.5602,9.6287,9.6288,9.6288,9.6288,9.6288,9.6288,9.5826,9.5211,9.598,9.5826,9.5211,9.6019,9.6288,9.6288,0.0,0.0,0.0,0.0,0.0,0.0,0.0,0.0,0.0,0.0,0.0,0.0,0.0,0.0,0.0,0.0,0.0,0.0,0.0,0.0,7.7442,7.8295,7.9639,8.1291,8.3333,8.3025,8.2785,8.2593,8.4905,8.4957,8.3057,8.6641,8.8239,8.803,8.891,8.8417,8.6868,8.5344,8.4093,8.3362,8.644,8.7671,8.7748,8.844,8.8556,0.0,0.0,0.0,0.0,0.0,0.0,0.0,9.221,9.2479,9.2518,9.271,9.3095,9.348,9.3633,9.4557,9.6288,9.9673,10.2789,10.5597,10.7598,10.7213,10.629,10.579,10.6405,10.6905,10.602,10.5213,10.4905,10.602,10.6905,10.779,10.8983,11.0406,11.0993,11.0294,11.0176,10.9571,10.7986,10.6387,10.4797,10.331,10.1016,9.9243,9.8466,9.8548,9.8432,9.8058,9.8163,9.7658,9.6517,9.5555,9.4444,9.3233,9.3083,9.3083,9.3264,9.4769,9.5789,9.6288,9.6288,9.6288,9.6288,9.6288,9.6172,9.6057,9.6249,9.6172,9.6057,9.6249,9.6288,9.6288,0.0,0.0,0.0,0.0,0.0,0.0,0.0,0.0,0.0,0.0,0.0,0.0,0.0,0.0,0.0,0.0,0.0,0.0,0.0,0.0,7.8246,7.9092,8.04,8.1516,8.2362,8.1939,8.1747,8.1747,8.2818,8.3331,8.3355,8.6175,8.7854,8.8572,8.929,8.8404,8.624,8.5244,8.4324,8.3785,8.6363,8.7632,8.8055,8.8517,8.844,8.8017,8.7555,0.0,0.0,0.0,0.0,0.0,0.0,0.0,9.1441,9.2249,9.2787,9.3287,9.4095,9.5557,9.7865,10.2097,10.5405,10.7713,10.8213,10.7598,10.6713,10.5405,10.6213,10.6905,10.6521,10.5713,10.5405,10.629,10.6405,10.6905,10.8098,10.9406,10.9919,10.9078,10.9305,10.8893,10.7209,10.5496,10.4078,10.2819,10.0503,9.8741,9.7933,9.8239,9.8221,9.778,9.8064,9.7807,9.701,9.5818,9.4841,9.4047,9.3326,9.2987,9.3051,9.4528,9.5407,9.5783,9.6136,9.6288,9.6288,9.6288,9.6057,9.5672,9.5672,9.5672,9.5672,9.5672,9.5942,9.6288,0.0,0.0,0.0,0.0,0.0,0.0,0.0,0.0,0.0,0.0,0.0,0.0,0.0,0.0,0.0,0.0,0.0,0.0,0.0,0.0,0.0,8.0208,8.0939,8.1362,8.1516,8.1362,8.1323,8.1323,8.1335,8.2444,8.4521,8.6224,8.7837,8.928,8.9694,8.8478,8.613,8.5511,8.4863,8.4401,8.6055,8.7248,8.8055,8.8209,8.7902,8.7363,8.7209,8.7748,8.8479,8.8479,0.0,0.0,0.0,0.0,9.0171,9.1633,9.2249,9.2787,9.4172,9.6326,9.9327,10.4097,10.6982,10.8482,10.7905,10.7482,10.679,10.5405,10.579,10.6405,10.6405,10.579,10.5597,10.6521,10.6097,10.6213,10.7482,10.8713,10.8982,10.7902,10.859,10.851,10.68,10.5086,10.379,10.2999,10.0503,9.8814,9.8117,9.8461,9.8375,9.7705,9.8148,9.8111,9.7519,9.6082,9.5341,9.5166,9.3706,9.2987,9.3051,9.4114,9.4825,9.5212,9.5708,9.6059,9.6288,9.6288,9.5865,9.5211,9.5211,9.5211,9.5211,9.5211,9.5672,9.6288,0.0,0.0,0.0,0.0,0.0,0.0,0.0,0.0,0.0,0.0,7.6125,0.0,0.0,0.0,0.0,0.0,0.0,0.0,7.9361,0.0,0.0,8.1939,8.2093,8.2477,8.3247,8.2516,8.2131,8.2131,8.1462,8.3133,8.6961,8.7608,8.8793,9.0304,8.8805,8.7512,8.6249,8.3123,8.1708,8.1747,8.3439,8.4632,8.5478,8.617,8.6824,8.7286,8.6555,8.6824,8.7555,8.7555,8.8132,0.0,0.0,0.0,8.994,9.0171,9.1325,9.2556,9.2749,9.6749,10.1712,10.529,10.7021,10.779,10.7713,10.6482,10.5405,10.5097,10.579,10.6405,10.6405,10.629,10.6521,10.7405,10.7982,10.8213,10.779,10.9713,11.0487,10.8903,10.9508,10.9326,10.7591,10.5991,10.4687,10.3815,10.0907,9.9071,9.8961,9.7646,9.7178,9.7667,9.7059,9.697,9.748,9.6597,9.5841,9.5166,9.3706,9.2987,9.295,9.2418,9.3275,9.5151,9.45,9.5013,9.6288,9.6288,9.6249,9.6134,9.6134,9.6134,9.6134,9.6134,9.6211,9.6288,0.0,0.0,0.0,0.0,0.0,0.0,0.0,0.0,0.0,0.0,0.0,7.6429,0.0,0.0,0.0,7.7408,7.8233,7.9208,8.0439,8.09,8.1246,8.1593,8.1631,8.1823,8.217,8.1823,8.1631,8.1631,8.1285,8.3516,8.8149,8.8818,9.0016,9.1525,8.8779,8.7084,8.6081,8.3072,8.1785,8.1823,8.2554,8.3401,8.4247,8.5093,8.5363,8.5324,0.0,0.0,8.6671,8.6671,8.7248,8.7979,8.7979,0.0,0.0,0.0,9.0094,9.1672,9.4518,9.7557,10.0712,10.4097,10.529,10.5597,10.5597,10.4982,10.4289,10.3789,10.4405,10.5097,10.5597,10.5713,10.5982,10.679,10.7713,10.7905,10.7098,10.9213,11.011,10.8424,10.9414,10.9496,10.7833,10.6088,10.4726,10.3314,10.0671,9.8924,9.8447,9.7238,9.6729,9.7026,9.6641,9.6549,9.6826,9.648,9.5902,9.5189,9.413,9.3417,9.295,9.1165,9.1677,9.3858,9.3891,9.453,9.5557,9.5557,9.5288,9.4826,9.4826,9.4826,9.4903,9.5403,9.5865,9.6288,0.0,0.0,0.0,0.0,0.0,0.0,0.0,0.0,0.0,0.0,0.0,0.0,0.0,0.0,0.0,0.0,7.8938,8.0169,8.1054,8.1093,8.1093,8.1093,8.1093,8.1093,8.1093,8.1093,8.1093,8.1093,8.1285,8.4016,8.9017,8.9863,9.1633,9.3941,9.0517,8.8171,8.6594,8.4055,8.3093,8.317,8.2324,8.2516,8.3362,8.4247,8.417,0.0,0.0,0.0,0.0,0.0,8.6363,8.7055,8.7055,8.7209,0.0,0.0,0.0,8.9863,9.4095,9.6057,9.7634,10.0789,10.2404,10.3289,10.3482,10.3597,10.3405,10.2712,10.3097,10.3789,10.4597,10.4982,10.5405,10.629,10.7098,10.7405,10.6521,10.8406,10.9409,10.8115,10.9098,10.9387,10.8092,10.6293,10.4521,10.2785,10.0497,9.8741,9.7933,9.6691,9.6071,9.6216,9.5783,9.5596,9.572,9.5941,9.5841,9.549,9.4528,9.3821,9.3196,9.0787,9.0642,9.2241,9.2569,9.329,9.4153,9.4153,9.3864,9.3481,9.3481,9.3715,9.4177,9.4792,9.556,9.6288,0.0,0.0,0.0,0.0,0.0,0.0,0.0,0.0,0.0,0.0,0.0,0.0,7.6121,7.7453,7.8438,7.8438,7.9285,8.0169,8.1054,8.1093,8.1093,8.1093,8.1093,0.0,8.1093,8.1093,8.1093,8.1093,8.1862,8.4863,8.9863,9.0748,9.3749,9.8327,9.4903,9.1556,8.8402,8.5863,8.5209,8.5632,8.2439,8.1631,8.2439,8.3324,0.0,0.0,0.0,0.0,0.0,0.0,0.0,0.0,0.0,8.6748,8.7401,0.0,0.0,0.0,8.8632,9.0364,9.221,9.4826,9.8481,10.1712,10.252,10.2712,10.2712,10.2597,10.2597,10.2904,10.3789,10.4597,10.5405,10.629,10.7098,10.7405,10.6521,10.7905,10.8885,10.8787,10.8902,10.8891,10.8803,10.6598,10.4516,10.2818,10.0497,9.8741,9.7933,9.5697,9.4739,9.5446,9.3978,9.3515,9.4211,9.4891,9.5576,9.6232,9.4793,9.4075,9.3953,9.1609,9.0566,9.0597,8.9831,9.0371,9.1771,9.1771,9.2224,9.284,9.284,9.3757,9.512,9.5158,9.5661,9.6288,0.0,0.0,0.0,0.0,0.0,0.0,0.0,0.0,0.0,0.0,0.0,0.0,0.0,7.8323,7.9323,7.9323,8.0131,8.0785,8.1093,8.1093,8.1176,8.1298,8.1311,8.1335,8.1491,8.1501,8.1403,8.1311,8.1581,8.3683,8.7517,9.0017,9.2172,9.3903,9.321,9.2249,9.0825,8.6094,8.4209,8.4286,8.2016,8.1285,8.1631,0.0,0.0,0.0,0.0,0.0,0.0,0.0,0.0,0.0,0.0,0.0,8.6555,8.6555,8.6748,8.7171,8.8363,8.9133,9.0325,9.3403,9.5288,9.6942,9.8865,10.0212,10.0981,10.0981,10.1404,10.2212,10.3597,10.4597,10.5405,10.629,10.7098,10.7405,10.6521,10.779,10.8713,10.8213,10.8598,10.8306,10.6694,10.5283,10.3481,10.1296,9.9388,9.7945,9.7127,9.5331,9.4409,9.4598,9.3583,9.3356,9.4102,9.4842,9.5341,9.5576,9.5072,9.4553,9.4037,9.2156,9.1027,9.0531,8.9719,8.9932,9.0835,9.0835,9.0997,9.1299,9.1827,9.2375,9.3075,9.463,9.5363,9.5678,0.0,0.0,0.0,0.0,0.0,0.0,0.0,0.0,0.0,0.0,0.0,0.0,0.0,0.0,8.0246,8.0246,8.0785,8.1093,8.1093,8.1093,8.1196,8.1395,8.1407,8.1473,8.1719,8.1688,8.1609,8.1407,8.1678,8.3282,8.617,8.8709,9.0556,9.1595,9.1056,9.1748,9.3018,8.8209,8.6324,8.6324,8.317,8.2439,8.3285,0.0,0.0,0.0,0.0,0.0,0.0,0.0,0.0,0.0,0.0,0.0,0.0,0.0,8.5871,8.6373,8.6707,8.6978,8.8031,9.1638,9.2531,9.35,9.7133,9.8404,9.9058,9.9904,10.0712,10.1789,10.3597,10.4597,10.5405,10.629,10.6905,10.7098,10.6521,10.7082,10.751,10.6896,10.7088,10.6584,10.4989,10.3804,10.2395,10.0395,9.8563,9.7247,9.6681,9.4889,9.3748,9.3418,9.2896,9.2987,9.3706,9.445,9.4939,9.5189,9.5189,9.4817,9.4037,9.2727,9.1569,9.0555,8.9784,8.9514,8.9681,8.9681,8.9681,8.9719,9.0243,9.1085,9.222,9.3795,9.4876,9.5657,0.0,0.0,0.0,0.0,0.0,0.0,0.0,0.0,0.0,0.0,0.0,0.0,0.0,0.0,0.0,8.1278,8.1224,8.1185,8.1131,8.1093,8.1196,8.1407,8.1418,8.1522,8.1695,8.1703,8.1627,8.1418,8.2193,8.3707,8.5978,8.6901,8.9094,9.2133,8.8902,9.0171,9.4634,9.2056,9.1518,9.1902,8.594,8.5132,8.7517,0.0,0.0,0.0,8.9594,8.8825,0.0,8.4593,0.0,0.0,0.0,0.0,0.0,0.0,0.0,8.4007,0.0,0.0,0.0,8.9035,9.0043,9.1533,9.7206,9.7268,9.6883,9.9442,10.0596,10.1712,10.3597,10.4482,10.5405,10.629,10.6405,10.6385,10.6423,10.5686,10.518,10.5206,10.4392,10.3871,10.3897,10.2421,10.1091,10.029,9.8043,9.6685,9.6687,9.441,9.2721,9.1877,9.1803,9.2194,9.2955,9.3706,9.445,9.5166,9.5189,9.4842,9.4102,9.3387,9.2191,9.0628,8.982,8.8977,8.8243,8.8169,8.8169,8.8169,8.8206,9.0048,9.2706,9.2744,9.4249,9.6231,0.0,0.0,0.0,0.0,0.0,0.0,0.0,0.0,0.0,0.0,0.0,0.0,7.9738,8.1924,8.384,8.4907,8.3863,8.2816,8.2009,8.14,8.1244,8.1609,8.1627,8.1799,8.2122,8.2125,8.1976,8.1627,8.1822,8.2123,8.2516,8.4632,8.6094,8.7055,8.794,8.9133,9.0171,8.6363,8.7017,9.0171,8.4824,8.4939,8.8209,0.0,0.0,0.0,0.0,8.9094,8.9017,0.0,8.7671,8.7825,0.0,0.0,0.0,0.0,0.0,0.0,8.322,0.0,0.0,0.0,0.0,0.0,9.0967,9.1808,9.2929,9.6612,9.7519,9.8981,10.3097,10.4097,10.4713,10.6213,10.6405,10.6182,10.5601,10.5306,10.4999,10.4401,10.4087,10.3315,10.149,10.0901,10.0021,9.8605,9.7357,9.6657,9.6639,9.441,9.2978,9.2758,9.2134,9.1912,9.2124,9.344,9.4211,9.4424,9.549,9.5598,9.4891,9.4655,9.3756,9.2295,9.1441,9.0298,8.8977,8.7802,8.7325,8.7399,8.7986,8.9066,9.0467,9.2175,9.3541,9.4713,0.0,0.0,0.0,0.0,0.0,0.0,0.0,0.0,0.0,0.0,0.0,0.0,8.2349,8.4479,8.5944,8.6078,8.4749,8.3488,8.253,8.1623,8.1285,8.1664,8.1688,8.1889,8.2304,8.2304,8.2115,8.1688,8.1688,8.1473,8.1131,8.2631,8.3478,8.3862,8.5016,8.6132,8.6901,8.367,8.5055,8.9133,8.617,8.7094,9.0248,8.994,9.0671,0.0,0.0,0.0,9.2172,8.9556,8.8517,0.0,0.0,0.0,0.0,0.0,0.0,0.0,0.0,0.0,0.0,8.4807,0.0,0.0,8.9305,8.9629,9.0323,9.4518,9.5567,9.698,10.0981,10.2289,10.3405,10.5097,10.5597,10.581,10.5701,10.511,10.4372,10.3588,10.289,10.1795,9.9985,9.9469,9.8985,9.8389,9.7027,9.5884,9.5168,9.4153,9.3272,9.2574,9.206,9.1803,9.1803,9.3319,9.4102,9.413,9.5576,9.5902,9.5189,9.5189,9.4553,9.3372,9.2213,9.0987,8.975,8.8159,8.7325,8.7068,8.7509,8.838,8.9496,9.1178,9.2683,9.4058,0.0,0.0,0.0,0.0,0.0,0.0,0.0,0.0,0.0,0.0,8.5346,8.5329,8.6448,8.7702,0.0,0.0,8.5029,8.3846,8.2902,8.1758,8.1311,8.1631,8.1687,8.1855,8.2221,8.2222,8.2056,8.1687,8.1687,8.148,8.1093,8.1093,0.0,0.0,8.14,8.2362,8.4401,8.3016,8.4632,8.8171,8.844,9.0171,9.2787,9.4287,9.5441,9.6288,9.6288,9.6288,9.5595,9.0864,8.8055,0.0,0.0,0.0,0.0,0.0,8.2948,0.0,0.0,0.0,0.0,0.0,8.4963,0.0,8.9654,8.9038,8.8572,9.2672,9.3869,9.5057,9.798,9.9827,10.1404,10.2904,10.4212,10.5273,10.6287,10.5112,10.3803,10.3101,10.1513,10.0068,9.932,9.8361,9.8107,9.8776,9.6843,9.4997,9.3455,9.3969,9.3565,9.1987,9.184,9.1803,9.1803,9.3319,9.4102,9.413,9.5576,9.5961,9.5341,9.5341,9.4915,9.4109,9.2488,9.1311,9.0385,8.883,8.7723,8.6995,8.7098,8.7993,8.9384,9.0222,9.1895,9.3824,0.0,0.0,0.0,0.0,0.0,0.0,0.0,0.0,0.0,0.0,8.8623,8.9852,9.2954,0.0,0.0,0.0,8.8228,8.568,8.3789,8.2211,8.1371,8.1458,8.1458,8.1572,8.1825,8.1831,8.168,8.1458,8.1458,8.1349,8.1093,8.1093,0.0,0.0,8.117,8.1362,8.19,8.2901,8.3824,8.4747,8.6824,8.9979,9.348,9.3826,9.4941,9.6288,9.6288,9.6288,9.5942,9.3518,9.1133,8.8786,0.0,0.0,0.0,0.0,0.0,0.0,0.0,0.0,0.0,0.0,0.0,0.0,8.4788,8.5071,8.6455,8.9176,8.9277,9.0517,9.5826,9.7596,9.8365,9.8673,10.1789,10.4718,10.6197,10.5611,10.4892,10.4694,10.2707,10.0885,10.01,9.8761,9.7688,9.721,9.6726,9.6061,9.5107,9.4556,9.3859,9.2868,9.217,9.1803,9.1803,9.3319,9.4102,9.413,9.5576,9.6232,9.6098,9.6098,9.57,9.4887,9.3207,9.1752,9.0373,8.8809,8.7669,8.7064,8.7683,8.8383,8.9318,9.068,9.1858,9.289,0.0,0.0,0.0,0.0,0.0,0.0,0.0,0.0,9.114,9.157,9.2114,9.2998,9.4414,0.0,0.0,0.0,0.0,0.0,0.0,0.0,8.1928,8.1711,8.1719,8.2202,8.328,8.2362,8.2161,8.2844,8.1874,8.1311,8.1093,8.1093,8.0862,0.0,8.09,8.0862,8.0592,8.2708,8.3862,8.4555,8.794,9.0556,9.2633,9.4364,9.5557,9.6288,9.6288,9.6019,9.5326,9.3172,9.2172,0.0,0.0,8.707,8.7764,0.0,8.5087,8.5023,0.0,0.0,0.0,8.4676,0.0,0.0,0.0,8.4909,8.5372,8.8248,8.7741,8.8055,9.2326,9.3787,9.4788,9.6057,9.875,10.1382,10.3602,10.431,10.4615,10.4607,10.2411,10.0498,9.9799,9.8568,9.7689,9.7282,9.7246,9.6905,9.6013,9.5227,9.4247,9.3065,9.2621,9.2229,9.1803,9.295,9.3735,9.413,9.5212,9.5922,9.6288,9.6288,9.6117,9.5682,9.4446,9.3062,9.158,9.0377,8.8979,8.7615,8.7953,8.8309,8.8794,9.0195,9.1264,9.2103,8.8945,0.0,0.0,0.0,0.0,0.0,0.0,0.0,9.4453,9.4566,9.5191,9.5385,9.479,0.0,0.0,0.0,0.0,0.0,0.0,0.0,0.0,8.2106,8.2177,8.2862,8.4246,8.2886,8.2643,8.374,8.2145,8.1244,8.1093,8.1093,8.0708,8.0092,8.0785,8.09,8.0669,8.2901,8.4555,8.5978,8.9863,9.1364,9.1556,9.4826,9.6057,9.6057,9.6249,9.5865,9.4903,9.2672,9.2826,9.3056,8.7979,8.9056,0.0,0.0,0.0,0.0,0.0,0.0,0.0,0.0,0.0,8.6043,0.0,0.0,0.0,8.7693,8.6832,8.6401,8.894,8.9979,9.1133,9.321,9.5365,9.7442,9.9327,10.1373,10.2804,10.3321,10.1381,9.9703,9.9135,9.8011,9.7428,9.7764,9.7507,9.7011,9.6309,9.5546,9.4452,9.3056,9.2826,9.2468,9.1803,9.2599,9.3295,9.3907,9.4668,9.5318,9.5882,9.5882,9.5882,9.5862,9.5232,9.4035,9.2561,9.177,9.0179,8.8237,8.8472,8.857,8.8708,9.0087,9.1097,9.1994,8.9179,9.0039,0.0,0.0,9.3281,0.0,0.0,0.0,9.6401,9.6925,9.7073,9.7304,9.7769,0.0,0.0,0.0,0.0,0.0,8.841,0.0,0.0,0.0,8.2751,0.0,8.2065,8.2436,8.2322,8.1735,8.1319,8.1139,8.1093,0.0,8.1054,8.0977,8.1054,8.1862,8.3247,8.4286,8.6094,8.8517,9.1248,9.1902,9.1479,9.4134,9.5134,9.5249,9.6019,9.6249,9.598,0.0,9.4672,9.448,0.0,9.1518,9.1248,0.0,0.0,0.0,0.0,0.0,0.0,0.0,8.997,0.0,0.0,0.0,8.5774,8.5427,0.0,8.467,8.7209,0.0,0.0,8.8209,9.1556,9.398,9.3557,9.6232,9.9056,10.128,10.0092,9.8984,9.8909,9.6825,9.6128,9.7588,9.6317,9.5479,9.5432,9.4751,9.394,9.3024,9.2296,9.1875,9.1803,9.2599,9.3051,9.3146,9.3878,9.4265,9.4345,9.4345,9.4345,9.4334,9.4116,9.3187,9.1759,9.0879,8.9631,8.8347,8.9697,9.0205,9.0329,9.1772,9.2804,9.3445,9.0625,9.1211,0.0,0.0,9.3398,0.0,0.0,0.0,9.8593,9.8344,9.9084,10.0113,10.132,0.0,0.0,0.0,0.0,9.1556,0.0,0.0,0.0,0.0,0.0,0.0,0.0,8.3307,8.2697,8.2863,8.1687,8.1093,8.1093,0.0,0.0,8.1785,8.1785,8.3016,8.5055,8.544,8.7055,8.9594,9.1672,9.2556,9.2941,9.548,9.6749,9.7173,9.7057,9.7019,9.6634,0.0,9.4518,0.0,0.0,0.0,0.0,0.0,0.0,0.0,0.0,0.0,0.0,0.0,0.0,0.0,8.7286,0.0,8.5593,0.0,0.0,0.0,0.0,0.0,0.0,0.0,8.9325,9.0825,9.0979,9.221,9.4595,9.8634,9.7633,9.6652,9.6676,9.5776,9.5678,9.6904,9.5442,9.4726,9.5272,9.4545,9.3784,9.3019,9.2666,9.2262,9.1803,9.2124,9.2532,9.3019,9.3735,9.4102,9.413,9.4528,9.4502,9.4092,9.4045,9.3645,9.3018,9.2263,9.1249,9.0317,9.1,9.0889,9.0637,9.2542,9.3409,9.3749,9.2265,0.0,0.0,9.2656,9.332,0.0,9.6211,9.8242,9.949,9.9192,9.9866,10.132,10.3792,10.2195,0.0,0.0,9.8946,9.569,0.0,0.0,8.8091,0.0,0.0,0.0,0.0,0.0,0.0,8.3909,8.2497,8.19,8.2131,0.0,0.0,0.0,8.3247,8.4747,8.7171,8.7671,8.944,9.2095,9.3364,9.4518,9.5595,9.698,9.8057,9.8673,9.7827,9.7519,9.7096,9.4441,9.4788,0.0,9.4134,0.0,0.0,0.0,0.0,0.0,9.2405,0.0,0.0,0.0,0.0,0.0,0.0,0.0,0.0,0.0,0.0,0.0,0.0,0.0,0.0,0.0,0.0,8.9171,8.9517,8.9556,9.1018,9.4941,9.4749,9.4523,9.5036,9.4502,9.461,9.5723,9.4033,9.3498,9.4545,9.3897,9.3305,9.3019,9.2798,9.2399,9.1803,9.2019,9.2434,9.3019,9.3735,9.4102,9.413,9.463,9.4502,9.3821,9.4019,9.3878,9.344,9.2847,9.2152,9.1445,9.1671,9.1375,9.096,9.2817,9.3659,9.392,9.3828,9.3828,9.3594,9.2734,9.332,9.4492,9.6211,9.7226,9.8182,9.9341,9.885,10.0104,10.458,10.2809,0.0,0.0,0.0,9.8672,9.8518,0.0,8.9758,0.0,0.0,8.7141,0.0,0.0,0.0,0.0,8.3639,8.3939,8.4747,0.0,0.0,0.0,8.5632,8.7401,8.9902,9.1595,9.421,9.725,9.7326,9.8365,9.9712,0.0,9.8057,9.8673,9.7827,0.0,0.0,9.648,9.6249,0.0,0.0,0.0,0.0,0.0,0.0,0.0,0.0,0.0,0.0,9.2249,0.0,0.0,0.0,0.0,8.9517,0.0,0.0,0.0,0.0,0.0,0.0,0.0,0.0,0.0,0.0,8.8748,8.9094,9.0056,9.1595,9.321,9.4846,9.2881,9.2214,9.3876,9.1837,9.1223,9.2809,9.2174,9.2162,9.295,9.2227,9.184,9.1803,9.2566,9.2955,9.3019,9.3735,9.4102,9.4102,9.413,9.3735,9.3083,9.3793,9.3257,9.1874,9.1808,9.1309,9.0735,9.1441,9.1683,9.1783,9.2672,9.3455,9.419,0.0,0.0,9.4961,9.2969,9.332,9.4687,9.6953,9.8346,10.0282,10.3602,10.4092,10.6005,11.0717,10.9802,10.9213,0.0,0.0,10.5213,10.2404,9.8764,0.0,0.0,0.0,9.1267,0.0,0.0,0.0,0.0,0.0,8.5709,8.6555,8.567,0.0,0.0,0.0,8.9248,9.171,9.2826,9.4595,9.6788,9.7904,10.0096,10.2404,0.0,9.9712,10.0289,9.8865,9.8365,0.0,9.7365,9.6749,9.6403,9.6942,9.6175,9.5175,9.5693,9.5886,0.0,0.0,0.0,9.7669,9.4503,0.0,0.0,0.0,0.0,0.0,0.0,0.0,0.0,0.0,0.0,0.0,0.0,0.0,0.0,0.0,8.6863,8.6286,8.6555,8.9094,9.1018,9.1556,9.1412,9.1573,9.2266,9.0547,9.0015,9.1293,9.1111,9.1087,9.1417,9.1653,9.209,9.2566,9.2858,9.2987,9.3019,9.3735,9.385,9.3387,9.3878,9.3963,9.3706,9.3477,9.3356,9.3257,9.2202,9.1921,9.2158,9.189,9.1751,9.1924,9.3237,9.3878,9.413,9.6523,9.625,9.5508,9.3828,9.4409,9.5573,9.6942,9.968,10.2514,10.5182,10.7199,11.0115,11.4701,11.3983,11.3291,0.0,11.2406,10.9598,10.5097,10.3482,0.0,9.9365,9.7442,0.0,0.0,0.0,0.0,0.0,0.0,8.8671,8.9171,8.8017,0.0,0.0,8.9902,9.1287,9.348,9.5249,9.6788,9.8173,9.925,10.0981,0.0,0.0,10.1212,10.202,0.0,9.925,9.9173,9.8596,9.7865,9.7326,9.8173,9.7289,9.6017,9.6266,9.6351,9.6473,9.6992,9.7751,0.0,9.6309,9.4686,0.0,9.0627,0.0,0.0,0.0,0.0,0.0,0.0,0.0,0.0,0.0,0.0,0.0,0.0,8.5593,8.5016,8.5286,8.7517,8.9248,8.9863,8.9896,8.9884,8.9777,8.8264,8.763,8.8423,8.9271,8.9895,9.0188,9.1216,9.2194,9.2987,9.3264,9.3387,9.3417,9.413,9.4102,9.3417,9.4157,9.4345,9.4102,9.3878,9.3764,9.3618,9.2666,9.2365,9.2498,9.2019,9.1803,9.1912,9.2918,9.347,9.3706,9.6875,9.5898,9.5351,9.539,9.6451,9.7085,9.6392,10.0979,10.4514,10.4489,10.8205,11.2287,11.632,11.5215,11.5215,11.76,11.5484,11.2099,10.7213,10.7521,0.0,0.0,10.1289,10.0404,9.7942,0.0,0.0,0.0,0.0,0.0,9.2633,9.0902,9.0517,0.0,9.221,9.348,9.5134,9.8557,10.0481,10.1404,10.1404,10.152,10.1597,10.152,10.2597,10.3712,10.1096,10.0173,10.0173,10.0173,9.9635,9.9058,9.9904,9.9083,9.7662,9.6752,9.6553,9.6598,9.6523,9.7125,9.7723,9.7692,9.6448,0.0,0.0,0.0,9.5824,0.0,0.0,0.0,0.0,0.0,0.0,0.0,0.0,0.0,0.0,0.0,8.5209,8.6055,8.6824,8.794,8.9633,8.8384,8.729,8.6668,8.516,8.439,0.0,8.6917,8.8535,8.9344,9.0959,9.2194,9.2987,9.3735,9.4102,9.4102,9.4842,9.4842,9.4184,9.4866,9.4842,9.4238,9.4915,9.4398,9.3114,9.3083,9.2566,9.1839,9.1839,9.1839,9.1839,9.184,9.2331,9.3051,9.7461,9.7226,9.7265,9.789,9.7159,9.7017,9.866,10.1611,10.4903,10.8516,11.2113,11.561,11.9014,11.8407,11.7792,11.7792,11.6599,0.0,0.0,0.0,0.0,10.8713,10.7021,10.5097,10.3212,10.0481,0.0,9.7173,0.0,0.0,9.5288,9.3557,9.2826,0.0,9.398,9.4249,9.4249,9.7673,10.0289,10.2289,10.2981,10.4405,10.5905,0.0,10.5213,10.6213,10.2404,10.1404,10.1981,10.1981,10.1404,10.0712,10.0904,10.0326,9.9201,9.7708,9.7752,9.8287,9.8244,9.8934,9.9703,10.0202,9.8632,9.6845,0.0,0.0,0.0,0.0,0.0,0.0,0.0,0.0,0.0,0.0,0.0,0.0,0.0,0.0,0.0,8.6901,8.617,8.6209,8.7863,8.7089,8.6183,8.5497,8.4499,8.4318,8.5237,8.6999,8.8154,8.85,9.0665,9.2194,9.2987,9.3735,9.4102,9.4102,9.4842,9.5096,9.4915,9.5119,9.5385,9.572,9.5363,9.5001,9.4579,9.4047,9.3349,9.2699,9.2699,9.2699,9.2599,9.2019,9.2662,9.3735,9.9453,10.0,10.0586,10.0703,10.0903,10.1317,10.1912,10.3488,10.5899,10.9412,11.3411,11.6514,11.7991,11.8985,11.9408,11.8908,11.7792,0.0,11.4791,0.0,0.0,11.1598,11.0791,10.9483,10.7405,10.4405,0.0,9.9904,0.0,0.0,9.6249,9.4518,9.371,9.3749,9.4595,9.4711,9.448,9.7904,10.0789,10.3212,10.3712,10.4982,0.0,10.5905,10.629,10.679,10.4405,10.3405,10.3212,10.3597,10.3097,10.252,10.2904,10.2404,10.1497,10.0183,10.0185,10.0604,10.0604,10.0925,10.1596,10.27,10.1105,9.9364,9.9726,9.933,9.8353,0.0,0.0,0.0,0.0,0.0,0.0,0.0,0.0,0.0,0.0,0.0,0.0,0.0,8.6901,8.694,8.7863,8.5824,8.4314,8.4015,8.3555,8.3263,0.0,8.6594,8.8238,8.7571,9.137,9.3438,9.3477,9.4956,9.53,9.4579,9.4987,9.5201,9.5237,9.5567,9.6156,9.6915,9.641,9.6009,9.5661,9.492,9.4157,9.3507,9.3507,9.3677,9.3878,9.3108,9.3349,9.4047,10.1712,10.3006,10.3983,10.2889,10.5396,10.7277,10.6094,10.6995,10.8391,10.9983,11.4484,11.7176,11.6484,11.8908,12.0485,12.0485,0.0,11.6984,11.4714,11.5907,11.5291,11.2291,11.3407,11.3099,11.0714,10.7905,0.0,0.0,0.0,0.0,9.6249,9.4634,9.3864,9.3903,9.4634,9.5095,9.5518,9.8596,10.1481,10.3905,10.4097,10.4789,10.5905,10.6597,10.679,10.6713,10.6597,10.5597,10.4405,10.5213,10.4982,10.4482,10.5097,10.4905,10.4188,10.3188,10.2879,10.2993,10.2879,10.2879,10.3393,10.4897,10.3585,10.2085,10.3087,10.1306,9.9159,9.8437,9.8468,9.8197,0.0,0.0,0.0,0.0,0.0,0.0,0.0,0.0,0.0,0.0,0.0,0.0,8.8863,8.5286,8.2984,8.299,8.2702,8.2005,0.0,0.0,8.8048,8.687,9.2044,9.4727,9.4442,9.6501,9.6928,9.5684,9.57,9.5672,9.5749,9.6405,9.712,9.7853,9.7709,9.7227,9.6509,9.5799,9.5029,9.4238,9.413,9.4528,9.5119,9.4476,9.4319,9.4372,10.1601,10.3288,10.419,10.1887,10.5097,10.9117,11.2205,11.3993,11.5611,11.7106,12.0485,12.2716,12.2601,12.1793,12.1408,12.1408,11.9792,0.0,0.0,0.0,0.0,11.5676,11.5291,11.4484,11.3407,10.879,10.579,0.0,0.0,0.0,9.6288,9.5249,9.4749,9.4788,9.4903,9.5749,9.7134,9.8481,0.0,10.3982,10.5405,10.729,10.929,10.9483,10.9098,10.8406,10.7713,10.679,10.6097,10.6982,10.7213,10.6905,10.6405,10.6597,10.6609,10.4411,10.4176,10.4621,10.3985,10.4315,10.4998,10.5875,10.5305,10.4684,10.5627,10.38,10.1695,10.0885,9.9288,9.7669,9.6684,0.0,0.0,0.0,0.0,0.0,0.0,0.0,0.0,0.0,0.0,8.9034,8.9619,8.7748,8.5945,8.4609,8.3171,8.2312,0.0,0.0,8.5745,0.0,9.0042,9.293,0.0,0.0,9.7195,9.834,9.8218,9.819,9.8186,9.8305,9.846,9.8634,9.8558,9.8077,9.7308,9.7154,9.6253,9.4939,9.4345,9.4528,9.5166,9.5072,9.5385,9.5841,10.5982,10.6587,10.7502,10.829,11.0585,11.3815,11.8284,12.0285,12.0791,11.9277,12.0485,12.1293,12.0908,12.1716,12.2293,12.2293,12.0716,11.9485,11.91,11.8292,11.76,11.7215,11.6407,0.0,11.4714,11.0483,10.729,10.5097,0.0,0.0,0.0,0.0,9.4749,9.4326,9.4326,9.5518,9.7557,9.8442,0.0,10.4097,10.6213,10.829,11.0214,11.0714,11.0291,10.9483,10.8598,10.779,10.7098,10.7021,10.729,10.7598,10.7213,10.7598,10.8094,10.6889,10.6821,10.7013,10.6591,10.6821,10.7196,10.7612,10.7098,10.6597,10.7021,10.5405,10.3478,10.2304,10.1094,9.9775,9.7996,9.5303,0.0,0.0,0.0,0.0,0.0,0.0,0.0,0.0,0.0,0.0,0.0,0.0,8.7081,8.4423,8.3439,8.2803,0.0,0.0,8.565,0.0,0.0,0.0,9.5894,0.0,9.8904,9.8926,9.8826,9.9019,9.9481,9.9481,9.9712,10.0096,9.9673,9.925,9.8788,9.7865,9.6827,9.572,9.5385,9.5468,9.5762,9.5762,9.6,9.6251,11.0889,11.0803,11.1715,11.4996,11.6684,11.8904,12.2798,12.4817,12.4716,12.1408,12.0793,12.0485,11.9792,12.1793,12.3216,12.3216,12.16,12.0485,12.0292,11.91,11.8215,11.7792,11.71,11.6407,11.5599,11.2214,10.8906,0.0,0.0,0.0,0.0,0.0,0.0,0.0,9.4172,9.5441,0.0,0.0,10.1212,10.4405,10.6905,10.8983,11.0598,11.1214,11.0983,11.0098,10.9406,10.8713,10.779,10.7021,10.7098,10.7713,10.7713,10.829,10.8906,10.8906,10.8906,10.8906,10.9098,10.8906,10.8713,10.8906,10.8213,10.7482,10.7713,10.6405,10.4713,10.3405,10.2689,10.159,9.8997,9.692,0.0,0.0,0.0,0.0,0.0,0.0,0.0,0.0,0.0,0.0,8.9769,8.8845,8.6929,8.3675,8.3384,8.3026,8.2232,0.0,0.0,0.0,0.0,9.4205,9.5783,0.0,10.0302,9.9362,9.9346,9.9673,10.0404,10.0404,10.0712,10.1289,10.0596,10.0289,9.9981,9.8404,9.7403,9.6826,9.6826,9.6826,9.6826,9.6826,9.6711,9.6557,11.32,11.4214,11.5399,11.6505,11.9801,12.2701,12.3787,12.6087,12.7525,12.7101,12.6409,12.5986,12.5909,12.4716,12.3985,12.3985,12.2408,12.11,12.0408,12.0216,11.9408,11.7907,11.7715,11.7292,11.6407,11.3099,11.0098,0.0,0.0,0.0,0.0,0.0,0.0,0.0,0.0,0.0,0.0,10.0096,10.2597,10.5213,10.779,10.979,11.1406,11.1522,11.0983,11.0214,11.0098,10.9483,10.8713,10.7905,10.7598,10.7713,10.7713,10.829,10.8906,10.8906,10.8906,10.9098,10.9906,10.8983,10.7982,10.8713,10.7713,10.6713,10.7521,10.6405,10.5097,10.4905,10.3081,10.07,9.8196,9.7617,9.7211,0.0,0.0,0.0,0.0,0.0,0.0,0.0,0.0,0.0,0.0,8.7329,8.5389,8.297,8.2643,8.2344,0.0,0.0,0.0,8.6507,8.9382,9.2965,9.7358,9.8545,9.9822,10.1221,10.1085,10.1096,10.1212,10.1212,10.1212,10.1289,10.1212,10.0789,9.9981,9.9058,9.8634,9.8557,9.8557,9.8557,9.8557,9.8557,9.8057,9.7403,11.7787,11.7598,11.881,12.3081,12.3416,12.4211,12.7419,12.7909,12.7909,12.7909,12.7217,12.6678,12.6678,12.5101,12.4101,12.4101,12.2601,12.1677,12.1793,12.0908,12.0216,12.01,11.86,11.76,11.7292,11.4484,11.1791,0.0,0.0,0.0,0.0,0.0,0.0,0.0,0.0,9.8557,9.9942,10.202,10.4289,10.679,10.8906,11.0406,11.1522,11.1522,11.1291,11.0906,11.0406,10.9983,10.9598,10.8713,10.8406,10.829,10.7905,10.829,10.8983,10.9483,10.9713,10.9906,11.0714,11.0521,11.0098,11.0406,10.9598,10.8598,10.8482,10.7482,10.6405,10.529,10.351,10.1805,10.0808,9.983,9.9409,0.0,0.0,0.0,0.0,0.0,0.0,0.0,0.0,0.0,0.0,8.5662,8.4997,8.5658,8.3639,8.2359,0.0,0.0,0.0,8.7731,0.0,9.1994,9.6805,9.8735,10.0183,10.1307,10.1305,10.1289,10.1289,10.1289,10.1289,10.1289,10.1289,10.0789,10.0096,9.9712,9.925,9.8788,9.8788,9.8788,9.8788,9.8788,9.8596,9.8212,12.231,12.1792,12.2799,12.8384,12.7297,12.6878,13.0306,12.941,12.8217,12.7909,12.6986,12.6294,12.6294,12.5216,12.4409,12.4101,12.3293,12.2908,12.3216,12.2293,12.1716,12.16,11.9908,0.0,11.8215,11.6215,11.3907,11.1291,10.8598,0.0,0.0,0.0,0.0,0.0,9.9981,10.1096,10.252,10.4482,10.6597,10.8598,11.0483,11.1714,11.2214,11.2022,11.1906,11.1791,11.1214,11.0791,11.0483,11.0098,10.9906,10.9483,10.8406,10.8406,10.9098,10.9906,10.9983,11.0098,11.1214,11.1098,11.0791,11.1098,11.0291,10.929,10.8713,10.7905,10.6905,10.5405,10.4212,10.3289,10.302,10.1981,10.1481,10.2404,0.0,0.0,0.0,0.0,0.0,0.0,0.0,8.8556,8.6324,8.4667,8.4422,8.6115,8.4261,8.3072,0.0,0.0,0.0,0.0,0.0,0.0,9.6371,9.8926,10.0497,10.1008,10.121,10.1289,10.1289,10.1289,10.1289,10.1289,10.1289,10.1019,10.0481,10.0481,10.0096,9.9558,9.9558,9.9558,9.9558,9.9558,9.923,9.8759,12.6317,12.6801,12.7703,13.1127,13.1628,13.1602,13.1679,13.0294,12.8909,12.8025,12.6409,12.5409,12.5409,12.5409,12.4986,12.4216,12.4909,12.4986,12.4101,12.4909,12.4178,0.0,0.0,12.0793,11.91,11.8215,11.6484,11.3984,0.0,0.0,10.629,0.0,10.3789,10.3789,10.3789,10.4289,10.5213,10.779,10.9406,11.0406,11.2906,11.3984,11.3907,11.3022,11.2714,11.2714,11.2714,11.2214,11.1598,11.2406,11.2099,11.1214,10.9406,10.8906,10.9098,10.9906,10.9598,10.929,11.1021,11.0214,10.9098,10.9983,10.8983,10.7713,10.7713,10.7021,10.6213,10.529,10.5097,10.4789,10.3982,10.3905,10.3597,10.2712,0.0,0.0,0.0,0.0,0.0,0.0,9.1739,8.9825,8.644,8.4593,8.3372,8.2778,8.4069,0.0,0.0,0.0,0.0,8.6459,9.1408,0.0,9.6386,9.8926,10.0185,10.0209,10.0987,10.1289,10.1289,10.1289,10.1289,10.1289,10.1289,10.1289,10.1289,10.1289,10.1289,10.1289,10.1289,10.1289,10.1289,10.1289,10.0288,9.8888,12.8109,12.8916,12.9794,13.141,13.1679,13.1679,13.1679,13.0294,12.8909,12.8025,12.6986,12.5601,12.3909,12.4216,12.4409,0.0,12.4909,12.5293,0.0,12.5216,12.4793,12.3408,12.2177,12.11,11.9908,11.91,11.7984,11.6599,0.0,0.0,0.0,10.7021,10.6405,10.4789,10.6482,10.779,10.8713,11.0714,11.1983,11.2906,11.3714,11.3599,11.3099,11.2791,11.2406,11.1906,11.1906,11.2099,11.2406,11.2599,11.2906,11.3099,11.2599,11.1598,11.0791,11.1714,11.1714,11.1598,11.2214,11.1906,11.1406,11.1214,11.0214,10.9406,10.9406,10.829,10.7021,10.6213,10.602,10.5905,10.5713,10.5597,10.552,10.5213,10.3992,0.0,0.0,0.0,0.0,0.0,8.9988,8.7902,8.3901,8.4593,0.0,0.0,8.5608,0.0,0.0,0.0,0.0,0.0,9.1619,0.0,9.8877,10.0283,10.13,10.1793,10.2094,10.1904,10.1289,10.1289,10.1289,10.1289,10.1289,10.1289,10.1289,10.1289,10.099,10.0604,10.0604,10.0195,9.9758,9.9758,9.9411,9.8799,12.991,13.0602,13.1102,13.1602,13.1679,13.1679,13.1679,13.0294,12.8909,12.8025,12.6601,12.4986,12.3101,12.3601,0.0,12.4101,12.5794,12.6601,12.5909,12.6486,12.5986,12.4216,12.3101,12.1985,12.0793,12.0292,0.0,11.8715,11.6215,11.3214,10.979,11.0483,10.9983,10.8482,11.0098,11.1098,11.1714,11.3099,11.3984,11.4484,11.4791,11.4407,11.3599,11.3291,11.2714,11.2022,11.2291,11.2599,11.2791,11.3791,11.4291,11.4484,11.4791,11.4019,11.2911,11.2695,11.2486,11.2092,11.1787,11.1989,11.2005,11.1223,11.06,11.0098,10.979,10.8713,10.7598,10.7405,10.729,10.729,10.729,10.7098,10.6905,10.6905,10.5213,10.3212,10.1096,0.0,0.0,0.0,0.0,0.0,0.0,8.6901,8.8017,0.0,0.0,0.0,0.0,0.0,8.9179,9.0417,9.3419,9.6623,10.0096,10.1307,10.192,10.2097,10.1817,10.1296,10.0421,10.0421,10.0573,10.0906,10.0906,10.0973,10.1308,10.099,10.0611,10.0198,9.9873,9.9428,9.9007,9.9007,9.8831,9.8423,13.1487,13.1679,13.1679,13.1679,13.1679,13.1679,13.1602,13.0217,12.8909,12.7909,12.5717,12.3909,12.3101,12.3716,12.4216,12.4293,0.0,0.0,12.6909,12.8409,12.7794,12.4409,12.4216,12.3408,12.1677,12.16,12.11,12.0216,11.7792,11.6176,11.5291,11.4484,11.4099,11.3984,11.4099,11.4099,11.4099,11.4984,11.5407,11.5407,11.6176,11.5984,11.5215,11.4407,11.3483,11.2791,11.3714,11.3483,11.3214,11.5599,11.5984,11.5484,11.6208,11.5791,11.4811,11.3314,11.2197,11.128,11.0483,11.078,11.1174,11.0493,11.03,11.0098,10.9213,10.8406,10.8098,10.879,10.8906,10.8983,10.8983,10.829,10.779,10.7713,10.5482,10.2904,10.0404,0.0,0.0,0.0,0.0,0.0,9.0094,9.0864,9.1441,0.0,0.0,0.0,0.0,0.0,9.1162,9.173,9.6401,9.9365,10.0404,10.1904,10.2192,10.1307,10.0497,9.9706,9.9007,9.9007,9.9401,10.0073,10.0073,10.0482,10.1091,10.0413,10.0087,9.9949,9.9207,9.889,9.8861,9.8861,9.8374,9.7729,13.1487,13.1679,13.1679,13.1679,13.1679,13.1487,13.091,12.991,12.8717,12.7178,12.5909,12.4793,12.3909,12.4601,12.5409,12.5986,12.7986,12.8717,12.7717,12.9217,12.8986,12.6178,12.5409,12.4293,12.2601,12.1908,12.0908,11.9408,11.8792,11.7407,11.5291,11.5099,11.4599,11.3984,11.4714,11.4984,11.4984,11.5907,11.6176,11.6176,11.6407,11.5984,11.5291,11.5099,11.3984,11.2791,11.3714,11.3907,11.3907,11.5176,11.5907,11.6109,11.5677,11.4878,11.4326,11.4508,11.4011,11.3119,11.218,11.1701,11.1409,11.1195,11.1219,11.0983,11.0098,10.9713,10.9483,10.8983,10.9406,10.9906,10.9906,10.9213,10.8406,10.779,10.4982,10.1981,9.9481,9.8019,0.0,0.0,9.321,9.321,9.021,9.2441,9.3557,0.0,0.0,9.4696,9.2453,9.5192,9.629,9.5156,9.8227,10.0875,10.2981,10.3405,10.2816,10.1415,9.9945,9.9179,9.9007,9.9007,9.9122,9.9291,9.9291,9.9373,9.9536,9.9346,9.892,9.8342,9.8188,9.7766,9.7246,9.7246,9.7137,9.6952,13.1602,13.1679,13.1679,13.1679,13.1679,13.141,13.0602,12.9794,12.8717,12.7409,12.5794,12.4793,12.4716,12.5101,12.5794,12.6601,12.8217,12.8986,12.8525,12.9794,12.941,12.6794,12.5909,12.4601,12.2908,12.1985,12.0985,11.96,11.9292,11.8215,11.6407,11.5984,11.5599,11.5215,11.5599,11.5792,11.5907,11.6292,11.6484,11.6484,11.6484,11.5984,11.5291,11.5291,11.4484,11.3407,11.4291,11.4599,11.4708,11.5083,11.5522,11.5779,11.4887,11.3973,11.3396,11.3802,11.3286,11.2475,11.1617,11.1392,11.1502,11.1891,11.1698,11.1391,11.138,11.1098,11.0714,11.0214,11.0483,11.0791,11.0791,10.979,10.8482,10.729,10.4212,10.1096,9.8557,9.7134,0.0,9.321,9.4518,9.5018,9.3518,9.5403,9.6365,9.5441,9.7019,0.0,9.5588,9.8307,9.9038,9.6992,9.9786,10.1887,10.3289,10.2904,10.2123,10.0906,9.9585,9.8621,9.7931,9.7931,9.8124,9.8467,9.8467,9.8839,9.9544,9.9154,9.8782,9.8358,9.7978,9.7396,9.6685,9.6685,9.6685,9.6685,13.1679,13.1679,13.1679,13.1679,13.1679,13.141,13.041,12.9717,12.8794,12.7794,12.5717,12.4601,12.5486,12.5601,12.5986,12.6986,12.8486,12.941,12.941,13.0217,12.9679,12.7409,12.6294,12.4986,12.3293,12.2177,12.1177,12.0292,11.96,11.8792,11.7792,11.6984,11.6599,11.6484,11.6484,11.6484,11.6484,11.6484,11.6484,11.6484,11.6484,11.6099,11.5484,11.5484,11.4907,11.4291,11.5176,11.5407,11.5301,11.5396,11.5321,11.4993,11.4205,11.3327,11.2507,11.2313,11.181,11.1111,11.0377,11.0705,11.1469,11.2084,11.1805,11.1571,11.2302,11.1999,11.15,11.15,11.1515,11.1483,11.1483,10.9996,10.8213,10.6521,10.3289,10.0212,9.748,0.0,9.5231,9.4868,9.6021,9.7096,9.7669,9.8613,9.9249,9.9364,9.9942,9.9981,9.9404,10.0712,10.0589,9.8701,10.1297,10.2789,10.2789,10.1786,10.0979,10.0303,9.9288,9.8124,9.6877,9.6762,9.7027,9.7629,9.7629,9.8478,9.9799,9.9199,9.9002,9.9008,9.8205,9.7566,9.7016,9.6795,9.6795,9.6869,13.1679,13.1679,13.1679,13.1679,13.1679,13.1179,12.9602,12.9294,12.8602,12.7101,12.5909,12.5486,12.6409,12.6486,12.7101,12.8717,12.9717,13.0294,13.0294,13.1102,13.0987,12.9987,12.8409,12.6717,12.4986,12.2793,12.1177,12.0292,12.0216,11.9292,11.7792,11.7715,11.7215,11.6484,11.6484,11.6484,11.6484,11.6484,11.6484,11.6484,11.6484,11.6407,11.6292,11.6292,11.5792,11.5215,11.5984,11.5907,11.5407,11.6101,11.5791,11.4993,11.4205,11.3327,11.2388,11.16,11.128,11.1221,11.1001,11.1223,11.1206,11.0572,11.0908,11.1393,11.1513,11.1399,11.1286,11.1286,11.1397,11.1415,11.1415,10.9513,10.729,10.5597,10.2481,9.9135,9.5826,0.0,9.6308,9.4239,9.7265,9.9262,9.873,10.0101,10.1297,10.1984,10.1524,10.1404,10.202,10.2289,10.2595,10.2919,10.3403,10.3712,10.3712,10.221,10.0996,10.0202,9.8727,9.7864,9.7629,9.699,9.6762,9.6877,9.6877,9.7431,9.8244,9.813,9.8496,9.9009,9.8231,9.8227,9.8557,9.7199,9.7126,9.7603,13.1679,13.1679,13.1679,13.1679,13.1679,13.1295,13.0102,12.991,12.9487,12.8217,12.6909,12.6601,12.7909,12.7602,12.7986,12.9794,13.0679,13.1102,13.1102,13.1487,13.1295,13.0487,12.8794,12.6909,12.4716,12.3485,12.2485,12.1716,12.1216,12.01,11.8484,11.8023,11.7292,11.6484,11.6484,11.6484,11.6484,11.6484,11.6484,11.6484,11.6484,11.6484,11.6484,11.6484,11.6292,11.5984,11.6407,11.6292,11.5901,11.5801,11.5508,11.5012,11.3603,11.2814,11.2274,11.1497,11.1221,11.1221,11.1221,11.1497,11.1872,11.2101,11.2706,11.339,11.3421,11.35,11.3282,11.29,11.2781,11.2699,11.2201,11.0401,10.8482,10.679,10.2904,0.0,0.0,9.7227,9.6757,9.6538,9.8642,10.0189,10.0185,10.1312,10.2219,10.26,10.2687,10.2904,10.3289,10.3289,10.3482,10.3905,10.4289,10.4482,10.4482,10.2888,10.1688,10.0912,9.9216,9.8217,9.7838,9.7061,9.6685,9.6685,9.6685,9.7383,9.8557,9.8557,9.9035,9.9695,9.9328,9.9145,9.9035,9.8264,9.8227,9.8447,13.1679,13.1679,13.1679,13.1679,13.1679,13.141,13.0602,13.0487,13.0217,12.9294,12.8102,12.7794,12.9102,12.8794,12.8986,13.041,13.1179,13.1679,13.1679,13.1679,13.141,13.0794,12.8909,12.6794,12.4486,12.4216,12.3716,12.2908,12.2216,12.0985,11.9408,11.8484,11.76,11.6792,11.6599,11.6484,11.6484,11.6484,11.6484,11.6484,11.6484,11.6599,11.6792,11.6792,11.6792,11.6792,11.6984,11.6792,11.6378,11.6009,11.5501,11.5012,11.3603,11.2814,11.2427,11.1684,11.1404,11.1221,11.1221,11.1698,11.2319,11.3113,11.3883,11.451,11.4579,11.4784,11.4769,11.4079,11.4009,11.3819,11.3105,11.1512,10.9598,10.7713,0.0,0.0,0.0,9.8444,9.7899,9.8978,10.0321,10.1191,10.1694,10.2603,10.321,10.321,10.3821,10.4289,10.4482,10.4289,10.4289,10.4482,10.4905,10.5213,10.5405,10.3905,10.27,10.1722,10.0302,9.9183,9.8426,9.7425,9.7089,9.7236,9.7052,9.7897,9.9402,9.9402,9.9842,10.0576,10.0393,9.9989,9.9622,9.9255,9.9218,9.9255,13.1679,13.1679,13.1679,13.1679,13.1679,13.141,13.0602,13.0487,13.0217,12.9294,12.9102,12.9102,12.9217,12.991,13.041,13.0487,13.1179,13.1679,13.1679,13.1679,13.1679,13.1602,12.9217,12.7101,12.5293,12.4486,12.3716,12.2908,12.2793,12.1908,12.0216,11.9408,11.8484,11.7715,11.6907,11.6484,11.6484,11.6484,11.6484,11.6484,11.6484,11.6984,11.7715,11.7715,11.7715,11.7792,11.86,11.7907,11.6599,11.74,11.6493,11.521,11.5022,11.3911,11.247,11.2392,11.1777,11.1221,11.1221,11.1221,11.1302,11.1404,11.2135,11.27,11.2702,11.3389,11.3995,11.3919,11.3903,11.3919,11.3805,11.1789,10.9406,10.6905,0.0,0.0,9.9211,10.0096,10.068,10.0219,10.2194,10.3395,10.2681,10.4101,10.499,10.499,10.501,10.5405,10.6213,10.5482,10.5405,10.6213,10.5482,10.5482,10.629,10.5405,10.409,10.2525,10.1703,10.0926,10.0113,9.8501,9.8227,9.8888,9.8154,9.8704,10.0209,10.0209,10.0686,10.131,10.0613,10.0686,10.109,9.9659,9.9585,9.9989,13.1679,13.1679,13.1679,13.1679,13.1679,13.1602,13.1295,13.1179,13.1102,13.0794,13.0294,13.0217,13.0718,13.0602,13.0679,13.1179,13.1487,13.1679,13.1679,13.1679,13.1218,13.0217,12.8217,12.6601,12.5409,12.4486,12.3716,12.2908,12.2908,12.1793,11.9485,11.9215,11.8292,11.6984,11.6599,11.6484,11.6484,11.6484,11.6484,11.6484,11.71,11.7484,11.7907,11.8407,11.86,11.86,11.8985,11.8292,11.7407,11.7715,11.6977,11.5791,11.4693,11.3907,11.3108,11.2024,11.1497,11.1221,11.1221,11.1588,11.1985,11.1967,11.2603,11.3374,11.4015,11.4488,11.4887,11.5375,11.5498,11.5404,11.4905,11.3596,11.1912,10.9792,0.0,10.4386,10.2904,10.2813,10.2782,10.2497,10.3823,10.458,10.4313,10.4823,10.5409,10.5905,10.5892,10.629,10.7213,10.6905,10.6905,10.7213,10.7405,10.7098,10.6405,10.6097,10.5301,10.4202,10.2403,10.1296,10.0999,9.9387,9.8814,9.9071,9.8778,9.9255,10.0283,10.0283,10.0796,10.1494,10.12,10.12,10.1384,10.0796,10.0796,10.0907,13.1679,13.1679,13.1679,13.1679,13.1679,13.1679,13.1679,13.1679,13.1679,13.1679,13.1179,13.1102,13.1602,13.1179,13.1102,13.1679,13.1679,13.1679,13.1679,13.1179,13.0294,12.8909,12.7409,12.6178,12.4986,12.4409,12.3716,12.2908,12.2908,12.1908,11.9908,11.9292,11.8484,11.7292,11.6676,11.6484,11.6484,11.6484,11.6676,11.6984,11.76,11.81,11.8715,11.9215,11.9485,11.9485,11.9792,11.9215,11.8215,11.8484,11.7715,11.6302,11.5089,11.4095,11.322,11.16,11.1221,11.1221,11.1221,11.1588,11.1985,11.2128,11.268,11.3487,11.4216,11.4611,11.5012,11.5611,11.5689,11.5498,11.5,11.412,11.301,11.1273,10.8802,10.6819,10.5579,10.5196,10.5109,10.5109,10.5595,10.599,10.599,10.5689,10.5807,10.6419,10.6425,10.6713,10.729,10.7598,10.7713,10.7713,10.8713,10.8598,10.7213,10.6905,10.632,10.5219,10.3198,10.2122,10.1781,10.0199,9.9622,9.9842,9.9585,9.9916,10.0686,10.0686,10.12,10.1898,10.1604,10.1677,10.1788,10.1604,10.1494,10.1384,13.1679,13.1679,13.1679,13.1679,13.1679,13.1679,13.1679,13.1679,13.1679,13.1679,13.1679,13.1679,13.1679,13.1679,13.1679,13.1679,13.1679,13.1679,13.1679,13.0102,12.8794,12.7909,12.7101,12.5909,12.4101,12.4101,12.3716,12.2908,12.2908,12.2408,12.1485,11.9908,11.91,11.8985,11.7292,11.6484,11.6484,11.6484,11.6984,11.7792,11.7792,11.8792,12.0292,12.0292,12.0292,12.0408,12.1293,12.0485,11.9215,11.9985,11.8613,11.6469,11.6507,11.4615,11.2274,11.1497,11.1221,11.1221,11.1221,11.1221,11.1221,11.1221,11.1893,11.2509,11.2509,11.3181,11.3911,11.3911,11.3911,11.3911,11.3911,11.3232,11.2105,11.0413,10.94,10.8199,10.6509,10.7084,10.7581,10.7607,10.7687,10.7713,10.7713,10.6905,10.6405,10.6405,10.6405,10.6405,10.6405,10.7213,10.7713,10.7713,10.929,10.979,10.8906,10.8098,10.6873,10.5219,10.441,10.348,10.2712,10.101,10.0686,10.1494,10.0686,10.0796,10.1494,10.1494,10.2008,10.2595,10.1788,10.2008,10.2595,10.1788,10.1494,10.1384,13.1679,13.1679,13.1679,13.1679,13.1679,13.1679,13.1679,13.1679,13.1679,13.1679,13.1679,13.1679,13.1679,13.1679,13.1679,13.1679,13.1679,13.1487,13.091,12.9794,12.8602,12.7101,12.5678,12.4601,12.4101,12.2908,12.2216,12.1985,12.1985,12.1293,11.9792,11.9292,11.8407,11.7292,11.6676,11.6484,11.6484,11.7215,11.76,11.7907,11.91,11.9908,12.0408,12.0985,12.1177,12.1177,12.1485,12.0908,11.9985,12.0216,11.9406,11.8013,11.6107,11.371,11.1509,11.1309,11.1221,11.1221,11.1221,11.1221,11.1221,11.1221,11.141,11.1731,11.2427,11.2701,11.311,11.3777,11.3911,11.3911,11.3911,11.3685,11.2918,11.1202,11.0683,10.9827,10.7503,10.7886,10.8497,10.8493,10.8023,10.7901,10.8479,10.7213,10.6905,10.8098,10.8213,10.7598,10.6521,10.7213,10.7713,10.7713,10.929,10.979,10.8906,10.8714,10.7991,10.6909,10.4902,10.3776,10.3495,10.1895,10.1274,10.1494,10.12,10.1274,10.1494,10.1494,10.1604,10.1788,10.1604,10.1604,10.1788,10.1604,10.1494,10.1494,13.1679,13.1679,13.1679,13.1679,13.1679,13.1679,13.1679,13.1679,13.1679,13.1679,13.1679,13.1679,13.1679,13.1679,13.1679,13.1679,13.1679,13.1487,13.0987,13.0217,12.9294,12.8179,12.6217,12.4716,12.3601,12.2601,12.1908,12.16,12.16,12.0908,11.96,11.9215,11.8407,11.6984,11.6676,11.6484,11.6484,11.71,11.7484,11.7907,11.9292,11.9985,12.0408,12.1293,12.16,12.16,12.16,12.1293,12.0808,12.0388,11.919,11.7512,11.5204,11.3177,11.1698,11.1698,11.1405,11.1221,11.1221,11.1221,11.1221,11.1221,11.1221,11.1286,11.1893,11.1983,11.2072,11.27,11.2776,11.2776,11.2776,11.2776,11.2512,11.1401,11.128,11.052,10.8413,10.8795,10.908,10.8487,10.7903,10.7805,10.8293,10.7212,10.6803,10.7808,10.7905,10.7521,10.6521,10.7213,10.779,10.8213,10.9483,10.9914,10.9397,10.9105,10.8506,10.7607,10.5396,10.4202,10.3904,10.2596,10.1788,10.1494,10.1494,10.1494,10.1494,10.1494,10.1677,10.2008,10.2008,10.2008,10.2008,10.2008,10.1788,10.1494,13.1679,13.1679,13.1679,13.1679,13.1679,13.1679,13.1679,13.1679,13.1679,13.1679,13.1679,13.1679,13.1679,13.1679,13.1679,13.1679,13.1679,13.1679,13.1602,13.091,13.0487,13.041,12.8179,12.5794,12.3293,12.3024,12.2485,12.1677,12.16,12.1177,12.0292,11.9485,11.86,11.7792,11.6907,11.6484,11.6484,11.6599,11.71,11.7907,11.8792,11.96,12.0292,12.1177,12.1485,12.1485,12.1485,12.15,12.1318,12.0416,11.8315,11.5887,11.4323,11.3183,11.2506,11.2396,11.1919,11.1295,11.1221,11.1221,11.1221,11.1221,11.1221,11.1221,11.1221,11.1221,11.1221,11.1221,11.1221,11.1221,11.1221,11.1221,11.1221,11.1221,11.1221,11.0707,10.9092,10.9529,10.9303,10.7926,10.7627,10.7494,10.7512,10.6804,10.6324,10.6216,10.6417,10.6417,10.622,10.6993,10.7919,10.8804,10.9508,11.0002,11.0291,10.9311,10.8387,10.761,10.5905,10.4689,10.3871,10.2999,10.2191,10.1494,10.1494,10.1494,10.1494,10.1494,10.1898,10.2595,10.2595,10.2595,10.2595,10.2595,10.2081,10.1494,13.1679,13.1679,13.1679,13.1679,13.1679,13.1679,13.1679,13.1679,13.1679,13.1679,13.1679,13.1679,13.1679,13.1679,13.1679,13.1679,13.1679,13.141,13.0794,13.0602,13.0217,12.9487,12.8986,12.7794,12.5909,12.3909,12.2793,12.2601,12.1908,12.1177,12.0292,11.9485,11.86,11.7792,11.6907,11.6484,11.6484,11.7215,11.76,11.7907,11.9408,11.9792,11.9408,12.0292,12.06,12.06,12.06,12.0517,12.0388,11.9418,11.7789,11.6082,11.5806,11.4576,11.3203,11.2579,11.2286,11.1992,11.1405,11.1221,11.1221,11.1221,11.1221,11.1221,11.1221,11.1221,11.1221,11.1221,11.1221,11.1221,11.1221,11.1221,11.1221,11.1221,11.1221,11.0891,10.99,10.9307,10.8919,10.8596,10.7402,10.67,10.67,10.6496,10.5904,10.46,10.6297,10.6489,10.4591,10.5294,10.6398,10.7888,10.7517,10.8508,11.1103,10.8973,10.7801,10.7602,10.5278,10.4099,10.3915,10.2423,10.1677,10.1494,10.1494,10.1494,10.1494,10.1494,10.1604,10.1788,10.1788,10.1788,10.1788,10.1788,10.1604,10.1494,13.1679,13.1679,13.1679,13.1679,13.1679,13.1679,13.1679,13.1679,13.1679,13.1679,13.1679,13.191,13.2295,13.191,13.1679,13.1679,13.1679,13.1487,13.1102,13.1102,13.091,13.041,12.9987,12.9217,12.7909,12.5409,12.3716,12.2908,12.1985,12.1177,12.0292,11.9485,11.86,11.7792,11.6907,11.6484,11.6484,11.6984,11.7407,11.7907,11.9215,11.9715,11.9692,12.0108,12.0287,12.0196,11.9691,11.9495,11.9385,11.888,11.7808,11.6597,11.619,11.5164,11.4011,11.3203,11.2689,11.2212,11.1405,11.1221,11.1221,11.1221,11.1221,11.1221,11.1221,11.1221,11.1221,11.1221,11.1221,11.1221,11.1221,11.1221,11.1221,11.1221,11.1221,11.0891,11.0083,10.9606,10.9086,10.8302,10.7491,10.6696,10.5913,10.5811,10.5308,10.4101,10.5206,10.5272,10.4131,10.4789,10.5813,10.699,10.6995,10.7799,10.9604,10.8284,10.7404,10.7013,10.5307,10.4284,10.388,10.2595,10.1898,10.1494,10.1494,10.1494,10.1494,10.1494,10.1494,10.1494,10.1898,10.1788,10.1494,10.1898,10.1788,10.1384,13.1679,13.1679,13.1679,13.1679,13.1679,13.1679,13.1679,13.1679,13.1679,13.1679,13.1679,13.1987,13.2679,13.2102,13.1795,13.191,13.1795,13.1679,13.1679,13.1679,13.1679,13.1679,13.1102,13.0294,12.941,12.7217,12.5101,12.3101,12.21,12.1177,12.0485,11.9715,11.8908,11.8215,11.7215,11.6676,11.6676,11.6676,11.71,11.7907,11.8908,11.9492,11.9886,11.9927,11.989,11.971,11.9014,11.8806,11.8801,11.8594,11.8019,11.7094,11.6397,11.5699,11.4818,11.3901,11.3093,11.2396,11.1515,11.1221,11.1221,11.1221,11.1221,11.1221,11.1221,11.1221,11.1221,11.1221,11.1221,11.1221,11.1221,11.1221,11.1221,11.1221,11.1221,11.0891,11.0083,10.9973,10.9386,10.7771,10.7294,10.6604,10.5098,10.4996,10.4602,10.3588,10.379,10.3897,10.3588,10.4279,10.5203,10.6182,10.6697,10.719,10.7777,10.7516,10.7089,10.6596,10.5605,10.4798,10.41,10.3109,10.2301,10.1677,10.1567,10.1494,10.1494,10.1494,10.1494,10.1567,10.2081,10.2008,10.1567,10.2191,10.2081,10.1384,13.1679,13.1679,13.1679,13.1679,13.1679,13.1679,13.1679,13.1679,13.1679,13.1679,13.1679,13.1679,13.191,13.1795,13.1987,13.2795,13.2102,13.1679,13.1679,13.1679,13.1679,13.1679,13.1602,13.1179,13.0294,12.9217,12.7101,12.3909,12.2408,12.1485,12.1408,12.0485,12.01,11.9908,11.8292,11.76,11.76,11.76,11.7715,11.7907,11.9485,11.9302,11.8107,11.8786,11.8576,11.7896,11.8477,11.9106,11.9533,11.872,11.7895,11.7204,11.7094,11.6507,11.5479,11.3974,11.3497,11.3093,11.1588,11.1221,11.1221,11.1221,11.1221,11.1221,11.1221,11.1221,11.1221,11.1221,11.1221,11.1221,11.1221,11.1221,11.1221,11.1221,11.1221,11.0891,11.0083,10.9973,10.9386,10.7771,10.6302,10.5096,10.4195,10.4099,10.3515,10.2004,10.3093,10.3276,10.1895,10.2609,10.3816,10.531,10.4685,10.579,10.8597,10.7297,10.6911,10.7367,10.5825,10.5018,10.4908,10.3403,10.2595,10.2522,10.1788,10.1494,10.1494,10.1494,10.1494,10.1384,10.0907,10.098,10.1494,10.1604,10.1604,10.1494,13.1679,13.1679,13.1679,13.1679,13.1679,13.1679,13.1679,13.1679,13.1679,13.1679,13.1679,13.191,13.241,13.241,13.241,13.2295,13.191,13.1679,13.1679,13.1679,13.1679,13.1679,13.1679,13.1295,13.0487,12.9602,12.7986,12.5601,12.4293,12.2985,12.16,12.1177,12.0793,12.0216,11.91,11.8484,11.8484,11.8484,11.8792,11.9308,11.9917,12.0003,11.9708,11.9479,11.9104,11.8801,11.9099,11.9411,11.9585,11.9191,11.8783,11.8416,11.7498,11.7021,11.6397,11.4708,11.3974,11.3277,11.2212,11.1515,11.1221,11.1221,11.1221,11.1221,11.1221,11.1221,11.1221,11.1221,11.1221,11.1221,11.1221,11.1221,11.1221,11.1221,11.1221,11.1111,11.0707,11.0707,11.0083,10.8505,10.7183,10.6009,10.4687,10.421,10.3586,10.2889,10.2704,10.2374,10.2195,10.2483,10.2974,10.3789,10.4309,10.5302,10.6706,10.6517,10.6596,10.689,10.6192,10.5311,10.4394,10.3219,10.2485,10.2008,10.1677,10.1494,10.1494,10.1494,10.1494,10.1494,10.109,10.12,10.1494,10.1494,10.1494,10.1384]}]]